[[{"header":{"parameterUnit":"m.s-1","parameterCategory":1,"la1":30.6,"la2":29.2853,"lo1":-89.7004,"lo2":-87.6739,"dy":0.0162,"dx":0.0183,"nx":112,"ny":82,"refTime":"2023-03-16T00:00:00:Z","depth":0,"parameterNumber":2,"parameterNumberName":"U-component_of_WINDS"},"data":[0.0,0.0,0.0,0.0,0.0,0.0,0.0,0.0,0.0,0.0,0.0,0.0,0.0,0.0,0.0,0.0,0.0,0.0,0.0,0.0,0.0,0.0,0.0,0.0,0.0,0.0,0.0,0.0,0.0,0.0,0.0,0.0,0.0,0.0,0.0,0.0,0.0,0.0,0.0,0.0,0.0,0.0,0.0,0.0,0.0,0.0,0.0,0.0,0.0,0.0,0.0,0.0,0.0,0.0,0.0,0.0,0.0,0.0,0.0,0.0,0.0,0.0,0.0,0.0,0.0,0.0,0.0,0.0,0.0,0.0,0.0,0.0,0.0,0.0,0.0,0.0,0.0,0.0,0.0,0.0,0.0,0.0,0.0,0.0,0.0,0.0,0.0,0.0,0.0,0.0,-2.5084,-2.7346,-3.1387,-3.5964,-4.0853,-4.3973,-4.7912,-5.2986,0.0,0.0,0.0,0.0,0.0,0.0,0.0,0.0,0.0,0.0,0.0,0.0,0.0,0.0,0.0,0.0,0.0,0.0,0.0,0.0,0.0,0.0,0.0,0.0,0.0,0.0,0.0,0.0,0.0,0.0,0.0,0.0,0.0,0.0,0.0,0.0,0.0,0.0,0.0,0.0,0.0,0.0,0.0,0.0,0.0,0.0,0.0,0.0,0.0,0.0,0.0,0.0,0.0,0.0,0.0,0.0,0.0,0.0,0.0,0.0,0.0,0.0,0.0,0.0,0.0,0.0,0.0,0.0,0.0,0.0,0.0,0.0,0.0,0.0,0.0,0.0,0.0,0.0,0.0,0.0,0.0,0.0,0.0,0.0,0.0,0.0,0.0,0.0,0.0,0.0,0.0,0.0,0.0,0.0,0.0,0.0,0.0,0.0,0.0,0.0,0.0,0.0,0.0,0.0,-2.7927,-3.3754,-3.6942,-4.1379,-4.8286,-4.8743,-5.1277,-5.7685,0.0,0.0,0.0,0.0,0.0,0.0,0.0,0.0,0.0,0.0,0.0,0.0,0.0,0.0,0.0,0.0,0.0,0.0,0.0,0.0,0.0,0.0,0.0,0.0,0.0,0.0,0.0,0.0,0.0,0.0,0.0,0.0,0.0,0.0,0.0,0.0,0.0,0.0,0.0,0.0,0.0,0.0,0.0,0.0,0.0,0.0,0.0,0.0,0.0,0.0,0.0,0.0,0.0,0.0,0.0,0.0,0.0,0.0,0.0,0.0,0.0,0.0,0.0,0.0,0.0,0.0,0.0,0.0,0.0,0.0,0.0,0.0,0.0,0.0,0.0,0.0,0.0,0.0,0.0,0.0,0.0,0.0,0.0,0.0,0.0,0.0,0.0,0.0,0.0,0.0,0.0,0.0,0.0,0.0,0.0,0.0,0.0,0.0,0.0,0.0,0.0,0.0,0.0,-2.8681,-3.182,-3.6548,-4.0375,-4.4503,-4.9396,-5.1116,-5.3782,-5.7818,-5.8025,0.0,0.0,0.0,0.0,0.0,0.0,0.0,0.0,0.0,0.0,0.0,0.0,0.0,0.0,0.0,0.0,0.0,0.0,0.0,0.0,0.0,0.0,0.0,0.0,0.0,0.0,0.0,0.0,0.0,0.0,0.0,0.0,0.0,0.0,0.0,0.0,0.0,0.0,0.0,0.0,0.0,0.0,0.0,0.0,0.0,0.0,0.0,0.0,0.0,0.0,0.0,0.0,0.0,0.0,0.0,0.0,0.0,0.0,0.0,0.0,0.0,0.0,0.0,0.0,0.0,0.0,0.0,0.0,0.0,0.0,0.0,0.0,0.0,0.0,0.0,0.0,0.0,0.0,0.0,0.0,0.0,0.0,0.0,0.0,0.0,0.0,0.0,0.0,0.0,0.0,0.0,0.0,0.0,0.0,0.0,0.0,0.0,0.0,0.0,0.0,0.0,0.0,-3.2415,-3.6387,-3.944,-4.364,-4.7432,-5.0381,-5.307,-5.556,-5.7831,-5.8838,0.0,0.0,0.0,0.0,0.0,0.0,0.0,0.0,0.0,0.0,0.0,0.0,0.0,0.0,0.0,0.0,0.0,0.0,0.0,0.0,0.0,0.0,0.0,0.0,0.0,0.0,0.0,0.0,0.0,0.0,0.0,0.0,0.0,0.0,0.0,0.0,0.0,0.0,0.0,0.0,0.0,0.0,0.0,0.0,0.0,0.0,0.0,0.0,0.0,0.0,0.0,0.0,0.0,0.0,0.0,0.0,0.0,0.0,0.0,0.0,0.0,0.0,0.0,0.0,0.0,0.0,0.0,0.0,0.0,0.0,0.0,0.0,0.0,0.0,0.0,0.0,0.0,0.0,0.0,0.0,0.0,0.0,0.0,0.0,0.0,0.0,0.0,0.0,0.0,0.0,0.0,0.0,0.0,0.0,0.0,0.0,0.0,0.0,0.0,0.0,0.0,0.0,-3.7449,-4.2061,-4.4418,-4.7357,-5.0657,-5.4658,-5.4909,-5.6336,-5.9709,-5.9801,0.0,0.0,0.0,0.0,0.0,0.0,0.0,0.0,0.0,0.0,0.0,0.0,0.0,0.0,0.0,0.0,0.0,0.0,0.0,0.0,0.0,0.0,0.0,0.0,0.0,0.0,0.0,0.0,0.0,0.0,0.0,0.0,0.0,0.0,0.0,0.0,0.0,0.0,0.0,0.0,0.0,0.0,0.0,0.0,0.0,0.0,0.0,0.0,0.0,0.0,0.0,0.0,0.0,0.0,0.0,0.0,0.0,0.0,0.0,0.0,0.0,0.0,0.0,0.0,0.0,0.0,0.0,0.0,0.0,0.0,0.0,0.0,0.0,0.0,0.0,0.0,0.0,0.0,0.0,0.0,0.0,0.0,0.0,0.0,0.0,0.0,0.0,0.0,0.0,0.0,0.0,0.0,0.0,0.0,0.0,0.0,0.0,0.0,0.0,0.0,0.0,0.0,-4.0061,-4.3863,-4.6547,-4.8895,-5.1236,-5.3585,-5.4626,-5.633,-5.8871,0.0,0.0,0.0,0.0,0.0,0.0,0.0,0.0,0.0,0.0,0.0,0.0,0.0,0.0,0.0,0.0,0.0,0.0,0.0,0.0,0.0,0.0,0.0,0.0,0.0,0.0,0.0,0.0,0.0,0.0,0.0,0.0,0.0,0.0,0.0,0.0,0.0,0.0,0.0,0.0,0.0,0.0,0.0,0.0,0.0,0.0,0.0,0.0,0.0,0.0,0.0,0.0,0.0,0.0,0.0,0.0,0.0,0.0,0.0,0.0,0.0,0.0,0.0,0.0,0.0,0.0,0.0,0.0,0.0,0.0,0.0,0.0,0.0,0.0,0.0,0.0,0.0,0.0,0.0,0.0,0.0,0.0,0.0,0.0,0.0,0.0,0.0,0.0,0.0,0.0,0.0,0.0,0.0,0.0,0.0,0.0,0.0,0.0,0.0,0.0,0.0,0.0,-3.9606,-4.2772,-4.5766,-4.8779,-5.0434,-5.1824,-5.3048,-5.4223,-5.5619,-5.7391,0.0,0.0,0.0,0.0,0.0,0.0,0.0,0.0,0.0,0.0,0.0,0.0,0.0,0.0,0.0,0.0,0.0,0.0,0.0,0.0,0.0,0.0,0.0,0.0,0.0,0.0,0.0,0.0,0.0,0.0,0.0,0.0,0.0,0.0,0.0,0.0,0.0,0.0,0.0,0.0,0.0,0.0,0.0,0.0,0.0,0.0,0.0,0.0,0.0,0.0,0.0,0.0,0.0,0.0,0.0,0.0,0.0,0.0,0.0,0.0,0.0,0.0,0.0,0.0,0.0,0.0,0.0,0.0,0.0,0.0,0.0,0.0,0.0,0.0,0.0,0.0,0.0,0.0,0.0,0.0,0.0,0.0,0.0,0.0,0.0,0.0,0.0,0.0,0.0,0.0,0.0,0.0,0.0,0.0,0.0,0.0,0.0,0.0,0.0,0.0,0.0,0.0,-4.3231,-4.5892,-4.8486,-5.1369,-5.2263,-5.3011,-5.3865,-5.3894,-5.4481,0.0,0.0,0.0,0.0,0.0,0.0,0.0,0.0,0.0,0.0,0.0,0.0,0.0,0.0,0.0,0.0,0.0,0.0,0.0,0.0,0.0,0.0,0.0,0.0,0.0,0.0,0.0,0.0,0.0,0.0,0.0,0.0,0.0,0.0,0.0,0.0,0.0,0.0,0.0,0.0,0.0,0.0,0.0,0.0,0.0,0.0,0.0,0.0,0.0,0.0,0.0,0.0,0.0,0.0,0.0,0.0,0.0,0.0,0.0,0.0,0.0,0.0,0.0,0.0,0.0,0.0,0.0,0.0,0.0,0.0,0.0,0.0,0.0,0.0,0.0,0.0,0.0,0.0,0.0,0.0,0.0,0.0,0.0,0.0,0.0,0.0,0.0,0.0,0.0,0.0,0.0,0.0,0.0,0.0,0.0,0.0,0.0,0.0,0.0,0.0,0.0,0.0,0.0,-4.672,-4.8016,-4.9472,-5.212,-5.1689,-5.2023,-5.3865,-5.3217,-5.3851,-5.6717,0.0,0.0,0.0,0.0,0.0,0.0,0.0,0.0,0.0,0.0,0.0,0.0,0.0,0.0,0.0,0.0,0.0,0.0,0.0,0.0,0.0,0.0,0.0,0.0,0.0,0.0,0.0,0.0,0.0,0.0,0.0,0.0,0.0,0.0,0.0,0.0,0.0,0.0,0.0,0.0,0.0,0.0,0.0,0.0,0.0,0.0,0.0,0.0,0.0,0.0,0.0,0.0,0.0,0.0,0.0,0.0,0.0,0.0,0.0,0.0,0.0,0.0,0.0,0.0,0.0,0.0,0.0,0.0,0.0,0.0,0.0,0.0,0.0,0.0,0.0,0.0,0.0,0.0,0.0,0.0,0.0,0.0,0.0,0.0,0.0,0.0,0.0,0.0,0.0,0.0,0.0,0.0,0.0,0.0,0.0,0.0,0.0,0.0,0.0,0.0,0.0,0.0,-4.9277,-4.9118,-4.9527,-5.1652,-5.1378,-5.1486,-5.2623,-5.1953,-5.2498,-5.5026,0.0,0.0,0.0,0.0,0.0,0.0,0.0,0.0,0.0,0.0,0.0,0.0,0.0,0.0,0.0,0.0,0.0,0.0,0.0,0.0,0.0,0.0,0.0,0.0,0.0,0.0,0.0,0.0,0.0,0.0,0.0,0.0,0.0,0.0,0.0,0.0,0.0,0.0,0.0,0.0,0.0,0.0,0.0,0.0,0.0,0.0,0.0,0.0,0.0,0.0,0.0,0.0,0.0,0.0,0.0,0.0,0.0,0.0,0.0,0.0,0.0,0.0,0.0,0.0,0.0,0.0,0.0,0.0,0.0,0.0,0.0,0.0,0.0,0.0,0.0,0.0,0.0,0.0,0.0,0.0,0.0,0.0,0.0,0.0,0.0,0.0,0.0,0.0,0.0,0.0,0.0,0.0,0.0,0.0,0.0,0.0,0.0,0.0,0.0,0.0,0.0,0.0,-5.1044,-4.9528,-4.8736,-5.0425,-5.1039,-5.1236,-5.0895,-5.0472,-5.0777,-5.191,0.0,0.0,0.0,0.0,0.0,0.0,0.0,0.0,0.0,0.0,0.0,0.0,0.0,0.0,0.0,0.0,0.0,0.0,0.0,0.0,0.0,0.0,0.0,0.0,0.0,0.0,0.0,0.0,0.0,0.0,0.0,0.0,0.0,0.0,0.0,0.0,0.0,0.0,0.0,0.0,0.0,0.0,0.0,0.0,0.0,0.0,0.0,0.0,0.0,0.0,0.0,0.0,0.0,0.0,0.0,0.0,0.0,0.0,0.0,0.0,3.1934,3.0778,0.0,0.0,0.0,0.0,0.0,0.0,0.0,0.0,0.0,0.0,0.0,0.0,0.0,0.0,0.0,0.0,0.0,0.0,0.0,0.0,0.0,0.0,0.0,0.0,0.0,0.0,0.0,0.0,0.0,0.0,0.0,0.0,0.0,0.0,0.0,0.0,0.0,0.0,0.0,0.0,-5.0788,-4.8979,-4.798,-4.9254,-4.9351,-4.9801,-5.1363,-5.1162,-5.1629,-5.3014,-5.4822,0.0,0.0,0.0,0.0,0.0,0.0,0.0,0.0,0.0,0.0,0.0,0.0,0.0,0.0,0.0,0.0,0.0,0.0,0.0,0.0,0.0,0.0,0.0,0.0,0.0,0.0,0.0,0.0,0.0,0.0,0.0,0.0,0.0,0.0,0.0,0.0,0.0,0.0,0.0,0.0,0.0,0.0,0.0,0.0,0.0,0.0,0.0,0.0,0.0,0.0,0.0,0.0,0.0,0.0,0.0,0.0,0.0,0.0,0.0,3.0981,2.9439,0.0,0.0,0.0,0.0,0.0,0.0,0.0,0.0,0.0,0.0,0.0,0.0,0.0,0.0,0.0,0.0,0.0,0.0,0.0,0.0,0.0,0.0,0.0,0.0,0.0,0.0,0.0,0.0,0.0,0.0,0.0,0.0,0.0,0.0,0.0,0.0,0.0,0.0,0.0,0.0,-5.1067,-4.8973,-4.746,-4.8027,-4.8594,-4.9364,-5.0211,-5.0844,-5.1741,-5.3096,-5.5026,0.0,0.0,0.0,0.0,0.0,0.0,0.0,0.0,0.0,0.0,0.0,0.0,0.0,0.0,0.0,0.0,0.0,0.0,0.0,0.0,0.0,0.0,0.0,0.0,0.0,0.0,0.0,0.0,0.0,0.0,0.0,0.0,0.0,0.0,0.0,0.0,0.0,0.0,0.0,0.0,0.0,0.0,0.0,0.0,0.0,0.0,0.0,0.0,0.0,0.0,0.0,0.0,0.0,3.9512,3.9707,3.9829,3.6101,3.4243,3.3851,3.071,2.8688,2.7741,2.8095,0.0,0.0,0.0,0.0,0.0,0.0,0.0,0.0,0.0,0.0,0.0,0.0,0.0,0.0,0.0,0.0,0.0,0.0,0.0,0.0,0.0,0.0,-1.9469,-2.1948,-2.454,-2.6571,-2.7619,0.0,0.0,0.0,0.0,0.0,0.0,0.0,0.0,0.0,0.0,0.0,-5.1017,-4.8744,-4.6939,-4.6927,-4.8238,-4.927,-4.9367,-5.0803,-5.2154,-5.3065,-5.5348,-5.7326,0.0,0.0,0.0,0.0,0.0,0.0,0.0,0.0,0.0,0.0,0.0,0.0,0.0,0.0,0.0,0.0,0.0,0.0,0.0,0.0,0.0,0.0,0.0,0.0,0.0,0.0,0.0,0.0,0.0,0.0,0.0,0.0,4.7167,4.7096,0.0,0.0,0.0,0.0,0.0,0.0,0.0,0.0,0.0,0.0,0.0,0.0,0.0,4.43,4.3468,4.2648,4.1684,4.0351,4.0742,4.0569,3.9798,3.8199,3.6095,3.3307,3.2098,0.0,2.8167,2.8437,0.0,0.0,0.0,0.0,0.0,0.0,0.0,0.0,0.0,0.0,0.0,0.0,0.0,0.0,0.0,0.0,0.0,0.0,0.0,0.0,0.0,0.0,-2.1249,-2.1776,-2.505,-2.8072,-2.9308,-3.0591,-3.2877,-3.6751,-3.9481,-4.2393,0.0,0.0,0.0,0.0,0.0,0.0,-4.9581,-4.731,-4.5885,-4.6364,-4.7573,-4.9092,-5.0959,-5.3129,-5.4206,-5.3633,-5.641,-5.8427,-5.94,-6.124,0.0,0.0,0.0,0.0,0.0,0.0,0.0,0.0,0.0,0.0,0.0,0.0,0.0,0.0,0.0,0.0,0.0,0.0,0.0,0.0,0.0,0.0,0.0,0.0,0.0,0.0,0.0,0.0,0.0,4.8644,4.8182,4.7828,4.7308,4.6537,0.0,0.0,0.0,0.0,0.0,0.0,0.0,0.0,0.0,4.6625,4.4891,4.3969,4.4003,4.2583,4.164,4.1601,4.1805,4.1675,4.1484,3.9523,3.7204,3.4532,3.2859,3.0881,2.8757,2.8451,2.8261,2.8193,0.0,0.0,0.0,0.0,2.4368,2.1524,1.8283,1.5348,1.2665,0.9616,0.0,0.0,0.0,0.0,0.0,0.0,0.0,-1.6544,-1.6552,-1.957,-2.2803,-2.3189,-2.7041,-3.0713,-3.1371,-3.4053,-3.7028,-3.9672,-4.1733,-4.4245,-4.7645,-4.8536,0.0,0.0,0.0,-4.7895,-4.816,-4.6592,-4.5698,-4.625,-4.7648,-4.9153,-5.0445,-5.355,-5.5159,-5.4667,-5.6957,-5.9032,-6.0718,-6.1958,-6.3684,0.0,0.0,0.0,0.0,0.0,0.0,0.0,0.0,0.0,0.0,0.0,0.0,0.0,0.0,0.0,0.0,0.0,0.0,0.0,0.0,0.0,0.0,0.0,0.0,0.0,0.0,0.0,0.0,4.9234,4.9267,4.8158,4.8812,4.851,0.0,0.0,0.0,0.0,0.0,0.0,4.6988,4.7593,4.7686,4.6752,4.5043,4.4181,4.4484,4.2761,4.2133,4.2767,4.2863,4.2873,4.2854,4.0959,3.8546,3.5854,3.4134,3.1944,2.9419,2.8604,2.8257,2.8372,2.8428,2.788,2.6716,2.5351,2.2408,1.8834,1.6549,1.3409,1.0017,0.7811,0.4013,0.0175,-0.1749,0.0,0.0,0.0,0.0,-1.7383,-1.7552,-2.0548,-2.3762,-2.5029,-2.8976,-3.2602,-3.3559,-3.7016,-4.0521,-4.1776,-4.3329,-4.5397,-4.8455,-4.7832,0.0,-4.9411,-4.7726,-4.6552,-4.731,-4.6371,-4.5968,-4.6704,-4.8224,-4.9683,-5.0976,-5.4216,-5.6267,-5.6309,-5.8176,-6.0024,-6.1958,-6.2781,-6.3973,-6.5653,0.0,0.0,0.0,0.0,0.0,0.0,0.0,0.0,0.0,0.0,0.0,0.0,0.0,0.0,0.0,0.0,0.0,0.0,0.0,0.0,0.0,0.0,0.0,0.0,0.0,0.0,0.0,0.0,0.0,4.8632,5.0332,0.0,0.0,0.0,0.0,4.8297,4.8523,4.8657,4.8368,4.9307,4.8944,4.6894,4.6959,4.6322,4.4759,4.4449,4.409,4.3587,4.4049,4.3747,4.287,4.2697,4.0368,3.6431,3.6431,3.4111,3.0595,2.9165,2.8577,2.8695,2.9713,2.8111,2.5106,2.4866,2.1631,1.7107,1.4177,1.1942,1.0155,0.6712,0.0697,-0.5553,-0.7629,-1.1934,0.0,0.0,-1.769,-1.9409,-2.0544,-2.2036,-2.4028,-2.7136,-3.0205,-3.3072,-3.5569,-3.8691,-4.1046,-4.1201,-4.289,-4.4936,-4.6909,0.0,-4.6863,-4.8666,-4.747,-4.6552,-4.7195,-4.6729,-4.673,-4.786,-4.9033,-5.109,-5.4293,-5.6154,-5.7715,-5.9133,-6.064,-6.185,-6.2645,-6.3869,-6.4953,-6.5865,-6.6973,0.0,0.0,0.0,0.0,0.0,0.0,0.0,0.0,0.0,0.0,0.0,0.0,0.0,0.0,0.0,0.0,0.0,0.0,0.0,0.0,0.0,0.0,0.0,0.0,0.0,0.0,0.0,0.0,5.1437,5.2886,0.0,5.1139,5.0479,5.0247,5.023,5.0465,5.0717,5.0962,5.1364,5.0974,4.9761,4.8374,4.7208,4.6064,4.5066,4.4485,4.4394,4.4303,4.4137,4.4118,4.3523,4.0894,3.686,3.686,3.4576,3.0755,3.0234,2.9793,2.9379,2.8233,2.6202,2.3642,2.1078,1.769,1.4215,1.215,0.9564,0.6744,0.3227,-0.1427,-0.6021,-0.7851,-1.1472,-1.5294,-1.7128,-1.9774,-2.2499,-2.4714,-2.7187,-2.9725,-3.1824,-3.4208,-3.6367,-3.8485,-4.0675,-4.2505,-4.3387,-4.4475,-4.5615,-4.6909,-4.6677,-4.6371,-4.6645,-4.644,-4.622,-4.6111,-4.6964,-4.7652,-4.8094,-5.0271,-5.2435,-5.4097,-5.656,-5.8109,-5.8692,-6.0502,-6.1912,-6.2681,-6.3519,-6.4601,-6.5865,-6.5617,-6.5816,0.0,0.0,0.0,0.0,0.0,0.0,0.0,0.0,0.0,0.0,0.0,0.0,0.0,0.0,0.0,0.0,0.0,0.0,0.0,0.0,0.0,0.0,0.0,0.0,0.0,5.3661,5.4022,5.3955,5.5203,5.5232,5.3023,5.2625,5.2421,5.233,5.2259,5.2493,5.2869,5.2423,5.1578,5.0295,4.8645,4.7305,4.6102,4.5541,4.5205,4.4942,4.4554,4.4448,4.4609,4.3108,4.0576,3.7226,3.6495,3.4367,3.1089,3.0329,2.9793,2.9028,2.7115,2.4436,2.1383,1.8512,1.5233,1.1871,0.9665,0.6696,0.3356,0.0893,-0.3029,-0.6905,-0.8661,-1.2606,-1.6949,-1.9923,-2.3353,-2.6558,-2.9203,-3.1352,-3.3449,-3.5575,-3.7123,-3.8477,-4.0423,-4.2034,-4.3553,-4.4666,-4.5586,-4.6312,-4.6684,-4.6552,-4.6301,-4.6301,-4.6301,-4.6301,-4.6301,-4.7478,-4.851,-4.908,-5.1343,-5.3514,-5.5054,-5.7572,-5.9069,-5.9131,-6.1087,-6.2369,-6.2544,-6.3693,-6.4706,-6.5478,-6.5023,-6.5162,-6.5787,0.0,0.0,0.0,0.0,0.0,0.0,0.0,0.0,0.0,0.0,0.0,0.0,0.0,0.0,0.0,0.0,0.0,0.0,0.0,0.0,0.0,0.0,0.0,5.5729,5.6503,5.6972,5.604,5.7116,5.68,5.434,5.4843,5.5126,5.4466,5.4271,5.4182,5.4257,5.2423,5.0502,4.8334,4.7764,4.664,4.4808,4.5581,4.5788,4.5405,4.5013,4.4665,4.4105,4.1664,3.9441,3.7591,3.5569,3.354,3.1487,2.9542,2.8258,2.7691,2.6725,2.3168,1.8433,1.7714,1.4597,1.0002,0.6901,0.3176,-0.0,-0.0,-0.3814,-0.8654,-1.0517,-1.5762,-2.1947,-2.4889,-2.803,-3.1183,-3.3751,-3.4416,-3.5163,-3.7893,-3.8496,-3.9126,-4.1194,-4.2704,-4.3993,-4.5038,-4.6241,-4.6979,-4.6401,-4.6326,-4.6677,-4.7707,-4.7004,0.0,-4.7732,-4.8575,-4.9488,-5.1071,-5.2347,-5.4285,-5.7286,-5.9382,-6.0598,-6.0671,-6.2599,-6.331,-6.2424,-6.4566,-6.5443,-6.4706,-6.5268,-6.5126,-6.4145,0.0,0.0,0.0,0.0,0.0,0.0,0.0,0.0,0.0,0.0,0.0,0.0,0.0,0.0,0.0,0.0,0.0,0.0,0.0,0.0,0.0,5.9159,5.9399,5.7404,5.8047,5.8381,5.7495,5.8877,5.9053,5.7287,5.7106,5.6758,5.6367,5.6017,5.5937,5.635,5.435,5.2359,5.078,4.8788,4.6999,4.5237,4.576,4.5779,4.5317,4.5206,4.5151,4.4948,4.2452,4.0057,3.7957,3.5966,3.4063,3.1792,2.9829,2.7157,2.4114,2.2152,1.9488,1.6626,1.3642,1.0357,0.6799,0.4463,0.2141,-0.0356,-0.3171,-0.6825,-1.0778,-1.3297,-1.8853,-2.5037,-2.7591,-3.0654,-3.3936,-3.6571,-3.7289,-3.7893,-3.9838,-4.0045,-4.0423,-4.3017,-4.3595,-4.4347,-4.6683,-4.7433,-4.7405,-4.6476,-4.6652,-4.6878,-4.6753,-4.7154,-4.7774,-4.8498,-4.9508,-5.0917,-5.2892,-5.4869,-5.7027,-5.9402,-6.0189,-6.083,-6.1289,-6.1709,-6.1905,-6.1616,-6.274,-6.3512,-6.3898,-6.5128,-6.5689,0.0,0.0,0.0,0.0,0.0,0.0,0.0,0.0,0.0,0.0,0.0,0.0,0.0,0.0,0.0,0.0,0.0,0.0,0.0,0.0,0.0,0.0,6.1691,6.2422,6.0023,6.0234,6.0483,5.9946,6.0104,5.9918,5.9139,5.7988,5.6843,5.6232,5.4962,5.4455,5.4736,5.2497,5.111,5.0592,4.8535,4.6932,4.5797,4.609,4.5938,4.5553,4.5388,4.4924,4.3937,4.1442,3.9062,3.7003,3.5131,3.2994,3.07,2.8605,2.5302,2.1531,0.0,0.0,0.0,0.0,0.6803,0.4297,0.2317,0.0356,-0.16,-0.4546,-0.7972,-1.1521,-1.5293,-2.105,-2.7134,-3.0391,-3.3597,-3.6534,-3.8932,-3.955,-3.9694,-4.0719,-4.1101,-4.1946,-4.4006,-4.4642,-4.5633,-4.7882,-4.8083,0.0,-4.7405,-4.7405,-4.7431,-4.7355,-4.7657,-4.8353,-4.9447,-5.0488,-5.1961,-5.3743,-5.6133,-5.8191,-5.9762,-6.1122,0.0,0.0,0.0,-6.274,-6.274,-6.3126,0.0,0.0,0.0,-6.5549,-6.4917,-6.5689,0.0,0.0,-6.5126,-6.5859,0.0,0.0,0.0,0.0,0.0,0.0,0.0,0.0,0.0,0.0,0.0,0.0,0.0,0.0,0.0,0.0,6.4338,6.5326,6.3235,6.2924,6.2799,6.2456,6.1011,5.9926,5.9878,5.756,5.5802,5.4862,5.2888,5.1555,5.1527,4.9432,0.0,0.0,0.0,4.6544,4.6544,4.6544,4.6379,4.603,4.5421,4.4079,4.2347,3.9704,3.7433,3.5497,3.3643,3.1462,2.9183,2.6737,2.2965,1.8801,1.8469,1.5107,1.0109,0.6864,0.4305,0.2326,0.0532,0.0,0.0,-0.5338,-0.8509,-1.2501,-1.7232,-2.3076,-2.9085,-3.3313,-3.6534,-3.9096,-4.0576,-4.0882,-4.0882,-4.1167,-4.2138,-4.3382,-4.4546,-4.5785,-4.7118,-4.8582,-4.841,-4.8159,-4.8686,-4.8284,-4.8109,-4.8686,-4.841,-4.8804,-5.0621,-5.1625,-5.2783,-5.4377,-5.6747,0.0,-5.946,-6.1985,-6.2634,-6.06,-6.2927,-6.4391,-6.446,-6.453,-6.4917,-6.5619,-6.5689,-6.5092,-6.3723,-6.439,-6.4776,-6.4917,-6.6988,-6.8006,0.0,0.0,0.0,0.0,0.0,0.0,0.0,0.0,0.0,0.0,0.0,0.0,0.0,0.0,0.0,6.396,6.6244,6.7324,6.6207,6.5861,6.4557,6.1466,6.0265,5.9271,5.8529,5.5794,5.4103,5.3894,5.2839,5.2291,5.2599,5.0623,4.9597,4.9752,4.7907,4.6984,4.6984,4.6984,4.6947,4.6855,4.4675,0.0,4.3118,3.9127,3.7007,3.6181,3.4496,3.2119,2.9447,2.5755,1.9953,1.3327,1.2852,1.0373,0.6744,0.6172,0.3607,0.0538,0.0179,-0.2323,-0.5695,-0.8671,-1.2834,-1.746,-2.2189,-2.8032,0.0,-3.5199,-3.8059,-4.0576,-4.0862,-4.0882,-4.1147,-4.2398,-4.2818,-4.3747,-4.6328,-4.6992,-4.7676,-4.9157,-4.8987,-4.8636,-4.8761,-4.8284,-4.8109,-4.8686,-4.9132,-5.006,-5.2069,-5.2939,-5.441,-5.7045,-5.8748,-6.0314,-6.1583,-6.2707,-6.3043,-6.2474,-6.2508,-6.2711,-6.2845,-6.3477,-6.3898,-6.4039,-6.4636,-6.4811,-6.4495,-6.4636,-6.5022,-6.5654,-6.611,-6.6672,0.0,0.0,0.0,0.0,0.0,0.0,0.0,0.0,0.0,0.0,0.0,5.9387,6.0617,0.0,6.3767,6.507,6.7012,6.7495,6.5293,6.5958,6.5263,6.2054,6.0143,5.8932,5.8503,5.5172,5.2778,5.2661,5.1202,5.0397,5.0683,4.9761,4.9314,4.9522,4.8378,4.7607,4.7406,4.7406,4.7314,4.7112,4.4692,4.3011,4.2014,3.866,3.6594,3.5257,3.3232,3.0741,2.8065,2.1822,1.6328,1.164,0.956,0.7656,0.5818,0.4726,0.253,-0.0359,-0.215,-0.4651,-0.7829,-1.2015,-1.614,-2.0517,-2.587,-3.0669,-3.4716,-3.6719,-3.9096,-4.0882,-4.0882,-4.0882,-4.1289,-4.2678,-4.3631,-4.4709,-4.687,-4.7953,-4.8763,-4.9461,-4.9364,-4.9188,-4.9188,-4.8711,-4.8585,-4.9183,-4.9567,-5.0617,-5.2883,-5.3604,-5.4981,-5.7965,-5.9595,-6.0995,-6.2226,-6.2719,-6.3124,-6.3694,-6.3066,-6.2958,-6.3547,-6.432,-6.4566,-6.4179,-6.4917,-6.5092,-6.4706,-6.5092,-6.5514,-6.59,-6.6286,-6.6637,0.0,0.0,0.0,0.0,0.0,0.0,0.0,0.0,5.8121,5.9567,6.0472,6.152,6.3603,6.5054,6.5963,6.6201,6.7634,6.7539,6.4179,6.5462,6.5714,6.3127,6.0533,5.8683,5.8592,5.452,5.1758,5.119,4.9451,4.8497,4.8506,4.8524,4.8671,4.9019,4.8689,4.8359,4.8047,4.8047,4.7649,4.6839,4.4626,4.2327,3.9999,3.7928,3.6159,3.4262,3.0902,2.8052,2.4809,1.7192,1.2886,1.0949,0.7542,0.5847,0.512,0.3103,0.0905,-0.1613,-0.501,-0.7847,-1.0807,-1.5519,-1.9447,-2.3257,-2.882,-3.2462,-3.5288,-3.7881,-3.9754,-4.0882,-4.0882,-4.0882,-4.1289,-4.3097,-4.4298,-4.5638,-4.7425,-4.8763,-4.959,-4.959,-4.959,-4.9565,-4.9464,-4.9317,-4.9339,-4.9837,-5.0153,-5.1053,-5.356,-5.4406,-5.5705,-5.8328,-6.0043,-6.1332,-6.2436,-6.2758,-6.3271,-6.4218,-6.3799,-6.3799,-6.4602,-6.5303,-6.5373,-6.4741,-6.5338,-6.5338,-6.4706,-6.5338,-6.5654,-6.5654,-6.6286,-6.6813,5.9045,5.587,5.2988,5.4171,5.523,5.6759,0.0,0.0,6.2954,6.4076,6.4735,6.5635,6.7086,6.8123,6.8564,6.8239,6.9095,6.8943,6.6474,6.6434,6.6192,6.486,6.1141,5.851,5.7719,5.3314,5.0478,4.9902,4.9144,4.8946,4.9349,4.9368,4.9386,4.9441,4.9386,4.9349,4.9294,4.9294,4.8047,4.5784,4.3543,4.1155,3.8148,3.6467,3.5549,3.4833,2.851,2.3297,1.8878,1.412,1.1182,0.9387,0.7106,0.4916,0.3173,0.111,-0.1821,-0.5373,-0.7492,-1.1357,-1.5866,-1.9628,-2.3781,-2.8085,-3.1666,-3.447,-3.6809,-3.8638,-3.9996,-4.0882,-4.0882,-4.0882,-4.1573,-4.4298,-4.5119,-4.5932,-4.8787,-4.9461,-4.959,-4.959,-4.959,-4.9439,-4.8937,-4.9768,-5.0435,-5.0506,-5.1152,-5.2407,-5.4515,-5.5892,-5.7496,-5.9323,-6.0332,-6.1575,-6.3343,-6.3496,-6.3643,-6.3965,-6.4039,-6.4218,-6.4393,-6.4707,-6.4811,-6.4706,-6.4811,-6.4811,-6.4706,-6.4811,-6.4846,-6.4846,-6.4917,-6.6075,6.0122,5.779,5.6323,5.7339,5.8689,6.0329,6.2793,6.3901,6.4774,6.6331,6.7173,6.7997,6.9511,6.9508,6.8965,6.7955,6.7668,6.6899,6.4902,6.5238,6.5077,6.3778,6.101,5.8858,5.819,5.4165,5.1289,5.0437,5.0031,5.0028,5.0193,5.0211,5.0211,5.0211,4.9991,4.9753,4.9496,4.9496,4.837,4.5892,4.3621,4.1278,3.8888,3.6711,3.3311,2.9056,2.4924,1.9886,1.4812,1.2781,1.0857,0.9072,0.5802,0.3817,0.2831,-0.0371,-0.4016,-0.7735,-1.0702,-1.5213,-2.0038,-2.3393,-2.7642,-3.1795,-3.5032,-3.6922,-3.8547,-4.0211,-4.0781,-4.0882,-4.0882,-4.0882,-4.1551,-4.455,-4.5232,-4.6066,-4.8918,-4.959,-4.959,-4.959,-4.959,-4.9671,-4.9845,-5.0078,-5.0657,-5.2223,-5.2715,-5.3761,-5.5953,-5.7146,-5.8722,-6.092,-6.1929,-6.2745,-6.3526,-6.3673,-6.382,-6.4037,-6.4251,-6.4428,-6.4568,-6.5058,-6.5198,-6.4741,-6.5162,-6.5162,-6.4706,-6.4706,-6.4706,-6.4706,-6.4706,-6.5478,6.0345,5.8787,5.8336,6.023,6.166,6.3118,6.5391,6.6244,6.6838,6.7824,6.8536,6.9235,7.0044,6.9625,6.8616,6.7289,6.6323,6.5318,6.4013,6.3863,6.3774,6.2755,6.0326,5.8331,5.7795,5.4457,5.2007,5.107,5.1025,5.1055,5.1055,5.1055,5.1055,5.1055,5.078,5.0486,5.0175,5.0175,4.8621,4.5549,4.4158,4.1897,3.8953,3.6194,3.1083,2.4117,2.1847,1.7547,1.2344,1.1634,1.0528,0.9126,0.4864,0.2878,0.1896,-0.3336,-0.6935,-0.9922,-1.4068,-1.8876,-2.3688,-2.698,-3.0854,-3.4735,-3.7306,-3.8707,-3.981,-4.1477,-4.1607,-4.1255,-4.1255,-4.1172,-4.1762,-4.4776,-4.5347,-4.6066,-4.8918,-4.959,-4.959,-4.959,-4.9721,-4.9926,-5.0331,-5.0671,-5.1522,-5.3547,-5.4492,-5.555,-5.7275,-5.86,-6.0181,-6.2088,-6.3083,-6.36,-6.36,-6.3747,-6.3892,-6.4109,-6.4217,-6.4428,-6.4637,-6.5268,-6.5303,-6.4741,-6.5268,-6.5268,-6.4706,-6.4706,-6.4706,-6.4706,-6.4706,-6.5127,0.0,0.0,5.7007,6.2037,6.3414,6.4362,6.7408,6.9408,7.0152,6.8653,6.8712,6.8937,6.8163,6.8114,6.7693,6.6015,6.595,6.5695,6.4897,6.3171,6.2062,6.2544,5.8987,5.6332,5.5689,5.3493,5.1924,5.1275,5.166,5.1898,5.1898,5.1898,5.1898,5.1898,5.188,5.188,5.1862,5.1862,4.9261,4.4529,4.4661,4.2061,3.6901,3.409,2.8868,2.2035,2.0168,1.6653,1.2232,1.0414,0.9542,0.9126,0.4864,0.2109,-0.0378,-0.8308,-1.1299,-1.2073,-1.7173,-2.23,-2.6993,-3.0274,-3.3413,-3.6299,-3.7878,-3.9349,-4.0715,-4.242,-4.2559,-4.2207,-4.2207,-4.1876,-4.2246,-4.5157,-4.5462,-4.6066,-4.8918,-4.959,-4.959,-4.959,-5.0127,-5.0428,-4.9976,-5.1952,-5.3761,-5.4009,-5.6484,-5.8237,-5.8328,-6.0604,-6.2167,-6.2279,-6.3083,-6.36,-6.36,-6.36,-6.3673,-6.3927,-6.4109,-6.4251,-6.4393,-6.4603,-6.4741,-6.4706,-6.4741,-6.4741,-6.4706,-6.4706,-6.4706,-6.4706,-6.4706,-6.5127,0.0,0.0,6.1548,6.5083,6.6084,6.6549,6.7585,6.8574,6.8965,6.8081,6.7551,6.6944,6.6504,6.5529,6.4674,6.4293,6.4334,6.3836,6.3054,6.2526,6.1465,5.8923,5.702,5.5024,5.3169,5.2552,5.2054,5.1697,5.1862,5.2045,5.232,5.2749,5.2963,5.2963,5.3177,5.2369,5.0152,5.0152,4.744,4.2302,4.0863,3.8126,3.4115,3.04,2.5517,1.9757,1.6326,1.3178,1.0511,0.9724,0.8664,0.707,0.2692,-0.076,-0.4518,-1.1947,-1.6285,-1.876,-2.1729,-2.5967,-3.026,-3.2397,-3.5154,-3.7896,-3.9669,-4.1089,-4.2159,-4.2761,-4.26,-4.2249,-4.2249,-4.1917,-4.2268,-4.518,-4.5875,-4.658,-4.9463,-5.0142,-5.0142,-5.0142,-5.0383,-5.0838,-5.1575,-5.2799,-5.4416,-5.6642,-5.8205,-5.9379,-5.9957,-6.0804,-6.1332,-6.1332,-6.2167,-6.2779,-6.2779,-6.3417,-6.3892,-6.4072,-6.4217,-6.4428,-6.4568,-6.4637,-6.4706,-6.4706,-6.4706,-6.4706,-6.4706,-6.4706,-6.4706,-6.4706,-6.4706,-6.5127,0.0,6.1349,6.2736,6.6011,6.6888,6.6917,6.7738,6.8334,6.8503,6.7422,6.6033,6.4975,6.3949,6.243,6.1371,6.1523,6.1819,6.1648,6.1069,6.0696,5.9414,5.6417,5.4825,5.341,5.1572,5.1406,5.1529,5.1678,5.199,5.2265,5.2719,5.3316,5.3606,5.4036,5.4251,5.3008,4.9891,4.9891,4.7236,4.1915,3.9235,3.5655,3.1542,2.813,2.3259,1.7439,1.4077,1.1435,0.9669,0.8723,0.7678,0.5891,0.0192,-0.3968,-0.7473,-1.5543,-2.0666,-2.3903,-2.5519,-2.856,-3.1798,-3.4034,-3.6442,-3.8864,-4.0627,-4.1995,-4.3159,-4.3159,-4.2952,-4.2745,-4.2745,-4.2837,-4.3456,-4.5839,-4.6403,-4.7141,-5.0033,-5.0149,-4.9843,-5.089,-5.1216,-5.1776,-5.3161,-5.4507,-5.6161,-5.8483,-5.9555,-6.0247,-6.0837,-6.1168,-6.1413,-6.1413,-6.1929,-6.2436,-6.2779,-6.3417,-6.3892,-6.4037,-6.4217,-6.4428,-6.4568,-6.4637,-6.4706,-6.4706,-6.4706,-6.4706,-6.4706,-6.4706,-6.4706,-6.4706,-6.4706,-6.5268,6.0554,6.0613,6.0821,6.5149,6.5792,6.5776,6.7453,6.8508,6.8523,6.6192,6.4545,6.2591,0.0,0.0,5.8111,5.7869,5.8751,5.9357,5.935,5.8106,5.6571,5.5148,0.0,5.1629,5.0996,5.0399,5.0541,5.1293,5.2064,5.2719,5.3419,5.3792,5.4233,5.4882,5.4882,5.3544,5.1287,5.0865,4.8189,4.3018,3.9387,3.4782,2.952,2.6981,2.1871,1.5045,1.2947,1.1166,0.9464,0.7374,0.6349,0.5142,-0.289,-0.7165,-0.9972,-1.908,-2.4281,-2.7162,-2.8519,-3.0079,-3.2128,-3.5187,-3.7259,-3.8864,-4.0627,-4.235,-4.3615,-4.3615,-4.3615,-4.3615,-4.3767,-4.4571,-4.5654,-4.7196,-4.7138,-4.7679,-5.0627,-4.9621,-4.9047,-5.1922,-5.2551,-5.311,-5.4672,-5.6953,-5.8876,-5.9596,-6.043,-6.0953,-6.0837,-6.1689,-6.2201,-6.2201,-6.2279,-6.2625,-6.3486,-6.36,-6.3708,-6.3962,-6.4143,-6.4251,-6.4393,-6.4568,-6.4706,-6.4706,-6.4706,-6.4706,-6.4706,-6.4706,-6.4706,-6.4706,-6.4706,-6.5514,6.046,6.135,6.2139,6.5264,6.5453,6.4652,6.4805,6.5263,6.4991,6.2323,6.0482,5.8793,5.6666,5.675,5.7334,5.7679,5.9022,5.9858,5.9453,5.8364,0.0,5.4345,0.0,5.2798,5.1872,5.1504,5.1568,5.177,5.1972,5.2572,5.3829,5.4393,5.4882,5.551,5.4158,5.2163,4.9249,4.4789,4.189,4.0526,3.6479,3.2291,2.7659,2.2992,1.8113,1.3059,1.1208,0.9051,0.7172,0.6707,0.3713,-0.1162,-0.6274,-1.1536,-1.7314,-2.3721,-2.7813,-3.0441,-3.1768,-3.2623,-3.346,-3.6797,-3.8213,-3.9022,-4.2022,-4.3289,-4.3615,-4.3615,-4.3615,-4.3898,-4.5063,-4.5292,-4.5944,-4.8521,-4.8263,-4.817,-5.1173,-5.0185,-4.9585,-5.2388,-5.4075,-5.5713,-5.7728,-5.9755,-6.1142,-6.1199,-6.208,-6.2048,-6.0173,-6.067,-6.1003,-6.0365,-6.1528,-6.2561,-6.3373,-6.3577,-6.3915,-6.4689,-6.4349,-6.4251,-6.4393,-6.4568,-6.4706,-6.4706,-6.4706,-6.4706,-6.4706,-6.4706,-6.4706,-6.4706,-6.4706,-6.5233,6.0942,6.216,6.3111,6.4879,6.5046,6.4462,6.3185,6.3365,6.2956,6.0099,5.8215,5.6526,5.4986,5.5293,5.5867,0.0,0.0,0.0,5.8255,5.7427,5.5908,0.0,5.3577,0.0,5.2028,5.2019,5.2082,5.2879,5.2731,5.3037,5.4149,5.4768,5.506,5.459,5.347,5.1251,4.747,4.279,4.0268,3.9885,3.5918,3.145,2.6614,2.1382,1.6639,1.2329,0.9528,0.7634,0.6188,0.354,-0.0389,-0.4819,-1.0545,-1.6044,-2.1205,-2.6462,-2.9676,-3.1813,-3.3935,-3.4588,-3.5059,-3.7596,-3.9022,-4.0139,-4.281,-4.3615,-4.3615,-4.3615,-4.3615,-4.3898,-4.549,-4.6308,-4.7273,-4.9581,-4.9557,-4.9557,-5.188,-5.1073,-5.0713,-5.3643,-5.5764,-5.7617,-5.8962,-6.0729,-6.1718,-6.1142,-6.196,-6.2002,-6.0141,-6.0467,-6.067,-6.0247,-6.1447,-6.2605,-6.3435,-6.3583,-6.3846,-6.4334,-6.428,-6.4251,-6.4287,-6.4568,-6.4706,-6.4706,-6.4706,-6.4706,-6.4706,-6.4706,-6.4706,-6.4706,-6.4706,-6.5303,6.1793,6.2998,6.3927,6.453,6.4931,6.4518,6.2293,6.1899,6.126,5.8151,0.0,5.4745,5.3778,5.3953,5.4255,5.4477,0.0,5.6215,5.6795,5.5937,5.4743,5.3539,5.3556,5.336,5.2314,5.21,5.259,5.396,5.3896,5.3886,5.4527,5.5299,5.4825,5.2582,5.2127,4.9913,4.5498,4.2835,4.0831,3.9512,3.5374,3.063,2.5331,2.0312,1.5481,1.142,0.7884,0.6241,0.522,-0.0787,-0.4669,-0.7529,-1.5341,-2.0166,-2.349,-2.8419,-3.0927,-3.2128,-3.5042,-3.6155,-3.6637,-3.8231,-3.9826,-4.1424,-4.3136,-4.3615,-4.3615,-4.3615,-4.3746,-4.418,-4.5788,-4.7389,-4.8984,-5.0576,-5.0717,-5.1022,-5.2629,-5.2169,-5.2537,-5.5339,-5.7565,-5.9123,-5.947,-6.0836,-6.1552,-6.0741,-6.1306,-6.152,-6.0709,-6.0922,-6.1218,-6.1218,-6.2152,-6.3051,-6.3801,-6.3807,-6.3738,-6.3738,-6.4034,-6.418,-6.418,-6.4533,-6.4706,-6.4706,-6.4706,-6.4706,-6.4706,-6.4706,-6.4706,-6.4706,-6.4706,-6.5478,6.3073,6.3852,6.458,6.5584,6.4868,6.3464,6.0916,5.9374,0.0,0.0,5.1584,5.1615,5.0101,5.1815,5.3496,5.3987,5.4401,5.516,5.6809,5.5769,5.4933,0.0,5.4813,5.4655,5.4439,5.3576,5.3415,5.4647,5.459,5.4984,5.5395,5.5686,5.3941,5.0151,4.8156,4.5692,4.3048,4.1934,4.0004,3.6888,3.1436,2.6176,2.1027,1.5806,1.133,0.7553,0.6878,0.4412,0.0796,-0.352,-0.7539,-1.1678,-1.8958,-2.3742,-2.691,-3.0326,-3.2267,-3.3476,-3.5366,-3.6957,-3.8371,-4.0139,-4.0783,-4.1424,-4.3136,-4.3615,-4.3615,-4.3615,-4.4482,-4.5937,-4.7535,-4.8984,-5.0576,-5.2189,-5.1583,-5.1022,-5.2629,-5.4236,-5.5899,-5.7299,-5.8851,-6.0276,-6.1577,-6.2268,-6.2453,-6.207,-6.2363,-6.2599,-6.2414,-6.254,-6.2709,-6.2709,-6.4267,-6.531,-6.5497,-6.4876,-6.4496,-6.4496,-6.4312,-6.418,-6.418,-6.4533,-6.4706,-6.4706,-6.4706,-6.4706,-6.4706,-6.4706,-6.4706,-6.4706,-6.4706,-6.5198,6.4479,6.4899,6.5193,6.6585,6.5075,6.2299,5.9379,0.0,0.0,0.0,4.8456,4.8799,4.8896,5.0482,0.0,5.2576,5.3061,5.3874,5.5204,5.4529,5.4344,5.5224,5.5375,5.5313,5.4882,5.4431,5.4431,5.5294,5.5294,5.551,5.5725,5.3724,5.1067,4.771,4.5272,4.3474,4.2392,4.1088,3.9201,3.6617,2.9999,2.4542,2.0149,1.3794,0.9239,0.6488,0.4016,0.12,-0.1995,-0.7006,-1.2117,-1.7041,-2.2141,-2.6656,-3.0107,-3.1388,-3.26,-3.3804,-3.6477,-3.7896,-3.8864,-4.1559,-4.235,-4.2524,-4.331,-4.3615,-4.3615,-4.3615,-4.4762,-4.6211,-4.7827,-4.9415,-5.0998,-5.2491,-5.2854,-5.3037,-5.3947,-5.5823,-5.7711,-5.8278,-5.9662,-6.0882,-6.168,-6.2267,-6.2556,-6.2383,-6.249,-6.2811,-6.3282,-6.3842,-6.4108,-6.3852,-6.5073,-6.5876,-6.5876,-6.5531,-6.54,-6.5441,-6.5044,-6.4844,-6.4915,-6.4813,-6.4706,-6.4706,-6.4706,-6.4706,-6.4706,-6.4706,-6.4706,-6.4741,-6.5127,-6.5724,6.5528,6.5849,6.6044,6.7265,6.4895,6.1201,5.7583,5.4025,0.0,0.0,4.5856,4.6266,4.749,0.0,4.9866,0.0,5.0983,5.182,5.2971,5.3093,5.3691,0.0,5.5417,0.0,5.5313,5.5098,5.5098,5.5939,5.549,5.5041,5.5041,5.1032,4.7949,4.5948,4.3716,4.2392,4.2392,4.0162,3.7901,3.565,2.854,2.3117,1.9107,1.1807,0.7563,0.5637,0.1196,-0.1987,-0.4964,-1.1205,-1.6611,-2.1496,-2.5577,-2.9326,-3.2408,-3.2342,-3.3021,-3.4425,-3.7436,-3.8706,-3.9494,-4.2657,-4.3615,-4.3615,-4.3615,-4.3898,-4.405,-4.405,-4.549,-4.7243,-4.8407,-4.9985,-5.1443,-5.2629,-5.3868,-5.4892,-5.5311,-5.7013,-5.8691,-5.9168,-6.0465,-6.1527,-6.1621,-6.2067,-6.2446,-6.2446,-6.2446,-6.2808,-6.38,-6.4695,-6.5213,-6.5005,-6.5823,-6.629,-6.6152,-6.6194,-6.6201,-6.6179,-6.5847,-6.5613,-6.5617,-6.5163,-6.4882,-6.4706,-6.4706,-6.4706,-6.4706,-6.4706,-6.4706,-6.4741,-6.5338,-6.6145,6.5361,6.6233,6.6941,6.7141,6.3948,5.9547,5.5723,0.0,4.6907,4.2644,4.2833,4.3833,4.3999,0.0,0.0,0.0,0.0,4.8153,5.0309,5.1502,5.2969,5.5117,0.0,0.0,5.6368,5.5529,5.5313,5.6368,5.4571,5.3235,5.3235,4.8823,4.6173,4.5948,4.3716,4.2392,4.2392,4.0165,3.6181,3.0598,2.5506,1.982,1.403,0.9064,0.5695,0.3221,-0.0995,-0.4902,-0.8856,-1.6379,-2.0658,-2.3221,-2.9406,-3.1969,-3.2564,-3.3099,-3.4458,-3.5994,-3.7896,-3.9494,-4.1094,-4.2984,-4.3615,-4.3615,-4.3615,-4.4633,-4.5639,-4.5639,-4.7804,-5.0127,-5.041,-5.1607,-5.2767,-5.2929,-5.3561,-5.4496,-5.6019,-5.7537,-5.9228,-6.0659,-6.1652,-6.2315,-6.2351,-6.2383,-6.2446,-6.2446,-6.2446,-6.2808,-6.38,-6.4695,-6.5613,-6.6424,-6.7364,-6.7635,-6.6945,-6.7031,-6.6907,-6.6214,-6.6481,-6.6351,-6.5617,-6.5724,-6.5443,-6.4741,-6.4706,-6.4706,-6.4706,-6.4706,-6.4706,-6.4706,-6.4776,-6.5619,6.5539,6.5634,6.4918,6.6035,6.1498,5.6334,5.3625,0.0,4.5283,4.2581,4.2206,4.2797,4.3994,4.4308,0.0,0.0,0.0,0.0,4.6542,4.7982,5.0078,5.3008,5.3916,0.0,0.0,5.6154,5.549,5.4571,5.2127,5.0284,4.8502,4.6925,4.5272,4.3944,4.2642,4.1528,4.0193,3.6406,3.2404,2.8425,2.0444,1.506,1.2129,0.5728,0.1417,-0.0797,-0.4698,-0.9293,-1.4412,-1.9718,-2.403,-2.7925,-3.1307,-3.3148,-3.3599,-3.3802,-3.4768,-3.6316,-3.7896,-3.9669,-4.1424,-4.2984,-4.3615,-4.3615,-4.3615,-4.4612,-4.5915,-4.5915,-4.8095,-5.0576,-5.0576,-5.1747,-5.2929,-5.2929,-5.4152,-5.5445,-5.6237,-5.8349,-6.0271,-6.1062,-6.1815,-6.2446,-6.2446,-6.2446,-6.2446,-6.2446,-6.2446,-6.2808,-6.38,-6.4695,-6.5646,-6.6593,-6.7569,-6.798,-6.7669,-6.8319,-6.8405,-6.7794,-6.7985,-6.7893,-6.716,-6.6391,-6.5724,-6.5408,-6.4952,-6.4706,-6.4706,-6.5198,-6.5408,-6.5443,-6.6391,-6.7164,6.3105,6.3578,6.3288,6.3664,5.9072,5.3772,0.0,0.0,4.4494,4.2764,4.2131,4.2368,4.3738,4.3416,4.3069,4.3289,4.371,4.396,4.4349,4.5803,4.7832,0.0,0.0,5.3398,5.543,5.6211,5.5648,5.3087,5.0671,4.8077,4.5503,4.4834,4.3881,4.2114,4.1413,4.018,3.8651,3.3321,2.9142,2.6276,1.6882,1.172,1.0168,0.2634,-0.1608,-0.3363,-0.8299,-1.3352,-1.8445,-2.2625,-2.7115,-3.1394,-3.2862,-3.394,-3.4461,-3.4612,-3.5539,-3.6957,-3.8706,-4.0452,-4.2042,-4.3289,-4.3615,-4.3767,-4.4201,-4.5341,-4.6655,-4.722,-4.9271,-5.1303,-5.1303,-5.205,-5.3067,-5.3452,-5.4918,-5.6459,-5.7154,-5.9404,-6.1322,-6.1503,-6.2173,-6.2667,-6.2477,-6.2446,-6.2446,-6.2446,-6.2612,-6.3068,-6.38,-6.4934,-6.5995,-6.6627,-6.7775,-6.8438,-6.8197,-6.8995,-6.9254,-6.8851,-6.9043,-6.8877,-6.8252,-6.7164,-6.6356,-6.59,-6.5338,-6.4952,-6.4706,-6.5514,-6.59,-6.59,-6.7234,-6.7971,5.7464,6.0061,6.2847,6.0251,5.6456,5.2894,0.0,0.0,4.4548,4.2798,4.2373,4.2298,4.1896,4.1837,4.1639,4.125,4.1523,4.2422,4.416,4.5508,0.0,0.0,0.0,5.1504,5.3223,5.5332,5.5532,5.2719,5.0267,4.7911,4.5152,4.2765,4.1455,4.1441,3.963,3.8651,3.8032,3.1647,2.6711,2.3253,1.5591,1.0561,0.714,0.02,-0.2973,-0.3362,-1.1297,-1.6472,-1.9726,-2.5523,-2.9689,-3.2654,-3.4377,-3.4811,-3.463,-3.6055,-3.7291,-3.8706,-4.0471,-4.2196,-4.3615,-4.3615,-4.3615,-4.3898,-4.5341,-4.6949,-4.8552,-5.0127,-5.1607,-5.2929,-5.2929,-5.2929,-5.3179,-5.4619,-5.568,-5.6949,-5.916,-6.1014,-6.2188,-6.2373,-6.2983,-6.3268,-6.2541,-6.2446,-6.2446,-6.2446,-6.326,-6.3894,-6.3894,-6.5559,-6.6711,-6.6711,-6.8417,-6.9263,-6.8466,-6.8816,-6.9078,-6.9078,-6.9302,-6.9024,-6.8252,-6.8182,-6.748,-6.59,-6.5865,-6.5478,-6.4706,-6.5514,-6.59,-6.59,-6.6672,-6.7445,5.5101,5.5555,5.5507,5.5099,5.1734,4.8413,4.7899,4.6086,4.4363,4.3487,4.306,4.2886,4.3027,4.2545,4.2407,4.2823,4.2447,4.2427,0.0,0.0,0.0,4.8613,5.2363,5.4961,5.5508,5.4607,5.2811,5.0267,4.7827,4.5136,4.2432,4.1563,4.1207,4.1441,3.9208,3.644,3.3383,2.7918,2.2248,1.6002,1.0203,0.5132,0.0605,-0.3389,-0.7469,-1.1402,-1.627,-2.0762,-2.5102,-2.9596,-3.2496,-3.4158,-3.4545,-3.5265,-3.6242,-3.6259,-3.7863,-4.0296,-4.0938,-4.2196,-4.3615,-4.3615,-4.3615,-4.405,-4.6802,-4.7972,-4.884,-5.1467,-5.2491,-5.2929,-5.2929,-5.3563,-5.4381,-5.4365,-5.6139,-5.8055,-5.8863,-6.0711,-6.2188,-6.2342,-6.3015,-6.3426,-6.3173,-6.273,-6.2604,-6.3078,-6.3581,-6.3894,-6.3894,-6.5559,-6.6761,-6.6928,-6.8176,-6.8829,-6.8431,-6.9791,-7.0196,-6.9148,-6.9793,-6.9797,-6.906,-6.8498,-6.7725,-6.6672,-6.6145,-6.5759,-6.5514,-6.5759,-6.6426,-6.748,-6.8287,-6.8779,0.0,5.1914,5.1657,5.131,4.8777,0.0,0.0,0.0,4.4344,4.373,4.3487,4.3283,4.3487,4.2817,0.0,0.0,0.0,0.0,0.0,0.0,0.0,4.8789,0.0,5.5254,5.5586,5.3855,5.1514,4.8952,4.6435,4.3644,4.0841,3.9934,3.9699,3.9628,3.7401,3.4223,2.9709,2.5659,1.9741,1.2385,0.5738,0.0405,-0.3984,-0.7875,-1.2036,-1.6445,-2.0437,-2.4107,0.0,-3.1238,-3.3551,-3.4636,-3.4541,-3.5406,-3.6868,-3.7038,-3.8853,-4.1268,-4.1888,-4.2677,-4.3615,-4.3615,-4.4331,-4.5639,-4.6949,-4.8696,-5.0458,-5.2352,-5.2929,-5.2929,-5.2929,-5.3817,-5.4682,-5.5172,-5.7015,-5.8954,-6.0156,-6.166,-6.2723,-6.282,-6.3173,-6.3394,-6.3141,-6.273,-6.2671,-6.3478,-6.4091,-6.4604,-6.4934,-6.6253,-6.7291,-6.7535,-6.8448,-6.9018,-6.8663,-6.9875,-7.0278,-6.9297,-6.9757,-6.9867,-6.9411,-6.8919,-6.8147,-6.7023,-6.6532,-6.604,-6.5443,-6.604,-6.7129,-6.8673,-6.9165,-6.9376,0.0,0.0,0.0,0.0,0.0,0.0,0.0,0.0,0.0,0.0,0.0,0.0,0.0,0.0,0.0,0.0,0.0,0.0,0.0,4.457,0.0,0.0,5.1601,5.3183,5.3741,5.2773,5.1118,4.8358,4.5807,4.296,4.0021,3.8216,3.7045,3.6217,3.4691,3.1689,2.6902,2.4289,1.896,1.0757,0.2212,-0.3587,-0.6883,-1.2746,-1.6641,-1.8852,-2.3817,-2.654,-2.7843,-3.1195,-3.3122,-3.408,-3.435,-3.5409,-3.6886,-3.8491,-4.0009,-4.1578,-4.2984,-4.3615,-4.3615,-4.3615,-4.5788,-4.7972,-4.6359,-4.9128,-5.2767,-5.2767,-5.2767,-5.2767,-5.3042,-5.367,-5.4705,-5.6955,-5.8229,-5.9725,-6.2487,-6.3286,-6.352,-6.3426,-6.3457,-6.3268,-6.2604,-6.2446,-6.2808,-6.377,-6.4819,-6.5734,-6.6593,-6.7488,-6.8162,-6.8397,-6.9289,-6.9617,-6.9148,-6.9337,-6.9446,-6.9376,-6.9376,-6.934,-6.9305,-6.9305,-6.8568,-6.6953,-6.6988,-6.6286,-6.4811,-6.6391,-6.7901,-6.9305,-6.934,-6.9376,4.5793,0.0,4.5861,4.5183,4.4363,4.3915,0.0,0.0,0.0,0.0,0.0,0.0,0.0,0.0,0.0,0.0,0.0,4.2565,4.3751,0.0,0.0,5.123,5.3379,5.3873,5.1518,4.9883,4.8032,4.5574,4.2666,4.0124,3.8027,3.7358,3.5657,3.2509,3.0199,2.7471,2.4346,2.097,1.414,0.4059,-0.1805,-0.7745,-1.3389,-1.6202,-1.9931,-2.4215,-2.645,-2.8828,-3.1367,-3.3291,-3.4123,-3.4366,-3.4191,-3.5857,-3.8473,-3.8645,-4.0529,-4.3136,-4.3462,-4.3615,-4.3615,-4.3615,-4.5788,-4.7972,-4.6359,-4.8384,-5.1163,-5.1163,-5.1163,-5.1722,-5.392,-5.5076,-5.6007,-5.7825,-5.9736,-6.1274,-6.1618,-6.3005,-6.3963,-6.2888,-6.311,-6.3426,-6.3268,-6.3451,-6.3804,-6.4606,-6.5624,-6.6424,-6.6711,-6.7488,-6.8162,-6.8397,-6.8725,-6.899,-6.9078,-6.9828,-7.0007,-6.9411,-6.9376,-6.9095,-6.8533,-6.8498,-6.776,-6.6181,-6.6707,-6.6532,-6.5619,-6.776,-6.8708,-6.8498,-6.9095,-6.9376,4.4984,4.4702,4.439,4.4324,4.3896,4.3468,0.0,0.0,0.0,0.0,0.0,0.0,0.0,0.0,0.0,0.0,4.2803,0.0,0.0,0.0,4.9941,5.1855,5.3457,5.3532,5.1099,4.9019,4.6633,4.4329,4.1299,3.9055,3.7165,3.6006,3.3425,2.927,2.5801,2.3824,2.305,1.7044,0.9389,0.0602,-0.753,-1.3721,-1.7818,-2.0572,-2.4204,-2.836,-2.9757,-3.109,-3.2624,-3.3985,-3.4414,-3.4239,-3.3905,-3.5848,-3.886,-3.8621,-4.0588,-4.3615,-4.3615,-4.3615,-4.3767,-4.4482,-4.6381,-4.7972,-4.6359,-4.8095,-5.0576,-5.0576,-5.1163,-5.2139,-5.4459,-5.5617,-5.6775,-5.8982,-6.0783,-6.2271,-6.3048,-6.3877,-6.4374,-6.3963,-6.3931,-6.3868,-6.352,-6.3998,-6.4569,-6.5068,-6.5968,-6.6878,-6.7325,-6.7765,-6.8162,-6.8397,-6.8474,-6.8628,-6.8892,-6.9503,-6.9683,-6.9262,-6.9376,-6.92,-6.8597,-6.832,-6.7655,-6.6426,-6.6461,-6.6637,-6.6953,-6.8217,-6.8814,-6.8744,-6.92,-6.9376,4.4602,4.4578,4.4588,4.4608,4.4159,4.3691,4.3487,0.0,0.0,0.0,0.0,0.0,0.0,4.1447,0.0,0.0,0.0,0.0,4.6289,4.7885,4.9466,5.1347,5.1916,5.1629,5.0136,4.8071,4.5461,4.2611,4.0376,3.7943,3.5764,3.3935,3.0939,2.663,2.2699,2.0778,2.0594,1.2024,0.461,-0.1977,-1.3649,-1.9854,-2.102,-2.5071,-2.8309,-3.1147,-3.2572,-3.2917,-3.2795,-3.3891,-3.4207,-3.3985,-3.3619,-3.5544,-3.853,-3.8548,-4.0588,-4.3615,-4.3615,-4.3615,-4.3898,-4.5341,-4.6949,-4.8118,-4.6655,-4.8407,-5.0857,-5.0717,-5.1722,-5.3291,-5.4861,-5.6015,-5.7591,-6.0384,-6.1819,-6.2996,-6.4956,-6.5037,-6.4816,-6.5322,-6.4942,-6.431,-6.3911,-6.4545,-6.5237,-6.5647,-6.6406,-6.7209,-6.8004,-6.8083,-6.8162,-6.8319,-6.8397,-6.8474,-6.8705,-6.8892,-6.9078,-6.9078,-6.9302,-6.9196,-6.8803,-6.832,-6.7655,-6.6848,-6.6426,-6.6883,-6.8217,-6.8322,-6.8744,-6.9376,-6.9376,-6.9376,4.4765,4.5229,4.5058,4.3711,4.3507,4.3487,4.2818,0.0,0.0,0.0,0.0,0.0,0.0,4.1599,4.2508,0.0,0.0,4.5898,0.0,0.0,4.7997,4.8663,4.8011,4.6338,4.3861,4.3656,4.2102,3.8254,3.7081,3.5257,3.2033,3.115,2.8752,2.4322,2.2931,1.8822,1.1259,0.5017,-0.0798,-0.6303,-1.7828,-2.3467,-2.3828,-2.7902,-3.0662,-3.2185,-3.2119,-3.2968,-3.4123,-3.3873,-3.3794,-3.3985,-3.3619,-3.5544,-3.8548,-3.8548,-4.0763,-4.3615,-4.3615,-4.3615,-4.3898,-4.5341,-4.6949,-4.8263,-4.7972,-5.0151,-5.2327,-5.0998,-5.1624,-5.336,-5.5972,-5.7827,-5.9593,-6.1995,-6.3268,-6.4128,-6.4547,-6.5069,-6.5258,-6.4784,-6.4595,-6.4742,-6.5447,-6.5825,-6.6377,-6.7281,-6.7701,-6.7925,-6.8083,-6.8083,-6.8083,-6.8162,-6.8319,-6.8474,-6.8705,-6.8705,-6.8892,-6.9078,-6.9302,-6.8779,-6.7338,-6.7269,-6.6848,-6.6075,-6.7234,-6.7971,-6.8217,-6.8884,-6.927,-6.9376,-6.9376,-6.9376,4.4509,4.4543,4.4386,4.3702,4.4149,4.4523,4.3293,4.3268,0.0,0.0,0.0,0.0,0.0,0.0,4.2716,4.4538,0.0,4.4717,4.6309,4.5463,4.5187,4.5999,4.5795,4.4716,4.2485,4.1573,3.9838,3.6395,3.5057,3.3364,3.0716,2.8938,2.673,2.3493,1.8579,1.1497,0.2577,-0.1757,-0.7346,-1.3865,-2.0529,-2.4868,-2.6802,-2.9955,-3.2022,-3.3229,-3.3245,-3.3582,-3.4207,-3.3905,-3.3873,-3.4135,-3.4572,-3.6333,-3.8706,-4.0608,-4.235,-4.3615,-4.3615,-4.4201,-4.5063,-4.6655,-4.7681,-4.8407,-4.9271,-5.0576,-5.1534,-5.128,-5.2477,-5.4489,-5.7058,-5.8965,-6.088,-6.3518,-6.4599,-6.5125,-6.5533,-6.5606,-6.5574,-6.5638,-6.5353,-6.525,-6.5836,-6.6438,-6.6956,-6.715,-6.7694,-6.8083,-6.8083,-6.8083,-6.8083,-6.8083,-6.8162,-6.8319,-6.8551,-6.8551,-6.8531,-6.8483,-6.8943,-6.8425,-6.6461,-6.7199,-6.7304,-6.6497,-6.762,-6.8428,-6.8849,-6.92,-6.9376,-6.9376,-6.9376,-6.9376,4.4224,4.4106,4.3797,4.3597,4.4188,4.478,4.3945,4.3719,4.3475,0.0,0.0,0.0,0.0,4.2207,0.0,4.6289,4.5017,4.4161,4.5275,4.3557,4.2636,4.3774,4.3673,4.2921,4.164,4.0106,3.7933,3.5152,3.3381,3.1352,2.8808,2.6841,2.4353,2.1959,1.3385,0.4741,-0.3922,-0.8554,-1.4069,-2.0575,-2.2563,-2.5478,-2.9149,-3.1549,-3.3121,-3.3905,-3.4159,-3.4128,-3.3889,-3.3889,-3.3889,-3.4023,-3.5483,-3.7259,-3.9494,-4.2503,-4.3615,-4.3615,-4.405,-4.4913,-4.6211,-4.7827,-4.8263,-4.8552,-5.0127,-5.0576,-5.0853,-5.1915,-5.3915,-5.618,-5.8133,-6.0023,-6.2211,-6.4611,-6.5509,-6.5954,-6.6491,-6.6207,-6.5922,-6.6301,-6.608,-6.5821,-6.5933,-6.6733,-6.7321,-6.6981,-6.7762,-6.8359,-6.8359,-6.8359,-6.8359,-6.8359,-6.8359,-6.8438,-6.8596,-6.8578,-6.8392,-6.7885,-6.8483,-6.7998,-6.6216,-6.748,-6.7936,-6.7304,-6.8076,-6.8779,-6.9376,-6.9376,-6.9376,-6.9376,-6.9376,-6.9376,4.4106,4.4363,4.4091,4.3392,4.2856,4.2882,4.4109,4.3933,0.0,4.2576,0.0,0.0,0.0,4.277,4.4616,4.6133,4.5788,4.5713,4.6553,4.3971,4.1974,4.2374,4.0325,3.9078,3.9193,3.7461,3.5463,3.3471,3.1549,2.8577,2.4575,2.3952,2.2034,1.8261,1.0006,0.1754,-0.6147,-1.5285,-2.1096,-2.3742,-2.4305,-2.6413,-2.9731,-3.2342,-3.3375,-3.3524,-3.354,-3.354,-3.3524,-3.3524,-3.3524,-3.3672,-3.5383,-3.8073,-4.1094,-4.2984,-4.3615,-4.3746,-4.5191,-4.5788,-4.6211,-4.7827,-4.8263,-4.8552,-5.0127,-5.0576,-5.1017,-5.3177,-5.5982,-5.8411,-5.9194,-6.1554,-6.3923,-6.4985,-6.5884,-6.6554,-6.6586,-6.6554,-6.6365,-6.5764,-6.6143,-6.6361,-6.5998,-6.6828,-6.7488,-6.7656,-6.8549,-6.9187,-6.9187,-6.9187,-6.9187,-6.9187,-6.9187,-6.9187,-6.9187,-6.931,-6.8803,-6.7661,-6.781,-6.7683,-6.6953,-6.776,-6.8182,-6.8112,-6.8884,-6.934,-6.9376,-6.9376,-6.9376,-6.9376,-6.9376,-6.9376,4.3442,4.338,4.3136,4.3103,4.2309,0.0,0.0,4.464,4.475,4.4167,4.4434,0.0,0.0,0.0,4.6074,4.5008,4.4353,4.3765,4.2893,4.0806,3.9411,3.9336,3.8767,3.8011,3.6674,3.5247,3.342,3.1304,2.9193,2.6948,2.3937,2.2859,1.9306,1.2554,0.4737,-0.4031,-1.3335,-1.825,-2.208,-2.487,-2.6803,-2.8878,-3.1327,-3.2866,-3.3492,-3.3492,-3.3492,-3.3492,-3.3492,-3.3492,-3.3492,-3.3804,-3.6477,-3.9651,-4.2677,-4.331,-4.418,-4.5063,-4.5639,-4.6507,-4.7535,-4.8118,-4.8263,-4.8552,-5.0127,-5.0847,-5.1804,-5.405,-5.6803,-5.928,-6.0121,-6.2588,-6.4906,-6.5808,-6.6374,-6.6617,-6.6617,-6.627,-6.6017,-6.6175,-6.608,-6.6075,-6.6547,-6.7388,-6.8186,-6.8432,-6.9336,-6.998,-6.998,-6.998,-6.998,-6.998,-6.9772,-6.9575,-6.953,-6.9421,-6.8912,-6.7661,-6.8378,-6.8284,-6.7058,-6.8252,-6.8708,-6.8217,-6.8989,-6.9376,-6.9376,-6.9376,-6.9376,-6.9376,-6.9376,-6.9621,4.3014,4.2515,4.2309,4.2752,0.0,0.0,4.4111,4.5156,4.5796,4.6352,4.6346,4.568,4.4043,0.0,0.0,0.0,4.3068,4.2513,4.0394,3.8948,3.7622,3.6982,3.7122,3.6589,3.4514,3.2993,3.1463,2.9983,2.7535,2.4903,2.2688,2.1299,1.6112,0.6693,-0.0195,-0.8149,-1.7336,-2.0187,-2.2935,-2.5714,-2.8755,-3.0969,-3.2174,-3.3164,-3.3492,-3.3492,-3.3492,-3.3492,-3.3492,-3.3492,-3.4115,-3.5383,-3.8231,-4.1074,-4.3615,-4.3615,-4.4331,-4.5341,-4.6359,-4.7096,-4.7681,-4.8696,-4.8696,-4.865,-5.0451,-5.1358,-5.2368,-5.5301,-5.803,-6.0297,-6.1595,-6.3518,-6.5452,-6.6374,-6.6617,-6.6617,-6.6617,-6.6238,-6.5922,-6.5954,-6.5922,-6.5877,-6.5956,-6.7295,-6.8493,-6.8428,-6.9782,-7.0739,-7.0739,-7.0739,-7.0636,-7.0394,-7.0105,-6.981,-6.9575,-6.9532,-6.9017,-6.8084,-6.8947,-6.8779,-6.7373,-6.8428,-6.8884,-6.8568,-6.9095,-6.9376,-6.9376,-6.9376,-6.9376,-6.9376,-6.9376,-6.9797,4.2993,4.237,0.0,0.0,0.0,0.0,4.4567,4.5385,4.6411,4.903,4.7548,4.4798,4.1522,4.3102,0.0,4.1422,4.2124,4.2513,4.0394,3.8735,3.6954,3.528,3.5089,3.4461,3.2814,3.117,3.0024,2.9753,2.6192,2.2889,2.0225,1.8671,1.2424,0.099,-0.4029,-1.0115,-1.6993,-2.1289,-2.4291,-2.6029,-3.0289,-3.2174,-3.2174,-3.3164,-3.3492,-3.3492,-3.3492,-3.3492,-3.3492,-3.3476,-3.5544,-3.8688,-4.0471,-4.2042,-4.3615,-4.3615,-4.3615,-4.405,-4.7243,-4.7243,-4.6507,-4.9557,-4.9557,-4.8724,-5.1048,-5.1715,-5.2741,-5.721,-5.9684,-6.1451,-6.3718,-6.4708,-6.5452,-6.6374,-6.6617,-6.6617,-6.6617,-6.6617,-6.6207,-6.4816,-6.5669,-6.5954,-6.3868,-6.6323,-6.8341,-6.7645,-6.9761,-7.1498,-7.1498,-7.1498,-7.1222,-7.0463,-7.0105,-6.981,-6.9575,-6.9497,-6.9302,-6.9078,-6.9302,-6.8951,-6.7959,-6.8071,-6.8603,-6.9376,-6.9376,-6.9376,-6.9376,-6.9376,-6.9376,-6.9376,-6.9376,-6.9797,4.2645,4.2088,0.0,0.0,0.0,0.0,0.0,4.5737,0.0,0.0,4.5914,4.4104,4.1669,4.2185,0.0,3.9266,3.9833,4.0027,3.7901,3.6407,3.5327,3.4501,3.3811,3.2584,3.038,2.9891,2.9005,2.737,2.4739,2.2673,2.1555,1.5286,0.7698,-0.0986,-0.9471,-1.5174,-1.7837,-2.251,-2.5179,-2.6029,-3.0289,-3.2339,-3.267,-3.3164,-3.3492,-3.3492,-3.3492,-3.3492,-3.364,-3.4734,-3.6477,-3.8688,-4.0471,-4.2042,-4.3615,-4.3615,-4.4331,-4.5341,-4.6211,-4.7096,-4.7681,-4.8696,-4.9179,-4.9695,-5.1222,-5.2902,-5.4673,-5.7095,-5.9644,-6.1891,-6.3148,-6.4558,-6.567,-6.6385,-6.6617,-6.6617,-6.6617,-6.6617,-6.6491,-6.608,-6.6333,-6.6396,-6.5796,-6.7687,-6.9235,-6.9003,-7.088,-7.2326,-7.2326,-7.1843,-7.1394,-7.1187,-7.0257,-6.9654,-6.9575,-6.9157,-6.8857,-6.8781,-6.9043,-6.9122,-6.8951,-6.9024,-6.9165,-6.9376,-6.9376,-6.9376,-6.9376,-6.9376,-6.9376,-6.9376,-6.9937,-7.0604,4.2437,0.0,0.0,0.0,4.3176,4.3934,4.6036,0.0,0.0,0.0,4.5399,4.3649,4.1018,4.1103,4.0507,3.7443,3.84,3.8707,3.6603,3.5182,3.4068,3.34,3.1984,3.0298,2.8221,2.8141,2.7225,2.5029,2.2718,2.1019,2.035,1.0895,0.2722,-0.3658,-1.2579,-1.7539,-1.8237,-2.2978,-2.5701,-2.6355,-3.0289,-3.2505,-3.3148,-3.3328,-3.3492,-3.3492,-3.3492,-3.3492,-3.364,-3.6011,-3.7578,-3.8706,-4.1094,-4.2677,-4.3615,-4.3615,-4.4201,-4.5063,-4.5639,-4.6374,-4.7241,-4.8538,-4.9459,-5.0654,-5.2587,-5.4807,-5.7005,-5.9102,-6.1237,-6.3117,-6.4253,-6.5104,-6.5764,-6.6428,-6.6617,-6.6617,-6.6617,-6.6617,-6.6523,-6.6238,-6.6428,-6.6523,-6.6238,-6.7709,-6.9121,-6.9504,-7.1321,-7.2671,-7.2671,-7.2257,-7.1739,-7.1118,-7.0419,-6.9783,-6.9159,-6.8906,-6.8705,-6.8705,-6.8967,-6.9153,-6.9302,-6.9376,-6.9376,-6.9376,-6.9376,-6.9376,-6.9376,-6.9376,-6.9516,-6.9832,-7.0288,-7.1096,0.0,0.0,0.0,0.0,0.0,0.0,4.7165,4.8613,4.8868,4.6587,0.0,4.3133,3.9641,3.9833,3.9429,3.6193,3.7586,3.8348,3.6295,3.4535,3.3053,3.1918,2.9924,2.8164,2.6721,2.5901,2.4908,2.3069,2.0544,1.8325,1.681,0.6494,-0.1935,-0.7442,-1.3782,-1.7547,-1.8228,-2.3075,-2.5871,-2.6694,-3.0455,-3.267,-3.3492,-3.3492,-3.3492,-3.3492,-3.3492,-3.3492,-3.3804,-3.7117,-3.8511,-3.8808,-4.2116,-4.3553,-4.3553,-4.3553,-4.3573,-4.3746,-4.5341,-4.5609,-4.5777,-4.8944,-5.0444,-5.1631,-5.4692,-5.6912,-5.9132,-6.2122,-6.3609,-6.4582,-6.6122,-6.5985,-6.5638,-6.6333,-6.6459,-6.6428,-6.6491,-6.6523,-6.6333,-6.5764,-6.6175,-6.6396,-6.5764,-6.701,-6.847,-6.9599,-7.1321,-7.2586,-7.2671,-7.2602,-7.205,-7.0636,-7.0591,-7.0094,-6.8639,-6.8656,-6.8698,-6.8705,-6.8892,-6.9078,-6.9153,-6.9302,-6.9376,-6.9376,-6.9376,-6.9376,-6.9376,-6.9446,-6.9832,-7.0499,-7.0639,-7.1447,0.0,0.0,0.0,0.0,0.0,0.0,4.841,4.8816,4.7935,4.4213,4.3311,4.1912,3.828,3.7463,3.7162,3.6133,3.6474,3.6651,3.6056,3.3538,3.1784,3.145,2.8813,2.6835,2.6056,2.436,2.2887,2.2221,1.9262,1.5401,1.0882,0.4007,-0.4342,-1.4604,-1.576,-1.721,-1.9453,-2.3354,-2.5871,-2.6694,-3.0455,-3.267,-3.3492,-3.3492,-3.3492,-3.3492,-3.3492,-3.3492,-3.3804,-3.7117,-3.8346,-3.8383,-4.1655,-4.3077,-4.3077,-4.3077,-4.3304,-4.3746,-4.5341,-4.6322,-4.7316,-5.0376,-5.1646,-5.2844,-5.6596,-5.8226,-5.9306,-6.2317,-6.3671,-6.4488,-6.5523,-6.5258,-6.4911,-6.5638,-6.5353,-6.5132,-6.5669,-6.5796,-6.5922,-6.6301,-6.6491,-6.6554,-6.6396,-6.733,-6.8765,-7.0599,-7.1266,-7.183,-7.2586,-7.2119,-7.1636,-7.1291,-7.0821,-7.0096,-6.9164,-6.9174,-6.9055,-6.874,-6.8781,-6.8967,-6.9302,-6.9376,-6.9376,-6.9376,-6.9376,-6.9376,-6.9376,-6.9972,-7.0359,-7.0534,-7.1728,-7.2465,0.0,0.0,0.0,0.0,0.0,0.0,0.0,4.7646,4.6057,4.2689,4.2358,4.1521,3.7536,3.6597,3.6298,3.5869,3.5734,3.5397,3.4703,3.2465,3.0625,3.0169,2.6882,2.4676,2.4329,2.1948,2.0333,1.968,1.767,1.3069,0.5258,-0.0187,-0.7401,-1.7049,-1.7087,-1.838,-2.1269,-2.4235,-2.6305,-2.7856,-3.0895,-3.2741,-3.3238,-3.3238,-3.3238,-3.3222,-3.3047,-3.2968,-3.3291,-3.6552,-3.7833,-3.7958,-4.1364,-4.2725,-4.2911,-4.2911,-4.3631,-4.4741,-4.5379,-4.7076,-4.9229,-5.0454,-5.2511,-5.4994,-5.7794,-5.9621,-6.1348,-6.3502,-6.4751,-6.549,-6.5944,-6.529,-6.4626,-6.4974,-6.5037,-6.5132,-6.548,-6.5827,-6.6175,-6.6523,-6.6617,-6.6617,-6.6617,-6.7802,-6.925,-7.0289,-7.1266,-7.2124,-7.2671,-7.2326,-7.1912,-7.1532,-7.1153,-7.0683,-7.0038,-6.9623,-6.9402,-6.9296,-6.9025,-6.8967,-6.9227,-6.9376,-6.9376,-6.9376,-6.9376,-6.9551,-6.9937,-7.0323,-7.0885,-7.1622,-7.243,-7.2992,0.0,0.0,0.0,0.0,0.0,0.0,0.0,4.6064,4.4173,4.2064,4.1823,4.0835,3.7207,3.6225,3.586,3.5629,3.5217,3.4274,3.3044,3.1277,2.9566,2.8229,2.4898,2.251,2.1874,1.962,1.7868,1.6855,1.4467,0.9395,0.0556,-0.4967,-1.077,-1.7388,-1.8085,-1.9804,-2.288,-2.5227,-2.7174,-2.8893,-3.1496,-3.2817,-3.2857,-3.2809,-3.2809,-3.2841,-3.2539,-3.257,-3.303,-3.6089,-3.7435,-3.7837,-4.0901,-4.2352,-4.2683,-4.2981,-4.4124,-4.5756,-4.6045,-4.819,-5.0795,-5.1279,-5.3809,-5.7051,-5.9014,-6.1318,-6.3543,-6.5079,-6.6023,-6.6617,-6.6617,-6.5669,-6.469,-6.469,-6.5069,-6.5385,-6.5385,-6.5922,-6.6459,-6.6586,-6.6617,-6.6617,-6.6617,-6.8104,-6.9409,-6.9599,-7.1232,-7.2501,-7.2671,-7.2671,-7.2429,-7.1774,-7.1788,-7.1559,-7.0961,-7.0278,-6.9871,-6.9966,-6.9421,-6.9078,-6.9153,-6.9442,-6.9516,-6.9376,-6.9376,-6.9762,-7.0499,-7.0639,-7.1447,-7.2781,-7.2922,-7.3343,0.0,0.0,0.0,0.0,0.0,0.0,0.0,0.0,4.4088,0.0,4.0421,3.8541,3.6171,3.5851,3.5572,3.5353,3.3973,3.278,3.2626,2.9962,2.743,2.5539,2.3571,2.1652,1.9539,1.7876,1.6651,1.6214,0.7749,0.1095,-0.2146,-0.9291,-1.4798,-1.7689,-1.9387,-2.1044,-2.2225,-2.6042,-2.8043,-2.8571,-3.1228,-3.2523,-3.2475,-3.2189,-3.2221,-3.2475,-3.2428,-3.3188,-3.4586,-3.6569,-3.7877,-3.8941,-4.0898,-4.169,-4.1897,-4.3178,-4.4011,-4.5058,-4.8827,-5.0082,-5.0944,-5.5767,-5.702,-5.759,-6.222,-6.3409,-6.3649,-6.5859,-6.648,-6.6617,-6.6617,-6.6017,-6.5416,-6.5416,-6.5037,-6.4658,-6.4658,-6.5227,-6.589,-6.6491,-6.6617,-6.6617,-6.6617,-6.7529,-6.8568,-6.9504,-7.0599,-7.1742,-7.2586,-7.2671,-7.2636,-7.2533,-7.27,-7.2555,-7.1792,-7.1156,-7.0663,-7.0155,-6.9497,-6.9153,-6.9376,-7.0007,-7.0043,-6.9376,-6.9376,-6.9762,-7.0499,-7.1201,-7.1974,-7.2816,-7.3518,-7.3905,0.0,0.0,0.0,0.0,0.0,0.0,0.0,0.0,4.1261,3.9607,3.7663,3.6133,3.581,3.5602,3.5119,3.3916,3.2766,3.1583,2.9793,2.7251,2.5083,2.3354,2.0472,1.8248,1.7561,1.5272,1.2107,0.7548,0.2915,-0.2528,-0.8986,-1.3305,-1.6792,-1.9004,-2.0515,-2.2616,-2.5256,-2.7388,-2.9129,-3.061,-3.1573,-3.203,-3.184,-3.2593,-3.2553,-3.2126,-3.2822,-3.365,-3.4401,-3.696,-3.8207,-3.8935,-4.0575,-4.206,-4.3306,-4.3621,-4.5749,-4.8653,-4.9949,-5.2126,-5.4676,-5.7188,-5.8796,-6.0331,-6.3364,-6.4452,-6.4842,-6.6196,-6.6617,-6.6617,-6.6617,-6.608,-6.5574,-6.5574,-6.5037,-6.4626,-6.5037,-6.5353,-6.5764,-6.6459,-6.6617,-6.6796,-6.7356,-6.8271,-6.9313,-7.0322,-7.1355,-7.221,-7.2671,-7.2671,-7.2671,-7.2671,-7.2922,-7.2776,-7.2094,-7.1534,-7.0923,-7.0383,-7.0033,-6.9933,-7.0007,-7.078,-7.1026,-7.071,-7.0675,-7.085,-7.1166,-7.1938,-7.2711,-7.3483,-7.3834,-7.401,0.0,0.0,0.0,0.0,0.0,0.0,0.0,0.0,3.8441,0.0,3.5272,3.3828,3.4578,3.4435,3.3787,3.2052,3.1142,2.9736,2.7365,2.4999,2.2783,2.0983,1.7585,1.541,1.5348,1.2409,0.753,0.0732,-0.2343,-0.7156,-1.4434,-1.6156,-1.8035,-2.0478,-2.184,-2.4045,-2.7446,-2.8319,-2.9848,-3.2015,-3.176,-3.1458,-3.1109,-3.2743,-3.2894,-3.2106,-3.3566,-3.4513,-3.4961,-3.7416,-3.8806,-3.9241,-4.0433,-4.2258,-4.4222,-4.4375,-4.7294,-5.1204,-5.1305,-5.4133,-5.7744,-5.8717,-6.0584,-6.2798,-6.4408,-6.525,-6.5701,-6.6396,-6.6617,-6.6617,-6.6617,-6.6207,-6.5827,-6.5827,-6.529,-6.4942,-6.5448,-6.5701,-6.5985,-6.6491,-6.6796,-6.7253,-6.8004,-6.9154,-7.0289,-7.1086,-7.2038,-7.2671,-7.2671,-7.2671,-7.2671,-7.2671,-7.2922,-7.2845,-7.2533,-7.1926,-7.1462,-7.1131,-7.092,-7.0815,-7.0815,-7.1552,-7.1903,-7.1728,-7.2079,-7.2184,-7.1974,-7.2535,-7.3202,-7.401,-7.401,-7.401,0.0,0.0,0.0,0.0,0.0,0.0,0.0,0.0,3.6754,3.6606,3.4064,3.1785,3.1847,3.2101,3.1675,2.9801,2.8137,2.6949,2.6914,2.3904,2.0709,1.8549,1.6471,1.4506,1.2432,0.8612,0.4708,0.0358,-0.9308,-1.5381,-1.6427,-1.7215,-1.8794,-2.1787,-2.3607,-2.5124,-2.68,-2.8904,-3.033,-3.0934,-3.0918,-3.0728,-3.0378,-3.199,-3.2594,-3.2628,-3.4555,-3.6305,-3.7623,-3.8195,-3.9385,-4.0719,-4.0882,-4.1877,-4.3375,-4.5388,-4.7499,-5.0028,-5.4018,-5.6365,-5.8288,-6.1751,-6.299,-6.3587,-6.5796,-6.608,-6.5701,-6.6396,-6.6617,-6.6617,-6.6617,-6.6586,-6.6554,-6.6554,-6.6017,-6.5511,-6.5574,-6.608,-6.6554,-6.6586,-6.7356,-6.8104,-6.8072,-6.9727,-7.112,-7.121,-7.2038,-7.2671,-7.2671,-7.2671,-7.2671,-7.2671,-7.2922,-7.3053,-7.3264,-7.2729,-7.2512,-7.2676,-7.2009,-7.1658,-7.1658,-7.236,-7.2395,-7.1728,-7.3132,-7.3518,-7.2746,-7.2781,-7.3202,-7.401,-7.401,-7.401,0.0,0.0,0.0,0.0,0.0,0.0,0.0,3.5051,3.5335,3.456,3.2656,3.1049,3.0031,3.0175,2.9819,2.8088,2.7181,2.6316,2.5307,2.1685,1.8963,1.8001,1.4984,1.2694,1.1645,0.5951,0.0537,-0.3188,-1.0278,-1.4835,-1.5668,-1.7552,-2.004,-2.2947,-2.4554,-2.6477,-2.8584,-2.9928,-3.0591,-3.0855,-3.0855,-3.0553,-3.0013,-3.2809,-3.3929,-3.3875,-3.7132,-3.8177,-3.791,-3.9815,-4.0699,-4.1046,-4.2295,-4.3675,-4.5256,-4.7423,-5.0028,-5.2961,-5.5958,-5.8161,-6.0226,-6.301,-6.4296,-6.501,-6.6196,-6.6428,-6.627,-6.6523,-6.627,-6.6048,-6.6491,-6.627,-6.5954,-6.5954,-6.608,-6.6112,-6.5669,-6.5764,-6.608,-6.6523,-6.7427,-6.8271,-6.8927,-7.023,-7.1389,-7.2038,-7.2501,-7.2671,-7.2671,-7.2671,-7.2671,-7.2671,-7.3005,-7.3044,-7.2638,-7.2643,-7.2528,-7.2114,-7.229,-7.2395,-7.2395,-7.2676,-7.2922,-7.3167,-7.3202,-7.3097,-7.2781,-7.3308,-7.3729,-7.401,-7.401,-7.401,3.8457,0.0,0.0,0.0,0.0,0.0,3.1806,0.0,3.3472,3.269,3.1137,2.984,2.8757,2.8049,2.7229,2.6121,2.5834,2.5377,2.4182,2.0473,1.7903,1.7723,1.4216,1.1071,0.9701,0.3755,-0.2491,-0.8289,-1.2517,-1.5053,-1.5809,-1.844,-2.133,-2.4306,-2.5856,-2.7634,-2.9641,-3.0068,-3.0264,-3.0521,-3.0521,-3.0203,-2.9808,-3.3124,-3.4568,-3.4648,-3.8507,-3.9616,-3.8806,-4.074,-4.1296,-4.1067,-4.3055,-4.4928,-4.6711,-4.8878,-5.1936,-5.5472,-5.7654,-5.9907,-6.2058,-6.4084,-6.5282,-6.6017,-6.6459,-6.6617,-6.6554,-6.6333,-6.5922,-6.5638,-6.5827,-6.5732,-6.5574,-6.5574,-6.6112,-6.6491,-6.6017,-6.5922,-6.6153,-6.6982,-6.7903,-6.8927,-7.001,-7.0963,-7.2019,-7.2931,-7.305,-7.305,-7.305,-7.305,-7.2946,-7.2705,-7.3005,-7.3148,-7.2986,-7.3028,-7.3019,-7.2851,-7.3062,-7.3202,-7.3202,-7.3202,-7.3448,-7.3975,-7.3483,-7.3202,-7.3202,-7.3729,-7.401,-7.401,-7.401,-7.401,0.0,0.0,0.0,0.0,0.0,0.0,3.0513,0.0,3.1218,3.1315,2.9539,2.8004,2.8017,2.592,2.4107,2.4107,2.3903,2.3741,2.3741,2.025,1.7534,1.7372,1.3977,1.0154,0.5912,0.2144,-0.4267,-1.4345,-1.6056,-1.6714,-1.6968,-1.9548,-2.2544,-2.575,-2.7466,-2.8709,-2.9595,-2.9305,-2.9282,-2.9822,-2.9822,-2.9647,-2.9441,-3.2879,-3.4471,-3.4667,-3.8487,-4.022,-4.0344,-4.1214,-4.1296,-4.1209,-4.3219,-4.5348,-4.753,-4.964,-5.3107,-5.7017,-5.9255,-6.1445,-6.3493,-6.5114,-6.6048,-6.6617,-6.6586,-6.6586,-6.6459,-6.5796,-6.5574,-6.5385,-6.469,-6.5037,-6.5574,-6.5606,-6.6112,-6.6617,-6.6617,-6.6617,-6.6869,-6.7903,-6.896,-6.9949,-7.103,-7.2072,-7.2981,-7.3705,-7.3809,-7.3809,-7.3774,-7.3809,-7.3533,-7.2774,-7.2873,-7.3435,-7.4448,-7.4066,-7.4087,-7.5028,-7.4431,-7.401,-7.401,-7.3975,-7.3975,-7.401,-7.3975,-7.3975,-7.401,-7.401,-7.401,-7.401,-7.401,-7.401,3.7366,0.0,0.0,0.0,0.0,0.0,2.9306,0.0,3.0422,3.0876,2.9063,2.7546,2.7953,2.5768,2.3849,2.3849,2.3795,2.338,2.19,1.923,1.7055,1.6324,1.3381,0.8994,0.2145,-0.1775,-0.6686,-1.3448,-1.4856,-1.5853,-1.6782,-2.0283,-2.3332,-2.5445,-2.7216,-2.8327,-2.8923,-2.9374,-2.9563,-2.9822,-2.9822,-3.0195,-3.096,-3.3303,-3.5182,-3.663,-3.909,-4.0593,-4.1214,-4.1462,-4.2183,-4.3317,-4.5852,-4.758,-4.9289,-5.3407,-5.5651,-5.7245,-6.1034,-6.2743,-6.3493,-6.5114,-6.6048,-6.6523,-6.6017,-6.6207,-6.6554,-6.6365,-6.5574,-6.4753,-6.4563,-6.5037,-6.5701,-6.6207,-6.6459,-6.6617,-6.6617,-6.6617,-6.6691,-6.6974,-6.8926,-7.0523,-7.0842,-7.279,-7.4361,-7.4568,-7.4602,-7.4395,-7.3843,-7.4257,-7.4326,-7.3567,-7.3634,-7.4198,-7.5213,-7.4834,-7.4647,-7.5063,-7.4888,-7.4537,-7.401,-7.3448,-7.3413,-7.3975,-7.3413,-7.3413,-7.401,-7.401,-7.401,-7.401,-7.401,-7.401,3.6509,3.4679,3.2841,3.1284,0.0,0.0,2.862,2.9115,2.9603,3.0115,2.8506,2.698,2.7597,2.5476,2.3601,2.3601,2.2788,2.182,2.0734,1.8653,1.6896,1.5698,1.1688,0.6627,0.0536,-0.5668,-1.0883,-1.4414,-1.5401,-1.6502,-1.8207,-2.1375,-2.3897,-2.5498,-2.733,-2.8253,-2.8565,-2.9056,-2.9198,-2.9309,-3.0162,-3.0893,-3.1666,-3.4128,-3.6099,-3.7387,-3.9292,-4.0737,-4.1669,-4.1846,-4.26,-4.4057,-4.681,-4.8854,-5.071,-5.507,-5.7416,-5.894,-6.2089,-6.3661,-6.4382,-6.566,-6.627,-6.6459,-6.5764,-6.6048,-6.6428,-6.5543,-6.4721,-6.4152,-6.4437,-6.5037,-6.5669,-6.608,-6.6396,-6.6617,-6.6617,-6.6617,-6.6691,-6.7149,-6.8927,-7.0453,-7.0864,-7.2642,-7.4188,-7.4843,-7.4671,-7.4395,-7.4257,-7.4636,-7.4533,-7.3429,-7.4218,-7.4802,-7.5109,-7.5055,-7.4938,-7.5098,-7.4817,-7.4431,-7.401,-7.3553,-7.3518,-7.401,-7.3553,-7.3518,-7.401,-7.401,-7.401,-7.401,-7.401,-7.401,3.6035,3.4406,3.2819,3.0924,2.919,0.0,2.8253,2.862,2.8944,2.9166,2.7743,2.6512,2.6644,2.4649,2.2892,2.2913,2.1156,1.9813,1.9832,1.8075,1.6393,1.5034,0.9117,0.3575,-0.0178,-0.9378,-1.5292,-1.6113,-1.6726,-1.8101,-2.0314,-2.2521,-2.4269,-2.5608,-2.7452,-2.8394,-2.8537,-2.8653,-2.8627,-2.8753,-3.0676,-3.1649,-3.1789,-3.5067,-3.6897,-3.7667,-3.9391,-4.0696,-4.1627,-4.2075,-4.2922,-4.4361,-4.7099,-4.9615,-5.2173,-5.5763,-5.8851,-6.131,-6.2898,-6.4351,-6.5669,-6.6207,-6.6428,-6.6333,-6.5574,-6.589,-6.608,-6.4152,-6.3647,-6.3836,-6.4374,-6.5037,-6.5606,-6.5669,-6.6143,-6.6617,-6.6617,-6.6617,-6.6869,-6.7701,-6.8896,-7.0021,-7.095,-7.2103,-7.3378,-7.474,-7.4361,-7.4119,-7.474,-7.4947,-7.4499,-7.3169,-7.4545,-7.5353,-7.4844,-7.4962,-7.5098,-7.5098,-7.4466,-7.408,-7.401,-7.401,-7.401,-7.401,-7.401,-7.401,-7.401,-7.401,-7.401,-7.401,-7.401,-7.401,3.4839,3.346,3.2109,2.9457,2.8325,0.0,2.8342,2.8458,2.84,2.7964,2.6505,2.5251,2.4745,2.218,2.0065,2.024,1.8802,1.7882,1.7856,1.6518,1.4673,1.2568,0.5722,-0.0356,-0.4064,-1.015,-1.4208,-1.5026,-1.719,-1.8529,-1.9095,-2.1816,-2.3599,-2.3864,-2.6906,-2.8446,-2.8537,-2.8949,-2.9043,-2.9112,-3.0667,-3.2053,-3.3291,-3.5196,-3.7191,-3.9101,-3.9481,-4.0386,-4.1627,-4.2075,-4.3476,-4.576,-4.8882,-5.1705,-5.454,-5.8608,-6.0852,-6.2248,-6.4361,-6.5344,-6.548,-6.5069,-6.5322,-6.5543,-6.4279,-6.4784,-6.5574,-6.4595,-6.4721,-6.5069,-6.4626,-6.5037,-6.5701,-6.627,-6.6491,-6.6617,-6.6617,-6.6617,-6.6691,-6.6901,-6.8666,-7.0335,-7.0818,-7.2666,-7.4332,-7.4807,-7.4809,-7.4533,-7.405,-7.5119,-7.5621,-7.486,-7.5119,-7.5636,-7.6545,-7.551,-7.4938,-7.5098,-7.4958,-7.4607,-7.401,-7.401,-7.401,-7.401,-7.401,-7.401,-7.401,-7.401,-7.401,-7.401,-7.401,-7.401,3.5389,3.4005,3.2541,3.0015,2.8791,0.0,0.0,2.8306,2.8072,2.7189,2.6042,2.4901,2.4032,2.1452,1.9769,2.0697,1.8174,1.6393,1.723,1.6049,1.434,1.1877,0.4653,-0.214,-0.7829,-1.2433,-1.5516,-1.681,-1.8211,-1.9357,-2.0281,-2.2486,-2.4111,-2.5066,-2.7467,-2.8635,-2.8487,-2.9063,-2.9532,-3.005,-3.201,-3.3508,-3.4846,-3.6581,-3.8173,-3.9558,-3.9785,-4.0661,-4.1933,-4.2562,-4.4382,-4.7027,-4.9464,-5.2442,-5.5681,-5.9469,-6.1645,-6.286,-6.4475,-6.5258,-6.5448,-6.4753,-6.4753,-6.4911,-6.4216,-6.4247,-6.4595,-6.4942,-6.5037,-6.5132,-6.548,-6.608,-6.6681,-6.7028,-6.7376,-6.7534,-6.7186,-6.7091,-6.7177,-6.7317,-6.8705,-6.9903,-7.0103,-7.168,-7.3232,-7.4187,-7.405,-7.3809,-7.3774,-7.4464,-7.4757,-7.4218,-7.4926,-7.5457,-7.544,-7.5102,-7.4878,-7.4572,-7.4537,-7.4396,-7.401,-7.401,-7.401,-7.401,-7.401,-7.401,-7.401,-7.401,-7.401,-7.401,-7.401,-7.401,3.5889,3.4557,3.3145,3.0782,2.9427,2.8534,0.0,0.0,0.0,2.6717,2.5831,0.0,0.0,0.0,1.9439,2.0517,1.6474,1.3981,1.5721,1.3894,1.1715,0.9646,0.2849,-0.4451,-1.125,-1.4671,-1.7146,-1.8819,-1.9269,-2.0166,-2.1922,-2.3728,-2.5413,-2.6881,-2.8245,-2.893,-2.8622,-2.9303,-2.9968,-3.0858,-3.3073,-3.4826,-3.5976,-3.7929,-3.9144,-3.9702,-4.0075,-4.108,-4.2442,-4.3572,-4.559,-4.8128,-5.0359,-5.3193,-5.6456,-6.0193,-6.2394,-6.361,-6.4452,-6.51,-6.5448,-6.4595,-6.4216,-6.4152,-6.4279,-6.4026,-6.3931,-6.5037,-6.5132,-6.5164,-6.6143,-6.6902,-6.7407,-6.7407,-6.7945,-6.8324,-6.7723,-6.7597,-6.7726,-6.8226,-6.8557,-6.9023,-6.9794,-7.0699,-7.1906,-7.3413,-7.305,-7.2912,-7.3498,-7.3791,-7.3703,-7.3365,-7.4573,-7.5066,-7.4087,-7.4527,-7.4642,-7.4045,-7.401,-7.401,-7.401,-7.401,-7.401,-7.401,-7.401,-7.401,-7.401,-7.401,-7.401,-7.401,-7.401,-7.401,3.4645,3.3717,3.2826,2.9868,2.9189,2.9178,2.8856,0.0,2.8619,2.6053,0.0,2.4292,1.9998,0.0,0.0,1.5355,1.0284,0.7834,1.1692,0.655,0.2234,0.1737,-0.4201,-0.966,-1.3255,-1.5493,-1.7321,-1.88,-2.0262,-2.1306,-2.1922,-2.5223,-2.7012,-2.7188,-2.8958,-2.9603,-2.9281,-2.9457,-3.0022,-3.1236,-3.2911,-3.4529,-3.5976,-3.7929,-3.933,-4.0158,-4.0199,-4.127,-4.2922,-4.4542,-4.6884,-4.9636,-5.2479,-5.4941,-5.739,-6.2227,-6.4109,-6.4492,-6.5227,-6.5511,-6.5353,-6.4026,-6.3173,-6.2793,-6.3426,-6.3963,-6.4437,-6.4595,-6.548,-6.627,-6.5796,-6.6207,-6.6712,-6.6712,-6.7218,-6.7692,-6.7597,-6.7597,-6.7885,-6.8904,-6.8104,-6.8046,-7.0589,-7.1627,-7.2225,-7.2793,-7.274,-7.2705,-7.2774,-7.353,-7.4163,-7.426,-7.4682,-7.4927,-7.4913,-7.4466,-7.408,-7.401,-7.401,-7.401,-7.401,-7.401,-7.401,-7.401,-7.401,-7.401,-7.401,-7.401,-7.401,-7.401,-7.401,-7.401,3.5664,3.4354,3.3146,3.087,2.9769,2.9105,2.9164,2.9281,2.8733,2.5996,0.0,0.0,0.0,0.0,0.0,0.0,1.3063,0.6463,-0.0344,-0.3962,-0.5879,-0.6079,-0.9352,-1.279,-1.5561,-1.7328,-1.8891,-2.0619,-2.2355,-2.3763,-2.5126,-2.6644,-2.7975,-2.8987,-2.9442,-2.9515,-2.9383,-3.0593,-3.1723,-3.2587,-3.4733,-3.6186,-3.7233,-3.8644,-3.9454,-3.9847,-4.0911,-4.2037,-4.3511,-4.5422,-4.8128,-5.1271,-5.4654,-5.677,-5.849,-6.1871,-6.3652,-6.45,-6.4405,-6.4626,-6.4721,-6.3331,-6.2951,-6.3015,-6.292,-6.3647,-6.4532,-6.4532,-6.5227,-6.6017,-6.6143,-6.6681,-6.7281,-6.7723,-6.8039,-6.8324,-6.8703,-6.867,-6.8795,-6.9877,-6.9376,-6.9419,-7.1693,-7.143,-7.1138,-7.1847,-7.2395,-7.2671,-7.2671,-7.3115,-7.3539,-7.3821,-7.3985,-7.4227,-7.4466,-7.4185,-7.401,-7.401,-7.401,-7.401,-7.401,-7.401,-7.401,-7.401,-7.401,-7.401,-7.401,-7.401,-7.401,-7.401,-7.401,-7.401,3.5276,3.3966,3.2657,3.0914,2.9743,2.893,2.9076,2.8935,2.8255,2.5996,2.3901,0.0,0.0,0.0,1.4643,1.7906,0.0,0.157,-0.9117,-1.1009,-1.1356,-1.1356,-1.3102,-1.5241,-1.8067,-1.9211,-2.0508,-2.2311,-2.4079,-2.5867,-2.7463,-2.8152,-2.9033,-3.0481,-2.9939,-2.9907,-3.0136,-3.1649,-3.286,-3.4036,-3.5916,-3.7411,-3.8264,-3.9185,-3.9599,-3.9744,-4.1538,-4.2861,-4.43,-4.6638,-4.969,-5.3159,-5.6466,-5.8475,-5.9838,-6.2053,-6.3421,-6.4152,-6.3647,-6.3678,-6.3773,-6.2762,-6.2762,-6.311,-6.2572,-6.3394,-6.4532,-6.4532,-6.5132,-6.5922,-6.6459,-6.6807,-6.7218,-6.7945,-6.8134,-6.84,-6.939,-6.9326,-6.961,-7.0855,-7.0498,-7.0493,-7.2054,-7.1337,-7.0806,-7.1966,-7.2429,-7.2824,-7.3031,-7.3026,-7.317,-7.3415,-7.3657,-7.3852,-7.401,-7.401,-7.401,-7.401,-7.401,-7.401,-7.401,-7.401,-7.401,-7.401,-7.401,-7.401,-7.401,-7.401,-7.401,-7.401,-7.401,-7.401,3.1959,3.1229,3.0961,2.8981,2.8666,2.8812,2.8534,2.799,2.7121,2.566,2.3223,2.0752,1.8666,1.4478,1.14,1.1014,-0.0868,0.0,0.0,-1.2099,-1.3063,-1.2913,-1.4992,-1.762,-2.0727,-2.0879,-2.1734,-2.3841,-2.5564,-2.6747,-2.7602,-2.9335,-3.0495,-3.0803,-3.0495,-3.0971,-3.2221,-3.203,-3.2977,-3.5383,-3.5792,-3.6852,-3.8289,-3.9172,-3.9785,-4.0199,-4.155,-4.3331,-4.5494,-4.8319,-5.1537,-5.5054,-5.7798,-5.9777,-6.1401,-6.3626,-6.4089,-6.352,-6.3489,-6.3046,-6.2477,-6.2446,-6.2446,-6.2446,-6.2446,-6.3394,-6.4532,-6.4532,-6.5511,-6.6586,-6.6586,-6.6112,-6.5796,-6.6523,-6.6681,-6.7155,-6.8834,-6.9237,-6.9777,-7.1766,-7.0951,-7.0323,-7.1331,-7.1498,-7.1981,-7.3498,-7.3119,-7.3031,-7.3891,-7.3622,-7.3415,-7.3692,-7.3852,-7.401,-7.401,-7.401,-7.401,-7.401,-7.401,-7.401,-7.401,-7.401,-7.401,-7.401,-7.401,-7.401,-7.401,-7.401,-7.401,-7.401,-7.401,-7.401,3.1798,3.1236,3.0792,2.8813,2.852,2.8409,2.7354,2.7028,2.6004,2.3121,2.0652,1.8791,1.7476,1.1877,0.5053,-0.2279,-0.7523,-1.1101,0.0,-1.4845,-1.6764,-1.7025,-1.7855,-1.9018,-2.105,-2.3064,-2.473,-2.577,-2.6977,-2.8118,-2.8684,-2.9572,-3.0071,-3.0188,-3.1204,-3.1775,-3.1889,-3.3975,-3.5132,-3.5383,-3.7236,-3.8147,-3.833,-3.9204,-4.0167,-4.1237,-4.3394,-4.5134,-4.6613,-5.0216,-5.3262,-5.5907,-5.7689,-5.9849,-6.2079,-6.2852,-6.3299,-6.3489,-6.3489,-6.3015,-6.2446,-6.2446,-6.2446,-6.2446,-6.2446,-6.3394,-6.4532,-6.4532,-6.5511,-6.6701,-6.678,-6.7117,-6.7213,-6.6887,-6.7208,-6.7926,-6.8941,-6.9286,-7.0034,-7.1849,-7.1518,-7.1438,-7.2843,-7.2602,-7.2464,-7.2981,-7.2843,-7.3031,-7.3756,-7.3455,-7.317,-7.3415,-7.3657,-7.3852,-7.401,-7.401,-7.401,-7.401,-7.401,-7.401,-7.401,-7.401,-7.401,-7.401,-7.401,-7.401,-7.401,-7.401,-7.401,-7.401,-7.401,-7.401,3.0729,3.0253,2.9869,2.8482,2.7951,2.7449,2.6419,2.5216,2.3538,2.1319,1.8454,1.627,1.6506,1.0314,0.1911,-0.879,-1.1356,-1.2709,0.0,-1.7093,-1.9016,-2.0421,-2.0538,-2.1036,-2.2669,-2.4481,-2.6099,-2.7664,-2.8438,-2.9412,-3.0531,-3.1042,-3.1337,-3.1585,-3.2569,-3.3175,-3.3547,-3.5449,-3.6421,-3.6342,-3.8058,-3.8688,-3.8162,-3.9688,-4.0636,-4.1393,-4.4701,-4.6737,-4.7936,-5.1708,-5.4785,-5.7299,-5.8078,-5.9933,-6.2067,-6.2067,-6.2509,-6.311,-6.311,-6.2825,-6.2446,-6.2446,-6.2446,-6.2446,-6.2446,-6.3394,-6.4532,-6.4532,-6.5353,-6.6321,-6.6428,-6.6738,-6.6807,-6.6249,-6.6738,-6.7553,-6.8298,-6.9026,-7.0049,-7.157,-7.214,-7.2602,-7.3602,-7.3602,-7.3567,-7.3843,-7.3429,-7.3445,-7.4205,-7.3545,-7.3088,-7.3415,-7.3577,-7.3772,-7.401,-7.401,-7.401,-7.401,-7.401,-7.401,-7.401,-7.401,-7.4537,-7.559,-7.4572,-7.4537,-7.5625,-7.4537,-7.401,-7.401,-7.401,-7.401]},{"header":{"parameterUnit":"m.s-1","parameterCategory":1,"la1":30.6,"la2":29.2853,"lo1":-89.7004,"lo2":-87.6739,"dy":0.0162,"dx":0.0183,"nx":112,"ny":82,"refTime":"2023-03-16T00:00:00:Z","depth":0,"parameterNumber":3,"parameterNumberName":"V-component_of_WINDS"},"data":[0.0,0.0,0.0,0.0,0.0,0.0,0.0,0.0,0.0,0.0,0.0,0.0,0.0,0.0,0.0,0.0,0.0,0.0,0.0,0.0,0.0,0.0,0.0,0.0,0.0,0.0,0.0,0.0,0.0,0.0,0.0,0.0,0.0,0.0,0.0,0.0,0.0,0.0,0.0,0.0,0.0,0.0,0.0,0.0,0.0,0.0,0.0,0.0,0.0,0.0,0.0,0.0,0.0,0.0,0.0,0.0,0.0,0.0,0.0,0.0,0.0,0.0,0.0,0.0,0.0,0.0,0.0,0.0,0.0,0.0,0.0,0.0,0.0,0.0,0.0,0.0,0.0,0.0,0.0,0.0,0.0,0.0,0.0,0.0,0.0,0.0,0.0,0.0,0.0,0.0,-7.3369,-7.3141,-7.1756,-7.0584,-7.0052,-6.7391,-6.4455,-6.1493,0.0,0.0,0.0,0.0,0.0,0.0,0.0,0.0,0.0,0.0,0.0,0.0,0.0,0.0,0.0,0.0,0.0,0.0,0.0,0.0,0.0,0.0,0.0,0.0,0.0,0.0,0.0,0.0,0.0,0.0,0.0,0.0,0.0,0.0,0.0,0.0,0.0,0.0,0.0,0.0,0.0,0.0,0.0,0.0,0.0,0.0,0.0,0.0,0.0,0.0,0.0,0.0,0.0,0.0,0.0,0.0,0.0,0.0,0.0,0.0,0.0,0.0,0.0,0.0,0.0,0.0,0.0,0.0,0.0,0.0,0.0,0.0,0.0,0.0,0.0,0.0,0.0,0.0,0.0,0.0,0.0,0.0,0.0,0.0,0.0,0.0,0.0,0.0,0.0,0.0,0.0,0.0,0.0,0.0,0.0,0.0,0.0,0.0,0.0,0.0,0.0,0.0,0.0,0.0,-7.2753,-6.998,-6.8395,-6.6543,-6.4078,-6.1553,-5.951,-5.7937,0.0,0.0,0.0,0.0,0.0,0.0,0.0,0.0,0.0,0.0,0.0,0.0,0.0,0.0,0.0,0.0,0.0,0.0,0.0,0.0,0.0,0.0,0.0,0.0,0.0,0.0,0.0,0.0,0.0,0.0,0.0,0.0,0.0,0.0,0.0,0.0,0.0,0.0,0.0,0.0,0.0,0.0,0.0,0.0,0.0,0.0,0.0,0.0,0.0,0.0,0.0,0.0,0.0,0.0,0.0,0.0,0.0,0.0,0.0,0.0,0.0,0.0,0.0,0.0,0.0,0.0,0.0,0.0,0.0,0.0,0.0,0.0,0.0,0.0,0.0,0.0,0.0,0.0,0.0,0.0,0.0,0.0,0.0,0.0,0.0,0.0,0.0,0.0,0.0,0.0,0.0,0.0,0.0,0.0,0.0,0.0,0.0,0.0,0.0,0.0,0.0,0.0,0.0,-7.0987,-6.9422,-6.6964,-6.3991,-6.1819,-6.0728,-5.7523,-5.5693,-5.6079,-5.6034,0.0,0.0,0.0,0.0,0.0,0.0,0.0,0.0,0.0,0.0,0.0,0.0,0.0,0.0,0.0,0.0,0.0,0.0,0.0,0.0,0.0,0.0,0.0,0.0,0.0,0.0,0.0,0.0,0.0,0.0,0.0,0.0,0.0,0.0,0.0,0.0,0.0,0.0,0.0,0.0,0.0,0.0,0.0,0.0,0.0,0.0,0.0,0.0,0.0,0.0,0.0,0.0,0.0,0.0,0.0,0.0,0.0,0.0,0.0,0.0,0.0,0.0,0.0,0.0,0.0,0.0,0.0,0.0,0.0,0.0,0.0,0.0,0.0,0.0,0.0,0.0,0.0,0.0,0.0,0.0,0.0,0.0,0.0,0.0,0.0,0.0,0.0,0.0,0.0,0.0,0.0,0.0,0.0,0.0,0.0,0.0,0.0,0.0,0.0,0.0,0.0,0.0,-6.6461,-6.4642,-6.3425,-5.9791,-5.754,-5.7702,-5.4478,-5.3187,-5.488,-5.3915,0.0,0.0,0.0,0.0,0.0,0.0,0.0,0.0,0.0,0.0,0.0,0.0,0.0,0.0,0.0,0.0,0.0,0.0,0.0,0.0,0.0,0.0,0.0,0.0,0.0,0.0,0.0,0.0,0.0,0.0,0.0,0.0,0.0,0.0,0.0,0.0,0.0,0.0,0.0,0.0,0.0,0.0,0.0,0.0,0.0,0.0,0.0,0.0,0.0,0.0,0.0,0.0,0.0,0.0,0.0,0.0,0.0,0.0,0.0,0.0,0.0,0.0,0.0,0.0,0.0,0.0,0.0,0.0,0.0,0.0,0.0,0.0,0.0,0.0,0.0,0.0,0.0,0.0,0.0,0.0,0.0,0.0,0.0,0.0,0.0,0.0,0.0,0.0,0.0,0.0,0.0,0.0,0.0,0.0,0.0,0.0,0.0,0.0,0.0,0.0,0.0,0.0,-6.1714,-5.8427,-5.8678,-5.6689,-5.5041,-5.3947,-5.2794,-5.2765,-5.4236,-5.3374,0.0,0.0,0.0,0.0,0.0,0.0,0.0,0.0,0.0,0.0,0.0,0.0,0.0,0.0,0.0,0.0,0.0,0.0,0.0,0.0,0.0,0.0,0.0,0.0,0.0,0.0,0.0,0.0,0.0,0.0,0.0,0.0,0.0,0.0,0.0,0.0,0.0,0.0,0.0,0.0,0.0,0.0,0.0,0.0,0.0,0.0,0.0,0.0,0.0,0.0,0.0,0.0,0.0,0.0,0.0,0.0,0.0,0.0,0.0,0.0,0.0,0.0,0.0,0.0,0.0,0.0,0.0,0.0,0.0,0.0,0.0,0.0,0.0,0.0,0.0,0.0,0.0,0.0,0.0,0.0,0.0,0.0,0.0,0.0,0.0,0.0,0.0,0.0,0.0,0.0,0.0,0.0,0.0,0.0,0.0,0.0,0.0,0.0,0.0,0.0,0.0,0.0,-5.9393,-5.6395,-5.5227,-5.2894,-5.146,-5.1747,-5.1162,-5.1391,-5.3008,0.0,0.0,0.0,0.0,0.0,0.0,0.0,0.0,0.0,0.0,0.0,0.0,0.0,0.0,0.0,0.0,0.0,0.0,0.0,0.0,0.0,0.0,0.0,0.0,0.0,0.0,0.0,0.0,0.0,0.0,0.0,0.0,0.0,0.0,0.0,0.0,0.0,0.0,0.0,0.0,0.0,0.0,0.0,0.0,0.0,0.0,0.0,0.0,0.0,0.0,0.0,0.0,0.0,0.0,0.0,0.0,0.0,0.0,0.0,0.0,0.0,0.0,0.0,0.0,0.0,0.0,0.0,0.0,0.0,0.0,0.0,0.0,0.0,0.0,0.0,0.0,0.0,0.0,0.0,0.0,0.0,0.0,0.0,0.0,0.0,0.0,0.0,0.0,0.0,0.0,0.0,0.0,0.0,0.0,0.0,0.0,0.0,0.0,0.0,0.0,0.0,0.0,-5.9838,-5.6249,-5.3585,-5.2309,-4.9996,-4.918,-5.0783,-5.0564,-5.1414,-5.3753,0.0,0.0,0.0,0.0,0.0,0.0,0.0,0.0,0.0,0.0,0.0,0.0,0.0,0.0,0.0,0.0,0.0,0.0,0.0,0.0,0.0,0.0,0.0,0.0,0.0,0.0,0.0,0.0,0.0,0.0,0.0,0.0,0.0,0.0,0.0,0.0,0.0,0.0,0.0,0.0,0.0,0.0,0.0,0.0,0.0,0.0,0.0,0.0,0.0,0.0,0.0,0.0,0.0,0.0,0.0,0.0,0.0,0.0,0.0,0.0,0.0,0.0,0.0,0.0,0.0,0.0,0.0,0.0,0.0,0.0,0.0,0.0,0.0,0.0,0.0,0.0,0.0,0.0,0.0,0.0,0.0,0.0,0.0,0.0,0.0,0.0,0.0,0.0,0.0,0.0,0.0,0.0,0.0,0.0,0.0,0.0,0.0,0.0,0.0,0.0,0.0,0.0,-5.634,-5.1871,-4.9125,-4.9824,-4.8311,-4.8363,-5.1116,-5.1368,-5.2842,0.0,0.0,0.0,0.0,0.0,0.0,0.0,0.0,0.0,0.0,0.0,0.0,0.0,0.0,0.0,0.0,0.0,0.0,0.0,0.0,0.0,0.0,0.0,0.0,0.0,0.0,0.0,0.0,0.0,0.0,0.0,0.0,0.0,0.0,0.0,0.0,0.0,0.0,0.0,0.0,0.0,0.0,0.0,0.0,0.0,0.0,0.0,0.0,0.0,0.0,0.0,0.0,0.0,0.0,0.0,0.0,0.0,0.0,0.0,0.0,0.0,0.0,0.0,0.0,0.0,0.0,0.0,0.0,0.0,0.0,0.0,0.0,0.0,0.0,0.0,0.0,0.0,0.0,0.0,0.0,0.0,0.0,0.0,0.0,0.0,0.0,0.0,0.0,0.0,0.0,0.0,0.0,0.0,0.0,0.0,0.0,0.0,0.0,0.0,0.0,0.0,0.0,0.0,-5.2807,-5.1043,-4.9688,-4.8179,-4.8412,-4.9368,-5.1116,-5.2069,-5.3151,-5.4294,0.0,0.0,0.0,0.0,0.0,0.0,0.0,0.0,0.0,0.0,0.0,0.0,0.0,0.0,0.0,0.0,0.0,0.0,0.0,0.0,0.0,0.0,0.0,0.0,0.0,0.0,0.0,0.0,0.0,0.0,0.0,0.0,0.0,0.0,0.0,0.0,0.0,0.0,0.0,0.0,0.0,0.0,0.0,0.0,0.0,0.0,0.0,0.0,0.0,0.0,0.0,0.0,0.0,0.0,0.0,0.0,0.0,0.0,0.0,0.0,0.0,0.0,0.0,0.0,0.0,0.0,0.0,0.0,0.0,0.0,0.0,0.0,0.0,0.0,0.0,0.0,0.0,0.0,0.0,0.0,0.0,0.0,0.0,0.0,0.0,0.0,0.0,0.0,0.0,0.0,0.0,0.0,0.0,0.0,0.0,0.0,0.0,0.0,0.0,0.0,0.0,0.0,-5.1028,-5.0421,-4.9744,-4.8166,-4.8969,-5.0375,-5.2393,-5.3331,-5.389,-5.4074,0.0,0.0,0.0,0.0,0.0,0.0,0.0,0.0,0.0,0.0,0.0,0.0,0.0,0.0,0.0,0.0,0.0,0.0,0.0,0.0,0.0,0.0,0.0,0.0,0.0,0.0,0.0,0.0,0.0,0.0,0.0,0.0,0.0,0.0,0.0,0.0,0.0,0.0,0.0,0.0,0.0,0.0,0.0,0.0,0.0,0.0,0.0,0.0,0.0,0.0,0.0,0.0,0.0,0.0,0.0,0.0,0.0,0.0,0.0,0.0,0.0,0.0,0.0,0.0,0.0,0.0,0.0,0.0,0.0,0.0,0.0,0.0,0.0,0.0,0.0,0.0,0.0,0.0,0.0,0.0,0.0,0.0,0.0,0.0,0.0,0.0,0.0,0.0,0.0,0.0,0.0,0.0,0.0,0.0,0.0,0.0,0.0,0.0,0.0,0.0,0.0,0.0,-5.038,-4.9963,-4.9811,-4.9337,-4.9938,-5.146,-5.4341,-5.484,-5.4931,-5.4941,0.0,0.0,0.0,0.0,0.0,0.0,0.0,0.0,0.0,0.0,0.0,0.0,0.0,0.0,0.0,0.0,0.0,0.0,0.0,0.0,0.0,0.0,0.0,0.0,0.0,0.0,0.0,0.0,0.0,0.0,0.0,0.0,0.0,0.0,0.0,0.0,0.0,0.0,0.0,0.0,0.0,0.0,0.0,0.0,0.0,0.0,0.0,0.0,0.0,0.0,0.0,0.0,0.0,0.0,0.0,0.0,0.0,0.0,0.0,0.0,-6.967,-7.1637,0.0,0.0,0.0,0.0,0.0,0.0,0.0,0.0,0.0,0.0,0.0,0.0,0.0,0.0,0.0,0.0,0.0,0.0,0.0,0.0,0.0,0.0,0.0,0.0,0.0,0.0,0.0,0.0,0.0,0.0,0.0,0.0,0.0,0.0,0.0,0.0,0.0,0.0,0.0,0.0,-4.9692,-5.0719,-5.1452,-5.0561,-5.1553,-5.3172,-5.508,-5.4626,-5.3698,-5.2553,-4.9797,0.0,0.0,0.0,0.0,0.0,0.0,0.0,0.0,0.0,0.0,0.0,0.0,0.0,0.0,0.0,0.0,0.0,0.0,0.0,0.0,0.0,0.0,0.0,0.0,0.0,0.0,0.0,0.0,0.0,0.0,0.0,0.0,0.0,0.0,0.0,0.0,0.0,0.0,0.0,0.0,0.0,0.0,0.0,0.0,0.0,0.0,0.0,0.0,0.0,0.0,0.0,0.0,0.0,0.0,0.0,0.0,0.0,0.0,0.0,-7.1251,-7.2408,0.0,0.0,0.0,0.0,0.0,0.0,0.0,0.0,0.0,0.0,0.0,0.0,0.0,0.0,0.0,0.0,0.0,0.0,0.0,0.0,0.0,0.0,0.0,0.0,0.0,0.0,0.0,0.0,0.0,0.0,0.0,0.0,0.0,0.0,0.0,0.0,0.0,0.0,0.0,0.0,-4.9965,-5.1158,-5.2249,-5.1728,-5.2799,-5.4108,-5.5765,-5.4762,-5.2882,-5.0166,-4.7205,0.0,0.0,0.0,0.0,0.0,0.0,0.0,0.0,0.0,0.0,0.0,0.0,0.0,0.0,0.0,0.0,0.0,0.0,0.0,0.0,0.0,0.0,0.0,0.0,0.0,0.0,0.0,0.0,0.0,0.0,0.0,0.0,0.0,0.0,0.0,0.0,0.0,0.0,0.0,0.0,0.0,0.0,0.0,0.0,0.0,0.0,0.0,0.0,0.0,0.0,0.0,0.0,0.0,-6.8436,-6.8774,-6.9335,-7.0471,-7.1392,-7.2183,-7.3236,-7.3297,-7.2741,-7.3191,0.0,0.0,0.0,0.0,0.0,0.0,0.0,0.0,0.0,0.0,0.0,0.0,0.0,0.0,0.0,0.0,0.0,0.0,0.0,0.0,0.0,0.0,-7.4611,-7.7823,-7.5527,-7.2511,-7.1951,0.0,0.0,0.0,0.0,0.0,0.0,0.0,0.0,0.0,0.0,0.0,-5.0573,-5.1591,-5.2822,-5.3041,-5.3809,-5.472,-5.6045,-5.448,-5.1701,-4.778,-4.462,-4.165,0.0,0.0,0.0,0.0,0.0,0.0,0.0,0.0,0.0,0.0,0.0,0.0,0.0,0.0,0.0,0.0,0.0,0.0,0.0,0.0,0.0,0.0,0.0,0.0,0.0,0.0,0.0,0.0,0.0,0.0,0.0,0.0,-5.547,-5.5632,0.0,0.0,0.0,0.0,0.0,0.0,0.0,0.0,0.0,0.0,0.0,0.0,0.0,-6.2683,-6.4445,-6.6944,-6.8693,-6.9891,-7.0567,-7.0622,-7.0342,-7.1843,-7.2792,-7.3509,-7.5618,0.0,-7.5336,-7.4566,0.0,0.0,0.0,0.0,0.0,0.0,0.0,0.0,0.0,0.0,0.0,0.0,0.0,0.0,0.0,0.0,0.0,0.0,0.0,0.0,0.0,0.0,-7.5342,-7.6573,-7.4866,-7.2656,-7.1195,-7.0356,-6.8928,-6.596,-6.3491,-6.1395,0.0,0.0,0.0,0.0,0.0,0.0,-5.0896,-5.2543,-5.4201,-5.4768,-5.4968,-5.5245,-5.5612,-5.2438,-4.9022,-4.601,-4.0984,-3.8125,-3.7842,-3.5179,0.0,0.0,0.0,0.0,0.0,0.0,0.0,0.0,0.0,0.0,0.0,0.0,0.0,0.0,0.0,0.0,0.0,0.0,0.0,0.0,0.0,0.0,0.0,0.0,0.0,0.0,0.0,0.0,0.0,-5.5225,-5.6914,-5.6497,-5.6882,-5.7213,0.0,0.0,0.0,0.0,0.0,0.0,0.0,0.0,0.0,-5.9144,-6.2358,-6.4577,-6.5545,-6.9151,-7.1401,-7.2056,-7.3515,-7.4037,-7.3697,-7.512,-7.586,-7.6214,-7.7883,-7.8395,-7.795,-7.6606,-7.6093,-7.591,0.0,0.0,0.0,0.0,-7.3898,-7.4451,-7.6156,-7.716,-7.7764,-7.8318,0.0,0.0,0.0,0.0,0.0,0.0,0.0,-7.7831,-7.787,-7.636,-7.5172,-7.6443,-7.4294,-7.1919,-7.172,-6.9052,-6.6119,-6.4108,-6.2458,-6.0897,-5.9631,-5.7587,0.0,0.0,0.0,-5.4375,-5.1871,-5.3128,-5.4461,-5.5119,-5.4332,-5.3877,-5.4333,-5.0596,-4.711,-4.4467,-3.9881,-3.6887,-3.5766,-3.3816,-3.3152,0.0,0.0,0.0,0.0,0.0,0.0,0.0,0.0,0.0,0.0,0.0,0.0,0.0,0.0,0.0,0.0,0.0,0.0,0.0,0.0,0.0,0.0,0.0,0.0,0.0,0.0,0.0,0.0,-5.6888,-5.794,-5.7139,-5.7404,-5.7557,0.0,0.0,0.0,0.0,0.0,0.0,-5.9604,-6.0917,-6.1587,-6.1761,-6.4929,-6.7068,-6.785,-7.1874,-7.4092,-7.445,-7.6148,-7.6948,-7.6914,-7.7851,-7.8596,-7.9131,-7.993,-8.0579,-8.0828,-7.8589,-7.7635,-7.7426,-7.553,-7.4568,-7.4412,-7.4682,-7.5046,-7.5539,-7.7031,-7.8036,-7.874,-7.9304,-7.9899,-8.0312,-8.0176,0.0,0.0,0.0,0.0,-7.7608,-7.757,-7.6022,-7.4793,-7.5902,-7.3561,-7.1126,-7.1155,-6.7822,-6.4222,-6.2522,-6.1026,-5.97,-5.852,-5.7004,0.0,-5.5118,-5.5145,-5.4506,-5.2543,-5.3579,-5.454,-5.4684,-5.3559,-5.2585,-5.21,-4.8603,-4.5159,-4.2239,-3.8506,-3.5711,-3.3816,-3.2856,-3.242,-3.2555,0.0,0.0,0.0,0.0,0.0,0.0,0.0,0.0,0.0,0.0,0.0,0.0,0.0,0.0,0.0,0.0,0.0,0.0,0.0,0.0,0.0,0.0,0.0,0.0,0.0,0.0,0.0,0.0,0.0,-5.6941,-5.8931,0.0,0.0,0.0,0.0,-5.9909,-6.073,-6.1721,-6.3034,-6.3395,-6.4658,-6.6972,-6.8968,-7.0989,-7.304,-7.546,-7.6753,-7.704,-7.7856,-7.8518,-7.8956,-7.9049,-8.0089,-8.1826,-8.1826,-8.2863,-8.4058,-8.0131,-7.8516,-7.8306,-7.5916,-7.569,-7.6698,-7.653,-7.7344,-7.8789,-8.04,-8.1118,-8.1243,-8.0776,-7.9919,-7.9415,-8.1087,-7.9855,0.0,0.0,-7.818,-7.7126,-7.667,-7.5604,-7.4502,-7.4052,-7.2473,-7.0521,-6.8327,-6.7015,-6.5369,-6.2248,-5.9033,-5.6745,-5.6402,0.0,-5.5113,-5.4526,-5.4849,-5.4506,-5.2646,-5.3993,-5.4713,-5.3623,-5.351,-5.1989,-4.8458,-4.6289,-4.3098,-3.8401,-3.5898,-3.3932,-3.2611,-3.2018,-3.1855,-3.2124,-3.3757,0.0,0.0,0.0,0.0,0.0,0.0,0.0,0.0,0.0,0.0,0.0,0.0,0.0,0.0,0.0,0.0,0.0,0.0,0.0,0.0,0.0,0.0,0.0,0.0,0.0,0.0,0.0,0.0,-6.076,-6.2195,0.0,-6.1216,-6.1509,-6.205,-6.2866,-6.3728,-6.4623,-6.5522,-6.6939,-6.8263,-6.9441,-7.2396,-7.446,-7.5539,-7.885,-8.0253,-7.9678,-8.0755,-8.129,-8.1256,-8.1,-8.1574,-8.279,-8.279,-8.3474,-8.4499,-8.3067,-8.1856,-8.0718,-7.9179,-7.8311,-7.7938,-7.7983,-7.818,-7.8608,-8.0099,-8.0803,-8.1165,-8.2124,-8.1745,-8.1026,-8.1537,-8.0357,-7.8683,-7.8065,-7.7155,-7.5956,-7.4401,-7.32,-7.2207,-7.1478,-6.9367,-6.7329,-6.6323,-6.3847,-6.127,-5.9444,-5.8487,-5.7603,-5.6402,-5.5628,-5.5018,-5.4374,-5.4857,-5.4839,-5.3752,-5.3789,-5.386,-5.3413,-5.0712,-4.8471,-4.7442,-4.2815,-3.9379,-3.7571,-3.458,-3.2746,-3.2456,-3.167,-3.1508,-3.2124,-3.2715,-3.3535,0.0,0.0,0.0,0.0,0.0,0.0,0.0,0.0,0.0,0.0,0.0,0.0,0.0,0.0,0.0,0.0,0.0,0.0,0.0,0.0,0.0,0.0,0.0,0.0,0.0,-5.9859,-6.2145,-6.2617,-6.4634,-6.5532,-6.4322,-6.4698,-6.5315,-6.5788,-6.6888,-6.7795,-6.859,-7.0203,-7.1647,-7.2838,-7.5628,-7.7574,-7.8657,-8.1319,-8.2398,-8.1919,-8.2486,-8.2721,-8.2589,-8.237,-8.2734,-8.3611,-8.3932,-8.4531,-8.5416,-8.5648,-8.4719,-8.3124,-8.163,-8.0555,-7.9802,-7.9394,-7.9292,-7.943,-8.0161,-8.0581,-8.0907,-8.1831,-8.1623,-8.0956,-8.0708,-7.9594,-7.8064,-7.6349,-7.5208,-7.397,-7.1829,-7.0832,-7.0126,-6.9072,-6.7317,-6.5649,-6.4377,-6.1736,-5.9128,-5.7948,-5.7825,-5.7446,-5.6131,-5.5478,-5.5179,-5.5179,-5.5179,-5.5179,-5.5179,-5.4377,-5.3405,-5.2402,-4.8722,-4.5908,-4.4981,-4.05,-3.727,-3.6058,-3.3861,-3.2295,-3.1868,-3.1583,-3.1559,-3.1936,-3.2242,-3.2489,-3.316,0.0,0.0,0.0,0.0,0.0,0.0,0.0,0.0,0.0,0.0,0.0,0.0,0.0,0.0,0.0,0.0,0.0,0.0,0.0,0.0,0.0,0.0,0.0,-5.6959,-6.0328,-6.2447,-6.2238,-6.6287,-6.8295,-6.5919,-6.8029,-6.9303,-6.878,-6.9777,-7.0931,-7.2002,-7.3156,-7.4872,-7.7351,-7.8712,-8.0378,-8.2526,-8.3083,-8.346,-8.3625,-8.2904,-8.2693,-8.2949,-8.311,-8.3627,-8.4431,-8.5345,-8.6247,-8.71,-8.7655,-8.6969,-8.5223,-8.2867,-8.2147,-8.2297,-8.0736,-8.0722,-8.1458,-8.0917,-8.0836,-8.0781,-7.9922,-7.94,-7.902,-7.8557,-7.7475,-7.5914,-7.3848,-7.2547,-7.1291,-6.92,-6.8653,-6.8274,-6.6976,-6.6677,-6.5765,-6.2534,-6.0988,-5.9726,-5.7906,-5.6849,-5.5987,-5.5299,-5.5209,-5.5628,-5.6855,-5.6017,0.0,-5.6885,-5.5389,-5.3303,-5.0407,-4.7758,-4.4749,-4.124,-3.9304,-3.6953,-3.3804,-3.3285,-3.2258,-3.0446,-3.1491,-3.1919,-3.1559,-3.2364,-3.2648,-3.2684,0.0,0.0,0.0,0.0,0.0,0.0,0.0,0.0,0.0,0.0,0.0,0.0,0.0,0.0,0.0,0.0,0.0,0.0,0.0,0.0,0.0,-5.3737,-5.6122,-5.8927,-6.252,-6.5699,-6.7916,-7.0479,-7.1956,-7.1378,-7.1472,-7.1997,-7.2799,-7.2674,-7.3228,-7.4778,-7.6196,-7.7625,-7.8946,-8.1196,-8.2649,-8.3316,-8.472,-8.5198,-8.4781,-8.4575,-8.4471,-8.4535,-8.4681,-8.4934,-8.5252,-8.683,-8.7594,-8.7945,-8.8507,-8.8137,-8.6952,-8.4892,-8.3578,-8.2641,-8.1522,-8.1414,-8.1827,-8.1753,-8.1769,-8.1679,-8.0719,-8.0022,-7.9192,-7.7381,-7.5615,-7.3757,-7.1878,-7.0499,-6.9196,-6.7708,-6.727,-6.6976,-6.5975,-6.5347,-6.4377,-6.2009,-6.0836,-5.9659,-5.7648,-5.7032,-5.6496,-5.5388,-5.5598,-5.5867,-5.5718,-5.6196,-5.6184,-5.5301,-5.4028,-5.2268,-4.9756,-4.6245,-4.3168,-4.1017,-3.7246,-3.4241,-3.2588,-3.1442,-3.0528,-3.0052,-3.06,-3.0977,-3.1165,-3.1941,-3.2216,0.0,0.0,0.0,0.0,0.0,0.0,0.0,0.0,0.0,0.0,0.0,0.0,0.0,0.0,0.0,0.0,0.0,0.0,0.0,0.0,0.0,0.0,-5.5304,-5.8209,-6.2155,-6.4593,-6.7173,-7.0498,-7.2912,-7.4324,-7.4348,-7.4557,-7.5091,-7.5647,-7.5997,-7.6697,-7.8171,-7.9692,-8.1005,-8.2156,-8.4065,-8.5105,-8.5233,-8.6228,-8.6398,-8.5673,-8.5363,-8.5387,-8.5768,-8.5918,-8.6212,-8.6648,-8.8055,-8.8836,-8.9159,-8.9361,-8.8972,-8.799,0.0,0.0,0.0,0.0,-8.1866,-8.1997,-8.1686,-8.164,-8.1468,-8.0066,-7.917,-7.8258,-7.6016,-7.4018,-7.2094,-7.0315,-6.8884,-6.7639,-6.6424,-6.6148,-6.6062,-6.5481,-6.4827,-6.3675,-6.1695,-6.0606,-5.947,-5.7828,-5.7304,0.0,-5.6496,-5.6496,-5.6526,-5.6436,-5.6795,-5.6614,-5.54,-5.3437,-5.1062,-4.8603,-4.4451,-4.1316,-3.9932,-3.6003,0.0,0.0,0.0,-3.06,-3.06,-3.0789,0.0,0.0,0.0,-3.197,-3.1662,-3.2039,0.0,0.0,-3.2648,-3.3016,0.0,0.0,0.0,0.0,0.0,0.0,0.0,0.0,0.0,0.0,0.0,0.0,0.0,0.0,0.0,0.0,-5.7677,-6.1452,-6.6057,-6.689,-6.8234,-7.1532,-7.4342,-7.6016,-7.5955,-7.7434,-7.8231,-7.7988,-7.9152,-8.0537,-8.1665,-8.3087,0.0,0.0,0.0,-8.7536,-8.7536,-8.7536,-8.7225,-8.657,-8.5876,-8.6046,-8.6825,-8.7121,-8.7654,-8.8413,-8.9386,-9.0094,-9.0488,-9.0264,-8.9604,-8.8453,-8.5968,-8.4599,-8.3846,-8.2606,-8.2153,-8.1998,-8.1287,0.0,0.0,-7.8804,-7.7699,-7.6762,-7.4638,-7.2633,-7.0654,-6.9065,-6.7639,-6.6372,-6.557,-6.5425,-6.5425,-6.5246,-6.4577,-6.3417,-6.1595,-6.0484,-5.9502,-5.8414,-5.7693,-5.7393,-5.8022,-5.7543,-5.7334,-5.8022,-5.7437,-5.664,-5.5974,-5.2995,-4.9871,-4.7061,-4.2762,0.0,-3.8614,-3.5607,-3.3303,-3.2052,-3.1718,-3.158,-3.1439,-3.1474,-3.1662,-3.2004,-3.2039,-3.1748,-3.108,-3.1405,-3.1593,-3.1662,-3.2672,-3.3169,0.0,0.0,0.0,0.0,0.0,0.0,0.0,0.0,0.0,0.0,0.0,0.0,0.0,0.0,0.0,-5.7338,-6.0171,-6.3888,-6.9161,-7.0936,-7.2648,-7.5231,-7.7833,-7.9374,-7.9098,-8.0053,-8.0971,-8.1812,-8.1755,-8.2477,-8.4175,-8.5514,-8.6339,-8.661,-8.7777,-8.8364,-8.8364,-8.8364,-8.8295,-8.8122,-8.8154,0.0,-8.8405,-8.9986,-9.0457,-9.0117,-9.1653,-9.1975,-9.1306,-9.132,-9.0002,-8.7862,-8.5998,-8.4483,-8.336,-8.3052,-8.2616,-8.2146,-8.1992,-8.1881,-8.1442,-7.9175,-7.7737,-7.6389,-7.3725,-7.1162,0.0,-6.8343,-6.6928,-6.557,-6.5392,-6.5425,-6.5213,-6.436,-6.4081,-6.3356,-6.12,-6.0691,-6.0206,-5.9105,-5.8381,-5.7962,-5.8112,-5.7543,-5.7334,-5.8022,-5.6769,-5.5111,-5.3217,-5.1122,-4.8562,-4.5375,-4.2683,-4.03,-3.8481,-3.584,-3.3697,-3.2176,-3.1507,-3.0926,-3.0652,-3.096,-3.1165,-3.1234,-3.1525,-3.1611,-3.1456,-3.1525,-3.1713,-3.2022,-3.2244,-3.2518,0.0,0.0,0.0,0.0,0.0,0.0,0.0,0.0,0.0,0.0,0.0,-5.2311,-5.4103,0.0,-5.7669,-6.1211,-6.3592,-6.6909,-7.1882,-7.4225,-7.6076,-7.7318,-7.9452,-8.0742,-8.0522,-8.2182,-8.3648,-8.4275,-8.5214,-8.6417,-8.7786,-8.8402,-8.8965,-8.9341,-8.9566,-8.9536,-8.9157,-8.9157,-8.8984,-8.8605,-8.9151,-8.9671,-9.01,-9.1631,-9.2308,-9.245,-9.3197,-9.3226,-9.2516,-9.1777,-9.0293,-8.8417,-8.729,-8.536,-8.3195,-8.3225,-8.2813,-8.2187,-8.212,-8.1899,-8.1303,-7.9211,-7.7597,-7.5909,-7.3055,-7.0535,-6.8502,-6.7628,-6.6372,-6.5425,-6.5425,-6.5425,-6.5123,-6.4175,-6.3483,-6.268,-6.1082,-6.0285,-5.9683,-5.9207,-5.883,-5.862,-5.862,-5.8052,-5.7391,-5.6828,-5.6025,-5.428,-5.1292,-4.9335,-4.6958,-4.3482,-4.115,-3.9045,-3.7205,-3.4945,-3.3211,-3.2105,-3.1615,-3.1219,-3.0994,-3.1371,-3.1491,-3.1302,-3.1662,-3.1748,-3.1559,-3.1748,-3.1953,-3.2141,-3.233,-3.2501,0.0,0.0,0.0,0.0,0.0,0.0,0.0,0.0,-5.097,-5.2932,-5.3737,-5.4909,-5.7268,-5.8575,-6.071,-6.4772,-6.7046,-6.9939,-7.4484,-7.6985,-7.8663,-7.9361,-8.1064,-8.227,-8.2143,-8.4761,-8.6566,-8.6903,-8.8755,-9.0257,-9.1226,-9.1261,-9.1537,-9.2192,-9.1571,-9.095,-9.0364,-9.0364,-9.0089,-8.95,-9.0493,-9.129,-9.1992,-9.3288,-9.4197,-9.4778,-9.4407,-9.3948,-9.3402,-9.1643,-9.0256,-8.9174,-8.8429,-8.6325,-8.3711,-8.3614,-8.2964,-8.2132,-8.1917,-8.1498,-8.0725,-7.8918,-7.7278,-7.5482,-7.2699,-7.0416,-6.8517,-6.7297,-6.6162,-6.5425,-6.5425,-6.5425,-6.5123,-6.3894,-6.2972,-6.1959,-6.0701,-5.9683,-5.9099,-5.9099,-5.9099,-5.9069,-5.8949,-5.8256,-5.7261,-5.5838,-5.4973,-5.3331,-4.9728,-4.7504,-4.5109,-4.1797,-3.9366,-3.74,-3.5685,-3.3898,-3.2762,-3.2368,-3.1983,-3.1809,-3.1683,-3.185,-3.1885,-3.1576,-3.1867,-3.1867,-3.1559,-3.1867,-3.2022,-3.2022,-3.233,-3.2587,-5.2931,-5.4664,-5.6823,-5.8602,-5.7443,-5.6266,0.0,0.0,-5.5942,-5.7442,-5.8287,-5.9098,-6.0405,-6.1879,-6.3937,-6.6766,-6.9397,-7.2651,-7.7147,-7.8823,-8.0297,-8.2274,-8.493,-8.6338,-8.5977,-8.873,-9.0598,-9.096,-9.1461,-9.2054,-9.2813,-9.2847,-9.2882,-9.2985,-9.2882,-9.2813,-9.2709,-9.2709,-9.2791,-9.284,-9.3912,-9.4088,-9.383,-9.6253,-9.7012,-9.6358,-9.5483,-9.4314,-9.2786,-9.0427,-8.946,-8.9313,-8.7838,-8.6579,-8.5527,-8.4797,-8.3456,-8.1972,-8.1531,-8.0807,-7.9765,-7.7998,-7.6588,-7.5117,-7.2827,-7.0675,-6.8865,-6.7946,-6.6564,-6.5425,-6.5425,-6.5425,-6.4943,-6.2972,-6.2386,-6.179,-5.9713,-5.9207,-5.9099,-5.9099,-5.9099,-5.8919,-5.8321,-5.7252,-5.6508,-5.634,-5.3668,-5.083,-4.8444,-4.587,-4.313,-4.0581,-3.8993,-3.6998,-3.4214,-3.3762,-3.3484,-3.3121,-3.2806,-3.2368,-3.2105,-3.1735,-3.1611,-3.1559,-3.1611,-3.1611,-3.1559,-3.1611,-3.1628,-3.1628,-3.1662,-3.2227,-5.3661,-5.6052,-5.8071,-5.7841,-5.7926,-5.8259,-5.8556,-5.8044,-5.8068,-5.9725,-6.0483,-6.1494,-6.3139,-6.5101,-6.7476,-7.0677,-7.3203,-7.5948,-7.9436,-8.0923,-8.255,-8.4636,-8.7131,-8.8505,-8.7916,-9.1043,-9.3006,-9.2894,-9.3601,-9.4089,-9.4399,-9.4434,-9.4434,-9.4434,-9.402,-9.3572,-9.3089,-9.3089,-9.3415,-9.4092,-9.5166,-9.6078,-9.686,-9.7539,-9.7432,-9.6542,-9.5512,-9.4572,-9.3522,-9.0942,-9.0051,-9.0091,-8.8521,-8.7417,-8.6477,-8.5038,-8.3614,-8.2215,-8.1291,-8.0131,-7.8901,-7.7728,-7.5946,-7.4006,-7.2226,-7.0177,-6.8132,-6.7255,-6.6224,-6.5425,-6.5425,-6.5425,-6.491,-6.2746,-6.2256,-6.169,-5.9606,-5.9099,-5.9099,-5.9099,-5.9099,-5.8673,-5.734,-5.6355,-5.5041,-5.2681,-5.1129,-4.9048,-4.5919,-4.385,-4.1309,-3.8067,-3.6479,-3.5139,-3.3955,-3.3678,-3.34,-3.2981,-3.2561,-3.2123,-3.1841,-3.1907,-3.1799,-3.1576,-3.1782,-3.1782,-3.1559,-3.1559,-3.1559,-3.1559,-3.1559,-3.1936,-5.4814,-5.777,-6.0146,-5.8418,-5.9805,-6.1219,-5.9658,-5.9647,-6.0446,-6.2149,-6.2527,-6.3442,-6.6469,-6.8421,-7.0745,-7.4079,-7.6296,-7.8536,-8.12,-8.2853,-8.4248,-8.5979,-8.86,-9.0252,-8.9853,-9.2912,-9.4796,-9.455,-9.5461,-9.602,-9.602,-9.602,-9.602,-9.602,-9.5503,-9.4951,-9.4365,-9.4365,-9.4911,-9.6034,-9.6896,-9.8108,-9.9523,-9.8772,-9.7837,-9.6726,-9.5582,-9.4676,-9.3761,-9.145,-9.064,-9.0635,-8.9086,-8.7921,-8.6893,-8.4895,-8.3462,-8.2294,-8.0816,-7.9388,-7.8088,-7.726,-7.5417,-7.3235,-7.2047,-7.0191,-6.8263,-6.7355,-6.6585,-6.6022,-6.6022,-6.5889,-6.5239,-6.3064,-6.2414,-6.169,-5.9606,-5.9099,-5.9099,-5.9099,-5.8733,-5.7942,-5.6391,-5.4816,-5.2659,-4.9282,-4.7999,-4.6406,-4.3553,-4.1415,-3.9082,-3.6209,-3.4609,-3.3817,-3.3817,-3.3539,-3.326,-3.2841,-3.2544,-3.2123,-3.17,-3.1833,-3.185,-3.1576,-3.1833,-3.1833,-3.1559,-3.1559,-3.1559,-3.1559,-3.1559,-3.1765,0.0,0.0,-6.3312,-6.2037,-6.4249,-6.5782,-6.2312,-6.2496,-6.4002,-6.5721,-6.5205,-6.5705,-7.0585,-7.2091,-7.3551,-7.6614,-7.7903,-7.9694,-8.2692,-8.4213,-8.5421,-8.6084,-8.9543,-9.1925,-9.2225,-9.4549,-9.6131,-9.6434,-9.7158,-9.7607,-9.7607,-9.7607,-9.7607,-9.7607,-9.7572,-9.7572,-9.7538,-9.7538,-9.8265,-9.9429,-10.0311,-10.0921,-10.1384,-10.0426,-9.9042,-9.7382,-9.591,-9.4441,-9.2909,-9.1401,-9.0789,-9.0635,-8.9086,-8.7865,-8.664,-8.4357,-8.3024,-8.2006,-7.9934,-7.8414,-7.7297,-7.6366,-7.5046,-7.3606,-7.2762,-7.1354,-6.9815,-6.8885,-6.8109,-6.7546,-6.7546,-6.7016,-6.5995,-6.3896,-6.2861,-6.169,-5.9606,-5.9099,-5.9099,-5.9099,-5.7664,-5.6252,-5.5503,-5.218,-4.9048,-4.7365,-4.413,-4.1924,-4.1797,-3.8423,-3.6073,-3.5957,-3.4609,-3.3817,-3.3817,-3.3817,-3.3678,-3.3278,-3.2841,-3.2561,-3.2105,-3.1859,-3.1576,-3.1559,-3.1576,-3.1576,-3.1559,-3.1559,-3.1559,-3.1559,-3.1559,-3.1765,0.0,0.0,-6.4859,-6.4237,-6.6663,-6.8614,-6.6706,-6.7094,-6.7476,-6.6033,-6.6964,-6.872,-7.0387,-7.2459,-7.4728,-7.7304,-7.9092,-8.134,-8.4057,-8.5275,-8.657,-8.8602,-9.0809,-9.2487,-9.3026,-9.4807,-9.6372,-9.7227,-9.7538,-9.7883,-9.84,-9.8171,-9.8056,-9.8056,-9.794,-9.7976,-9.8428,-9.8428,-9.946,-10.1498,-10.2423,-10.1973,-10.05,-10.0217,-9.8668,-9.6035,-9.5014,-9.3766,-9.2254,-9.0612,-8.9974,-8.9839,-8.8123,-8.7067,-8.621,-8.3683,-8.1872,-8.0459,-7.902,-7.7607,-7.633,-7.5405,-7.4117,-7.2797,-7.1935,-7.0456,-6.9136,-6.8765,-6.8175,-6.7612,-6.7612,-6.7082,-6.6028,-6.3928,-6.3141,-6.2379,-6.0271,-5.9757,-5.9757,-5.9757,-5.7959,-5.5724,-5.3642,-5.1211,-4.8143,-4.4055,-4.1902,-4.043,-3.9497,-3.8179,-3.74,-3.74,-3.6073,-3.5158,-3.5158,-3.4075,-3.326,-3.2999,-3.2544,-3.2123,-3.1841,-3.17,-3.1559,-3.1559,-3.1559,-3.1559,-3.1559,-3.1559,-3.1559,-3.1559,-3.1559,-3.1765,0.0,-6.3807,-6.7867,-6.7174,-6.9264,-7.1447,-7.0452,-7.0147,-6.9709,-6.8909,-6.8678,-6.8769,-7.0094,-7.1502,-7.3791,-7.7692,-7.9841,-8.2182,-8.5222,-8.6683,-8.8085,-8.985,-9.1696,-9.2977,-9.3519,-9.4679,-9.59,-9.7193,-9.7779,-9.8297,-9.863,-9.8709,-9.8729,-9.8495,-9.8376,-9.8653,-9.9523,-9.9523,-10.0724,-10.3094,-10.3559,-10.2821,-10.0805,-9.9742,-9.782,-9.5252,-9.4188,-9.3129,-9.1993,-9.0596,-9.0025,-8.9885,-8.789,-8.655,-8.5416,-8.2851,-8.0636,-7.8798,-7.7961,-7.6899,-7.5829,-7.4681,-7.3492,-7.2329,-7.1444,-7.0239,-6.9069,-6.9069,-6.8738,-6.8407,-6.8407,-6.7565,-6.6282,-6.4561,-6.3868,-6.313,-6.0965,-6.0566,-6.0464,-5.9585,-5.7382,-5.4799,-5.2014,-4.8864,-4.5478,-4.1715,-4.017,-3.9125,-3.82,-3.7668,-3.7266,-3.7266,-3.6479,-3.5685,-3.5158,-3.4075,-3.326,-3.2981,-3.2544,-3.2123,-3.1841,-3.17,-3.1559,-3.1559,-3.1559,-3.1559,-3.1559,-3.1559,-3.1559,-3.1559,-3.1559,-3.1833,-6.381,-6.821,-7.2163,-7.0478,-7.2114,-7.4021,-7.3612,-7.1878,-7.1269,-7.4488,-7.0131,-6.6828,0.0,0.0,-7.0809,-7.7496,-7.976,-8.2074,-8.5953,-8.8206,-8.966,-8.9993,0.0,-9.3622,-9.3923,-9.429,-9.5055,-9.6469,-9.7917,-9.863,-9.8386,-9.9073,-9.9367,-9.9009,-9.9009,-9.9651,-10.0656,-10.0913,-10.2175,-10.4499,-10.396,-10.3202,-10.2107,-9.8966,-9.6658,-9.4988,-9.3601,-9.261,-9.1975,-9.1147,-9.0794,-9.0557,-8.8273,-8.6226,-8.4255,-8.1828,-7.9418,-7.7238,-7.6789,-7.6359,-7.569,-7.4187,-7.3125,-7.2329,-7.1444,-7.0482,-6.9798,-6.9798,-6.9798,-6.9798,-6.9703,-6.8307,-6.6738,-6.556,-6.4879,-6.385,-6.169,-6.1551,-6.1111,-5.8688,-5.6108,-5.3342,-5.0539,-4.5302,-4.1226,-4.0388,-3.9057,-3.8088,-3.82,-3.6884,-3.6093,-3.6093,-3.5957,-3.5431,-3.4112,-3.3817,-3.3696,-3.3296,-3.2859,-3.2561,-3.2105,-3.1841,-3.1559,-3.1559,-3.1559,-3.1559,-3.1559,-3.1559,-3.1559,-3.1559,-3.1559,-3.1953,-6.6562,-6.9956,-7.3401,-7.2802,-7.4307,-7.6033,-7.5543,-7.6076,-7.677,-7.7653,-7.5023,-7.1006,-6.6055,-6.5571,-6.7129,-7.091,-7.354,-7.7308,-8.3736,-8.8597,0.0,-9.3656,0.0,-9.5743,-9.5537,-9.6357,-9.6986,-9.7365,-9.7745,-9.8355,-9.9141,-9.9145,-9.9009,-9.8614,-9.9229,-10.0204,-10.1538,-10.3625,-10.4999,-10.5575,-10.3733,-10.2413,-10.1453,-9.7642,-9.5405,-9.4413,-9.2959,-9.1899,-9.1124,-9.0259,-8.9532,-8.8781,-8.7,-8.4765,-8.234,-8.0727,-7.8541,-7.63,-7.5757,-7.5478,-7.5153,-7.3402,-7.2631,-7.2244,-7.0632,-6.9955,-6.9798,-6.9798,-6.9798,-6.9574,-6.8732,-6.7784,-6.6538,-6.4683,-6.4632,-6.4507,-6.2354,-6.2251,-6.1781,-5.9475,-5.4311,-4.9507,-4.6956,-4.2623,-3.9896,-4.1085,-3.8792,-3.7652,-3.9451,-3.8465,-3.7934,-3.9014,-3.7153,-3.5938,-3.5855,-3.4519,-3.3806,-3.3675,-3.3142,-3.2561,-3.2105,-3.1841,-3.1559,-3.1559,-3.1559,-3.1559,-3.1559,-3.1559,-3.1559,-3.1559,-3.1559,-3.1816,-7.0105,-7.2459,-7.4881,-7.4964,-7.6159,-7.7164,-7.665,-7.721,-7.7745,-7.727,-7.3186,-6.8572,-6.4665,-6.4454,-6.658,0.0,0.0,0.0,-8.8014,-9.2351,-9.4914,0.0,-9.616,0.0,-9.6829,-9.7321,-9.7952,-9.8412,-9.8137,-9.8193,-9.87,-9.8804,-9.8821,-9.8992,-9.9513,-10.0586,-10.2382,-10.4593,-10.559,-10.5276,-10.2854,-10.1284,-10.0197,-9.6447,-9.4364,-9.3645,-9.2597,-9.1871,-9.1353,-9.0087,-8.914,-8.8267,-8.5878,-8.3512,-8.1263,-7.9665,-7.7814,-7.5865,-7.4897,-7.4598,-7.4335,-7.2996,-7.2244,-7.1674,-7.0203,-6.9798,-6.9798,-6.9798,-6.9798,-6.9574,-6.8403,-6.7379,-6.6274,-6.4615,-6.4584,-6.4584,-6.2935,-6.2233,-6.0706,-5.6528,-5.1774,-4.7707,-4.5653,-4.2326,-4.0657,-4.2416,-4.043,-3.95,-4.1528,-3.9644,-3.8465,-3.9125,-3.7287,-3.5782,-3.5344,-3.4343,-3.3769,-3.3848,-3.3106,-3.2561,-3.2403,-3.1841,-3.1559,-3.1559,-3.1559,-3.1559,-3.1559,-3.1559,-3.1559,-3.1559,-3.1559,-3.185,-7.3642,-7.5078,-7.6185,-7.6904,-7.7382,-7.7575,-7.6925,-7.6439,-7.565,-7.443,0.0,-6.3535,-6.4661,-6.4871,-6.76,-7.5673,0.0,-8.5335,-9.4523,-9.6886,-9.7252,-9.6091,-9.6618,-9.7262,-9.7872,-9.7986,-9.8389,-9.9382,-9.8749,-9.8221,-9.7866,-9.824,-9.8907,-9.9941,-10.0135,-10.1213,-10.3401,-10.4702,-10.4996,-10.4289,-10.2009,-10.0188,-9.8837,-9.556,-9.3769,-9.3012,-9.2438,-9.2132,-9.1922,-9.0153,-8.9096,-8.8273,-8.4835,-8.2412,-8.0591,-7.8614,-7.7031,-7.569,-7.4299,-7.3721,-7.3482,-7.2666,-7.1848,-7.103,-7.0049,-6.9798,-6.9798,-6.9798,-6.967,-6.9349,-6.8204,-6.7054,-6.5897,-6.4734,-6.4623,-6.4432,-6.3279,-6.1625,-5.8348,-5.2286,-4.9165,-4.7029,-4.5633,-4.3394,-4.2303,-4.3727,-4.2728,-4.2281,-4.3504,-4.0515,-3.8253,-3.8253,-3.6793,-3.531,-3.4103,-3.3927,-3.389,-3.389,-3.3157,-3.2701,-3.2701,-3.1999,-3.1559,-3.1559,-3.1559,-3.1559,-3.1559,-3.1559,-3.1559,-3.1559,-3.1559,-3.1936,-7.5168,-7.6096,-7.6963,-7.816,-7.7995,-7.7331,-7.6926,-7.431,0.0,0.0,-6.6622,-6.3456,-6.4707,-6.485,-6.7556,-7.5687,-8.2975,-8.9573,-9.5015,-9.5629,-9.6112,0.0,-9.8378,-9.8599,-9.8718,-9.919,-9.941,-9.9095,-9.8992,-9.8685,-9.841,-9.8425,-9.9347,-10.1139,-10.2104,-10.323,-10.4572,-10.5108,-10.4896,-10.4169,-10.2024,-10.0313,-9.8923,-9.5735,-9.3968,-9.3367,-9.2557,-9.1847,-9.1168,-8.9579,-8.839,-8.7229,-8.378,-8.1454,-7.9845,-7.7983,-7.6479,-7.5189,-7.4146,-7.3322,-7.2548,-7.1674,-7.1355,-7.103,-7.0049,-6.9798,-6.9798,-6.9798,-6.9156,-6.8104,-6.695,-6.5897,-6.4734,-6.3592,-6.3984,-6.4432,-6.3279,-5.9709,-5.5414,-5.1367,-4.8298,-4.6251,-4.5564,-4.3601,-4.2923,-4.489,-4.3465,-4.2223,-4.2496,-4.0614,-3.9185,-3.9185,-3.6732,-3.5092,-3.4825,-3.4495,-3.4293,-3.4293,-3.33,-3.2701,-3.2701,-3.1999,-3.1559,-3.1559,-3.1559,-3.1559,-3.1559,-3.1559,-3.1559,-3.1559,-3.1559,-3.1799,-7.6844,-7.7001,-7.7009,-7.9003,-7.9294,-7.8672,-7.6345,0.0,0.0,0.0,-6.8882,-6.6859,-6.5183,-6.4906,0.0,-7.0089,-7.9787,-8.8346,-9.2789,-9.3503,-9.4603,-9.7609,-9.8376,-9.8769,-9.9009,-9.9214,-9.9214,-9.8735,-9.8735,-9.8614,-9.8493,-9.9465,-10.0767,-10.2313,-10.35,-10.4311,-10.4924,-10.498,-10.4156,-10.269,-10.1275,-9.9357,-9.6872,-9.5138,-9.3804,-9.2781,-9.1982,-9.1633,-9.1423,-8.9021,-8.7603,-8.666,-8.3359,-8.0836,-7.8946,-7.7688,-7.6338,-7.5042,-7.3562,-7.2797,-7.2329,-7.0906,-7.0482,-7.0423,-6.9988,-6.9798,-6.9798,-6.9798,-6.8928,-6.7871,-6.6742,-6.5575,-6.4401,-6.3394,-6.2989,-6.2374,-6.0442,-5.7304,-5.3581,-4.9774,-4.767,-4.6295,-4.5226,-4.4415,-4.421,-4.5324,-4.4573,-4.3573,-4.2886,-4.1262,-3.9672,-3.8366,-3.6257,-3.5027,-3.5027,-3.4844,-3.4591,-3.443,-3.35,-3.2862,-3.272,-3.1962,-3.1559,-3.1559,-3.1559,-3.1559,-3.1559,-3.1559,-3.1559,-3.1576,-3.1765,-3.2056,-7.7748,-7.7784,-7.767,-7.9809,-8.0497,-8.012,-7.7465,-7.6091,0.0,0.0,-7.1291,-7.0232,-6.6887,0.0,-6.5577,0.0,-7.5585,-8.4977,-8.948,-9.104,-9.2996,0.0,-9.7949,0.0,-9.8769,-9.8889,-9.8889,-9.8371,-9.858,-9.8787,-9.8787,-10.0698,-10.2244,-10.3202,-10.4252,-10.4924,-10.4924,-10.4626,-10.343,-10.1375,-10.0356,-9.8174,-9.4972,-9.446,-9.3483,-9.2171,-9.1398,-9.1072,-9.0919,-8.8079,-8.6465,-8.5423,-8.237,-8.003,-7.8241,-7.7126,-7.5944,-7.4673,-7.3078,-7.2414,-7.1987,-7.0296,-6.9798,-6.9798,-6.9798,-6.9574,-6.9478,-6.9478,-6.8403,-6.7157,-6.6322,-6.5142,-6.4097,-6.3279,-6.1969,-6.0168,-5.7527,-5.5057,-5.2154,-4.8343,-4.7029,-4.6154,-4.4976,-4.5094,-4.537,-4.537,-4.537,-4.48,-4.3236,-4.1813,-3.9963,-3.772,-3.6112,-3.5247,-3.5174,-3.5011,-3.483,-3.4451,-3.3732,-3.3072,-3.2715,-3.2135,-3.1645,-3.1559,-3.1559,-3.1559,-3.1559,-3.1559,-3.1559,-3.1576,-3.1867,-3.2261,-7.6866,-7.8585,-8.0488,-8.0728,-8.0754,-8.1211,-8.2612,0.0,-7.5801,-7.2035,-7.1285,-7.118,-7.0756,0.0,0.0,0.0,0.0,-8.0938,-8.5835,-8.8757,-9.1744,-9.5466,0.0,0.0,-9.8126,-9.8648,-9.8769,-9.8126,-9.8958,-9.9595,-9.9595,-10.1787,-10.3101,-10.3202,-10.4252,-10.4924,-10.4924,-10.3956,-10.2886,-10.1667,-9.9518,-9.7418,-9.5301,-9.4135,-9.3107,-9.2248,-9.1244,-8.9788,-8.7953,-8.6271,-8.4423,-8.2335,-7.9709,-7.8632,-7.8134,-7.6123,-7.4744,-7.3799,-7.2797,-7.1987,-7.1176,-7.0143,-6.9798,-6.9798,-6.9798,-6.9058,-6.8304,-6.8304,-6.671,-6.5032,-6.4813,-6.4015,-6.3164,-6.3079,-6.1615,-5.9472,-5.651,-5.3654,-5.0586,-4.7606,-4.6248,-4.5483,-4.5301,-4.5324,-4.537,-4.537,-4.537,-4.48,-4.3236,-4.1813,-4.0208,-3.8543,-3.6957,-3.5962,-3.5595,-3.5267,-3.4829,-3.4469,-3.3691,-3.3081,-3.2715,-3.2234,-3.1919,-3.1576,-3.1559,-3.1559,-3.1559,-3.1559,-3.1559,-3.1559,-3.1593,-3.2004,-7.8453,-7.822,-7.8055,-8.1183,-8.2732,-8.3519,-8.4174,0.0,-7.3177,-7.1572,-7.1295,-7.158,-7.25,-7.1253,0.0,0.0,0.0,0.0,-8.1021,-8.3527,-8.6738,-9.1812,-9.3858,0.0,0.0,-9.8249,-9.858,-9.8958,-10.0135,-10.0855,-10.1118,-10.2375,-10.35,-10.4156,-10.4232,-10.4092,-10.4028,-10.2807,-10.1229,-9.913,-9.8287,-9.6448,-9.371,-9.3653,-9.2801,-9.1324,-8.9642,-8.8419,-8.7295,-8.4567,-8.3119,-8.2264,-7.999,-7.8567,-7.7737,-7.6369,-7.4988,-7.3641,-7.2797,-7.1935,-7.103,-7.0143,-6.9798,-6.9798,-6.9798,-6.9026,-6.8072,-6.8072,-6.6501,-6.4734,-6.4734,-6.3902,-6.3079,-6.3079,-6.0939,-5.8427,-5.6237,-5.2769,-4.9463,-4.7279,-4.616,-4.537,-4.537,-4.537,-4.537,-4.537,-4.537,-4.48,-4.3236,-4.1813,-4.0228,-3.8641,-3.707,-3.6146,-3.5981,-3.5754,-3.542,-3.4729,-3.4267,-3.3665,-3.312,-3.2381,-3.2056,-3.1902,-3.1679,-3.1559,-3.1559,-3.1799,-3.1902,-3.1919,-3.2381,-3.2758,-8.0771,-8.0648,-8.028,-8.4869,-8.6759,-8.6895,0.0,0.0,-7.2607,-7.2599,-7.2607,-7.265,-7.2792,-7.2256,-7.1325,-6.9955,-7.098,-7.3524,-7.7595,-7.9734,-8.2847,0.0,0.0,-9.2489,-9.6007,-9.736,-9.8357,-9.9319,-10.053,-10.1364,-10.1604,-10.2498,-10.3377,-10.4236,-10.3801,-10.3322,-10.2694,-10.1794,-9.998,-9.7214,-9.6979,-9.5455,-9.2843,-9.2853,-9.2095,-9.0641,-8.8204,-8.6752,-8.5853,-8.2987,-8.163,-8.1255,-7.9828,-7.8526,-7.7401,-7.6391,-7.4929,-7.3322,-7.2414,-7.1498,-7.0666,-6.9955,-6.9798,-6.9703,-6.9382,-6.8502,-6.7567,-6.7125,-6.5683,-6.4209,-6.4209,-6.3706,-6.2963,-6.2585,-5.9932,-5.6953,-5.5193,-5.1639,-4.8342,-4.6768,-4.6006,-4.553,-4.5393,-4.537,-4.537,-4.537,-4.5074,-4.4366,-4.3236,-4.1368,-3.9654,-3.8661,-3.7183,-3.6198,-3.607,-3.5725,-3.5477,-3.4892,-3.4423,-3.3966,-3.3289,-3.2758,-3.2364,-3.2141,-3.1867,-3.1679,-3.1559,-3.1953,-3.2141,-3.2141,-3.2792,-3.3152,-8.3221,-8.6982,-8.9755,-9.2778,-9.3496,-9.1156,0.0,0.0,-7.5628,-7.5646,-7.5662,-7.4762,-7.184,-7.21,-7.2485,-7.1447,-7.1921,-7.3477,-7.6487,-7.8822,0.0,0.0,0.0,-8.9207,-9.2184,-9.5838,-9.8153,-9.863,-9.9727,-10.0448,-10.082,-10.1982,-10.2606,-10.2569,-10.3241,-10.2694,-10.1048,-10.1141,-9.9686,-9.6857,-9.5731,-9.4529,-9.3321,-9.1601,-9.0811,-9.0602,-8.728,-8.4742,-8.296,-8.1569,-7.9938,-7.835,-7.8592,-7.8186,-7.7326,-7.5591,-7.3985,-7.2414,-7.1532,-7.0574,-6.9798,-6.9798,-6.9798,-6.9574,-6.8502,-6.7362,-6.6217,-6.5032,-6.4015,-6.3079,-6.3079,-6.3079,-6.2817,-6.1465,-5.8419,-5.5236,-5.2802,-4.985,-4.7288,-4.5734,-4.576,-4.5967,-4.5438,-4.537,-4.537,-4.537,-4.409,-4.3097,-4.3097,-4.0371,-3.8516,-3.8516,-3.7147,-3.6056,-3.5641,-3.4875,-3.4441,-3.4441,-3.3988,-3.3665,-3.3289,-3.3254,-3.2912,-3.2141,-3.2124,-3.1936,-3.1559,-3.1953,-3.2141,-3.2141,-3.2518,-3.2895,-7.906,-8.6371,-9.1924,-9.0801,-9.0516,-8.8703,-8.1724,-7.785,-7.5691,-7.5703,-7.5722,-7.5417,-7.4525,-7.2953,-7.1993,-7.27,-7.2785,-7.2751,0.0,0.0,0.0,-8.42,-9.0696,-9.5195,-9.6142,-9.7508,-9.8803,-9.9727,-10.0271,-10.0784,-10.119,-10.1592,-10.199,-10.2569,-10.1478,-10.0803,-10.0499,-9.899,-9.7333,-9.5623,-9.5079,-9.4,-9.242,-9.1343,-8.9885,-8.8093,-8.5696,-8.3271,-8.0841,-8.0223,-7.943,-7.8559,-7.8048,-7.7382,-7.6411,-7.4756,-7.3122,-7.1586,-7.1266,-7.0574,-6.9798,-6.9798,-6.9798,-6.9478,-6.7465,-6.6638,-6.6004,-6.4127,-6.3394,-6.3079,-6.3079,-6.2438,-6.1467,-6.0644,-5.7378,-5.39,-5.2078,-4.9603,-4.7288,-4.5711,-4.5783,-4.6081,-4.5898,-4.5576,-4.5484,-4.5829,-4.4313,-4.3097,-4.3097,-4.0371,-3.835,-3.8059,-3.6441,-3.5449,-3.5623,-3.5369,-3.4999,-3.4476,-3.4229,-3.4042,-3.3683,-3.3409,-3.3032,-3.2518,-3.2261,-3.2073,-3.1953,-3.2073,-3.2398,-3.2912,-3.3306,-3.3546,0.0,-8.1883,-8.6399,-8.4556,-8.406,0.0,0.0,0.0,-7.5658,-7.5743,-7.5703,-7.573,-7.5703,-7.3789,0.0,0.0,0.0,0.0,0.0,0.0,0.0,-8.4505,0.0,-9.5702,-9.6277,-9.7658,-9.8957,-9.9814,-10.0149,-10.0375,-10.0452,-10.0732,-10.0783,-10.0601,-10.0033,-9.939,-9.8712,-9.746,-9.5959,-9.4071,-9.3809,-9.285,-9.1241,-9.0008,-8.8442,-8.6617,-8.4316,-8.2039,0.0,-7.9303,-7.8565,-7.7794,-7.758,-7.6802,-7.559,-7.4286,-7.2689,-7.112,-7.0757,-7.033,-6.9798,-6.9798,-6.9252,-6.8304,-6.7362,-6.611,-6.4875,-6.3508,-6.3079,-6.3079,-6.3079,-6.191,-6.0464,-5.9165,-5.5784,-5.2388,-5.0701,-4.8608,-4.6837,-4.5851,-4.5898,-4.6058,-4.5875,-4.5576,-4.5325,-4.507,-4.3434,-4.1954,-4.1368,-3.9221,-3.7492,-3.7051,-3.6012,-3.5166,-3.5174,-3.5029,-3.4657,-3.4174,-3.4212,-3.4076,-3.3854,-3.3614,-3.3237,-3.2689,-3.245,-3.221,-3.1919,-3.221,-3.2741,-3.3494,-3.3734,-3.3837,0.0,0.0,0.0,0.0,0.0,0.0,0.0,0.0,0.0,0.0,0.0,0.0,0.0,0.0,0.0,0.0,0.0,0.0,0.0,-7.7198,0.0,0.0,-8.9376,-9.2116,-9.3553,-9.6692,-9.8722,-9.9148,-9.9363,-9.9394,-9.9056,-9.9557,-9.9082,-9.7515,-9.8648,-9.8258,-9.6191,-9.6522,-9.532,-9.2619,-9.2161,-9.1297,-8.9971,-8.7909,-8.6619,-8.5925,-8.3059,-8.1079,-7.9731,-7.869,-7.7559,-7.6545,-7.7152,-7.637,-7.4798,-7.3941,-7.2551,-7.094,-7.0143,-6.9798,-6.9798,-6.9798,-6.8204,-6.6638,-6.777,-6.579,-6.3164,-6.3164,-6.3164,-6.3164,-6.2933,-6.1468,-5.9439,-5.6955,-5.3827,-5.0785,-4.882,-4.7258,-4.615,-4.6081,-4.6104,-4.5967,-4.5484,-4.537,-4.48,-4.3419,-4.1693,-4.0085,-3.8641,-3.7217,-3.6052,-3.5605,-3.5495,-3.5281,-3.4476,-3.4005,-3.3871,-3.3837,-3.3837,-3.382,-3.3802,-3.3802,-3.3443,-3.2655,-3.2672,-3.233,-3.1611,-3.2381,-3.3117,-3.3802,-3.382,-3.3837,-7.3642,0.0,-7.5206,-7.5569,-7.5691,-7.5681,0.0,0.0,0.0,0.0,0.0,0.0,0.0,0.0,0.0,0.0,0.0,-7.2987,-7.4647,0.0,0.0,-8.8734,-9.2455,-9.4738,-9.4885,-9.6854,-9.8481,-9.9428,-9.9308,-9.931,-9.9713,-9.9257,-9.8635,-9.7867,-9.7255,-9.6599,-9.5863,-9.5578,-9.4613,-9.2958,-9.1935,-9.0803,-8.9591,-8.7417,-8.548,-8.3757,-8.2012,-8.0294,-7.8622,-7.7955,-7.7551,-7.7187,-7.6795,-7.5599,-7.3906,-7.3065,-7.1634,-7.0049,-6.9893,-6.9798,-6.9798,-6.9798,-6.8204,-6.6638,-6.777,-6.6291,-6.432,-6.432,-6.432,-6.3872,-6.2028,-6.0105,-5.7997,-5.5114,-5.2387,-4.984,-4.771,-4.7048,-4.6472,-4.5691,-4.5852,-4.6081,-4.5967,-4.4635,-4.3647,-4.3578,-4.1007,-3.8932,-3.8516,-3.7217,-3.6052,-3.5605,-3.5396,-3.4963,-3.4441,-3.4246,-3.4145,-3.3854,-3.3837,-3.37,-3.3426,-3.3409,-3.3049,-3.2278,-3.2535,-3.245,-3.2004,-3.3049,-3.3511,-3.3409,-3.37,-3.3837,-7.3407,-7.4765,-7.5359,-7.5624,-7.5648,-7.5669,0.0,0.0,0.0,0.0,0.0,0.0,0.0,0.0,0.0,0.0,-7.3029,0.0,0.0,0.0,-8.6501,-8.9816,-9.259,-9.4617,-9.5599,-9.6725,-9.7768,-9.8406,-9.8488,-9.8517,-9.8745,-9.8259,-9.7764,-9.7253,-9.6291,-9.5551,-9.5098,-9.4252,-9.3239,-9.199,-9.0625,-8.9145,-8.7581,-8.569,-8.372,-8.1785,-8.1204,-7.9949,-7.8278,-7.7697,-7.7294,-7.6902,-7.6152,-7.4738,-7.3084,-7.2636,-7.1376,-6.9798,-6.9798,-6.9798,-6.9703,-6.9156,-6.7802,-6.6638,-6.777,-6.6501,-6.4734,-6.4734,-6.432,-6.3532,-6.1555,-5.9123,-5.6528,-5.4047,-5.1229,-4.8652,-4.751,-4.7051,-4.677,-4.6472,-4.6449,-4.6403,-4.615,-4.4604,-4.3143,-4.2458,-4.0227,-3.8224,-3.7511,-3.6793,-3.6052,-3.5605,-3.5456,-3.5157,-3.4724,-3.4464,-3.4364,-3.4156,-3.3837,-3.3751,-3.3828,-3.3506,-3.2998,-3.2398,-3.2415,-3.2501,-3.2655,-3.3272,-3.3563,-3.3528,-3.3751,-3.3837,-7.3502,-7.4929,-7.5695,-7.5729,-7.572,-7.5676,-7.5703,0.0,0.0,0.0,0.0,0.0,0.0,-7.4389,0.0,0.0,0.0,0.0,-8.0175,-8.3358,-8.6548,-8.9838,-9.1761,-9.3622,-9.5799,-9.6415,-9.6939,-9.7416,-9.7476,-9.7569,-9.7599,-9.7175,-9.6653,-9.6024,-9.5463,-9.47,-9.3861,-9.2897,-9.1798,-9.0603,-8.8682,-8.6861,-8.5098,-8.3301,-8.1637,-8.0094,-8.0116,-7.9468,-7.8207,-7.7482,-7.683,-7.6331,-7.551,-7.4104,-7.2464,-7.2498,-7.1376,-6.9798,-6.9798,-6.9798,-6.9574,-6.8502,-6.7362,-6.6533,-6.7567,-6.6322,-6.4512,-6.4623,-6.3872,-6.2672,-6.1197,-5.8259,-5.5132,-5.3188,-5.0284,-4.7903,-4.7628,-4.7252,-4.7092,-4.7459,-4.7183,-4.6724,-4.601,-4.4568,-4.2771,-4.0822,-3.9116,-3.7639,-3.6349,-3.6201,-3.6052,-3.5754,-3.5605,-3.5456,-3.5007,-3.4724,-3.4441,-3.4441,-3.3988,-3.3936,-3.4116,-3.3506,-3.2998,-3.2604,-3.2398,-3.2621,-3.3272,-3.3323,-3.3528,-3.3837,-3.3837,-3.3837,-7.4134,-7.4903,-7.5735,-7.5709,-7.5737,-7.5703,-7.568,0.0,0.0,0.0,0.0,0.0,0.0,-7.4662,-7.4373,0.0,0.0,-7.9498,0.0,0.0,-8.9328,-9.0566,-9.2721,-9.4483,-9.5142,-9.5795,-9.6828,-9.837,-9.7232,-9.6869,-9.7859,-9.6585,-9.5532,-9.4901,-9.4604,-9.3555,-9.1694,-9.1894,-9.1403,-9.0131,-8.6661,-8.4619,-8.3787,-8.1034,-7.936,-7.8671,-7.8022,-7.7667,-7.7551,-7.6081,-7.5903,-7.6331,-7.551,-7.4104,-7.2498,-7.2498,-7.1321,-6.9798,-6.9798,-6.9798,-6.9574,-6.8502,-6.7362,-6.6428,-6.6638,-6.5063,-6.3478,-6.4401,-6.375,-6.2201,-6.0022,-5.7075,-5.4131,-5.179,-5.0101,-4.8544,-4.7328,-4.7275,-4.7413,-4.7069,-4.6931,-4.6393,-4.4981,-4.3157,-4.1276,-3.9632,-3.772,-3.6497,-3.6201,-3.6201,-3.6201,-3.6052,-3.5754,-3.5456,-3.5007,-3.5007,-3.4724,-3.4441,-3.3988,-3.3546,-3.3025,-3.2809,-3.2604,-3.2227,-3.2792,-3.3152,-3.3272,-3.3597,-3.3785,-3.3837,-3.3837,-3.3837,-7.2277,-7.3767,-7.6492,-7.9659,-7.6855,-7.3733,-7.5364,-7.4566,0.0,0.0,0.0,0.0,0.0,0.0,-7.6275,-7.7532,0.0,-8.1508,-8.3976,-8.6869,-8.9164,-9.0767,-9.2355,-9.3749,-9.4866,-9.561,-9.6177,-9.6698,-9.6318,-9.6215,-9.6683,-9.5395,-9.4779,-9.511,-9.3404,-9.1979,-9.0823,-8.9475,-8.8406,-8.7541,-8.4696,-8.2628,-8.1281,-7.9588,-7.8273,-7.7343,-7.7379,-7.7233,-7.683,-7.6152,-7.6081,-7.6221,-7.4993,-7.3677,-7.2414,-7.141,-7.0482,-6.9798,-6.9798,-6.9382,-6.8732,-6.7567,-6.6846,-6.6322,-6.5683,-6.4734,-6.3923,-6.3325,-6.254,-6.1319,-5.8828,-5.5956,-5.3156,-5.0978,-4.9345,-4.819,-4.7832,-4.7666,-4.7643,-4.7689,-4.7482,-4.6757,-4.4826,-4.3146,-4.1232,-3.916,-3.733,-3.6201,-3.6201,-3.6201,-3.6201,-3.6201,-3.6052,-3.5754,-3.5306,-3.5306,-3.4918,-3.4145,-3.4186,-3.3558,-3.2415,-3.2775,-3.2826,-3.2433,-3.2981,-3.3374,-3.358,-3.3751,-3.3837,-3.3837,-3.3837,-3.3837,-7.0431,-7.1975,-7.5479,-8.0295,-7.6922,-7.3074,-7.6115,-7.5344,-7.4175,0.0,0.0,0.0,0.0,-7.5754,0.0,-8.058,-8.2056,-8.3494,-8.56,-8.7841,-8.9893,-9.1774,-9.26,-9.3639,-9.5197,-9.5642,-9.5685,-9.5285,-9.5589,-9.578,-9.572,-9.4382,-9.4167,-9.5115,-9.2316,-9.0462,-8.9836,-8.6845,-8.5213,-8.4886,-8.276,-8.0805,-7.9013,-7.8086,-7.7092,-7.6152,-7.6723,-7.6652,-7.6117,-7.6117,-7.6117,-7.5971,-7.4393,-7.3125,-7.1987,-7.0389,-6.9798,-6.9798,-6.9478,-6.883,-6.7871,-6.6742,-6.6428,-6.6217,-6.5032,-6.4734,-6.4218,-6.2145,-6.094,-5.9721,-5.7377,-5.4761,-5.2201,-5.0479,-4.8918,-4.7918,-4.8308,-4.8102,-4.7895,-4.8171,-4.801,-4.7167,-4.4892,-4.3337,-4.1457,-3.9062,-3.7368,-3.6347,-3.6347,-3.6347,-3.6347,-3.6347,-3.6347,-3.6198,-3.5899,-3.551,-3.4847,-3.4031,-3.4145,-3.3717,-3.2296,-3.2912,-3.3135,-3.2826,-3.3203,-3.3546,-3.3837,-3.3837,-3.3837,-3.3837,-3.3837,-3.3837,-6.9905,-6.9973,-7.056,-7.1861,-7.3857,-7.6182,-7.9166,-7.7652,0.0,-7.5637,0.0,0.0,0.0,-7.5213,-7.7668,-7.9904,-8.346,-8.6429,-8.8017,-9.116,-9.3725,-9.4617,-9.4999,-9.5518,-9.64,-9.6332,-9.6128,-9.5847,-9.5675,-9.5707,-9.5885,-9.431,-9.3573,-9.3945,-9.1368,-8.9319,-8.791,-8.4527,-8.3066,-8.3486,-8.0757,-7.894,-7.796,-7.6193,-7.5405,-7.5296,-7.5332,-7.5332,-7.5296,-7.5296,-7.5296,-7.5187,-7.4181,-7.2749,-7.1176,-7.0143,-6.9798,-6.967,-6.8601,-6.8204,-6.7871,-6.6742,-6.6428,-6.6217,-6.5032,-6.4734,-6.4137,-6.1173,-5.8993,-5.715,-5.5199,-5.3273,-5.1534,-5.0316,-4.9198,-4.8354,-4.8377,-4.8354,-4.8217,-4.778,-4.8056,-4.7554,-4.4936,-4.3191,-4.1559,-3.9456,-3.7802,-3.6787,-3.6787,-3.6787,-3.6787,-3.6787,-3.6787,-3.6787,-3.6787,-3.4935,-3.4116,-3.4475,-3.4179,-3.3561,-3.2655,-3.3049,-3.3254,-3.322,-3.3597,-3.382,-3.3837,-3.3837,-3.3837,-3.3837,-3.3837,-3.3837,-6.986,-6.976,-7.0049,-7.1031,-7.2186,0.0,0.0,-7.8104,-8.0731,-7.8865,-7.8939,0.0,0.0,0.0,-8.0613,-8.1615,-8.5201,-8.8261,-8.9425,-9.2193,-9.3985,-9.3805,-9.4759,-9.5275,-9.4919,-9.5541,-9.5699,-9.4933,-9.4745,-9.4758,-9.512,-9.3416,-9.2818,-9.3773,-9.0384,-8.7915,-8.6636,-8.3178,-8.0989,-8.0095,-7.8396,-7.7239,-7.6574,-7.5586,-7.5225,-7.5225,-7.5225,-7.5225,-7.5225,-7.5225,-7.5225,-7.5042,-7.3562,-7.1901,-7.033,-6.9988,-6.9349,-6.8732,-6.8304,-6.7668,-6.695,-6.6533,-6.6428,-6.6217,-6.5032,-6.3923,-6.2288,-5.9244,-5.7052,-5.5279,-5.3896,-5.2054,-5.0482,-4.9365,-4.8667,-4.84,-4.84,-4.8148,-4.7964,-4.8079,-4.801,-4.7349,-4.531,-4.3762,-4.1989,-3.9908,-3.8236,-3.7209,-3.7209,-3.7209,-3.7209,-3.7209,-3.6515,-3.6218,-3.6388,-3.4802,-3.3984,-3.4475,-3.4092,-3.3489,-3.2707,-3.3289,-3.3511,-3.3272,-3.3648,-3.3837,-3.3837,-3.3837,-3.3837,-3.3837,-3.3837,-3.3957,-6.9849,-7.0063,-7.0415,-7.1151,0.0,0.0,-7.1283,-7.8213,-8.4346,-8.3193,-8.1088,-7.8722,-7.6284,0.0,0.0,0.0,-8.6382,-8.913,-9.0196,-9.2315,-9.3706,-9.3288,-9.4241,-9.47,-9.4188,-9.5145,-9.5415,-9.4375,-9.4467,-9.4589,-9.4502,-9.3183,-9.2553,-9.2806,-8.9218,-8.6609,-8.5207,-8.1723,-7.9329,-7.7979,-7.6909,-7.6172,-7.5798,-7.537,-7.5225,-7.5225,-7.5225,-7.5225,-7.5225,-7.5225,-7.4858,-7.4181,-7.2666,-7.1142,-6.9798,-6.9798,-6.9252,-6.8502,-6.777,-6.726,-6.6846,-6.611,-6.611,-6.6048,-6.4285,-6.2859,-6.1045,-5.7266,-5.5068,-5.3581,-5.2144,-5.0978,-4.9771,-4.8667,-4.84,-4.84,-4.84,-4.8125,-4.7895,-4.7918,-4.7895,-4.7425,-4.5755,-4.412,-4.2385,-4.0913,-3.888,-3.7613,-3.7613,-3.7613,-3.7558,-3.7429,-3.63,-3.5762,-3.6218,-3.4667,-3.4035,-3.4504,-3.4001,-3.3546,-3.3042,-3.3374,-3.3597,-3.3443,-3.37,-3.3837,-3.3837,-3.3837,-3.3837,-3.3837,-3.3837,-3.4042,-6.9816,-7.0515,0.0,0.0,0.0,0.0,-7.1322,-7.8215,-8.5479,-8.8453,-8.3191,-7.9586,-8.4663,-8.1491,0.0,-8.3536,-8.6847,-8.913,-9.0196,-9.1811,-9.3216,-9.3737,-9.385,-9.4041,-9.4628,-9.5223,-9.5222,-9.4366,-9.5253,-9.5338,-9.4141,-9.3864,-9.2805,-9.0776,-8.7876,-8.5458,-8.3523,-8.015,-7.8229,-7.7792,-7.6403,-7.5798,-7.5798,-7.537,-7.5225,-7.5225,-7.5225,-7.5225,-7.5225,-7.5189,-7.4104,-7.2379,-7.1532,-7.0666,-6.9798,-6.9798,-6.9798,-6.9478,-6.7157,-6.7157,-6.7668,-6.5467,-6.5467,-6.5847,-6.2759,-6.1905,-6.0671,-5.5247,-5.327,-5.2253,-4.9782,-4.9652,-4.9771,-4.8667,-4.84,-4.84,-4.84,-4.84,-4.8102,-4.7092,-4.7712,-4.7918,-4.6403,-4.4315,-4.2704,-4.2269,-3.9872,-3.8016,-3.8016,-3.8016,-3.7869,-3.7466,-3.63,-3.5762,-3.6218,-3.465,-3.3988,-3.4441,-3.3988,-3.3816,-3.3883,-3.3569,-3.346,-3.3837,-3.3837,-3.3837,-3.3837,-3.3837,-3.3837,-3.3837,-3.3837,-3.4042,-6.9251,-7.0046,0.0,0.0,0.0,0.0,0.0,-8.1254,0.0,0.0,-8.6808,-8.4274,-8.267,-8.3241,0.0,-8.5174,-8.7406,-8.9376,-9.0383,-9.1836,-9.2633,-9.2277,-9.3529,-9.3964,-9.281,-9.3379,-9.3413,-9.2399,-9.2329,-9.2657,-9.3364,-9.1347,-9.0258,-9.0346,-8.6475,-8.3912,-8.3027,-7.9816,-7.8071,-7.7792,-7.6403,-7.5727,-7.5585,-7.537,-7.5225,-7.5225,-7.5225,-7.5225,-7.5116,-7.4487,-7.3562,-7.2379,-7.1532,-7.0666,-6.9798,-6.9798,-6.9252,-6.8502,-6.7871,-6.726,-6.6846,-6.611,-6.5263,-6.4182,-6.2414,-6.0323,-5.7866,-5.4181,-5.2077,-5.0567,-4.9115,-4.8428,-4.8372,-4.8453,-4.84,-4.84,-4.84,-4.84,-4.8308,-4.801,-4.8194,-4.824,-4.7803,-4.5227,-4.3263,-4.3118,-4.0511,-3.8456,-3.8456,-3.8199,-3.7961,-3.7851,-3.6769,-3.6066,-3.6218,-3.5237,-3.4707,-3.4857,-3.4423,-3.4087,-3.3816,-3.3665,-3.3734,-3.3837,-3.3837,-3.3837,-3.3837,-3.3837,-3.3837,-3.3837,-3.4111,-3.4436,-6.7586,0.0,0.0,0.0,-7.0803,-7.4585,-8.0546,0.0,0.0,0.0,-8.91,-8.9493,-8.5515,-8.5214,-8.5888,-8.6629,-8.7789,-8.9019,-9.0031,-9.1057,-9.1729,-9.1767,-9.289,-9.3248,-9.2306,-9.2044,-9.1912,-9.1805,-9.1117,-9.1042,-9.1794,-9.0361,-8.9099,-8.8205,-8.5446,-8.341,-8.226,-7.9479,-7.7942,-7.7641,-7.6403,-7.5657,-7.5334,-7.5297,-7.5225,-7.5225,-7.5225,-7.5225,-7.5116,-7.3834,-7.2962,-7.2414,-7.1176,-7.033,-6.9798,-6.9798,-6.9382,-6.8732,-6.8304,-6.7475,-6.6536,-6.5596,-6.4166,-6.2274,-6.0495,-5.8008,-5.529,-5.275,-5.093,-4.9535,-4.8638,-4.7955,-4.778,-4.8263,-4.84,-4.84,-4.84,-4.84,-4.8331,-4.8125,-4.8263,-4.8331,-4.8125,-4.6102,-4.4247,-4.3642,-4.0763,-3.864,-3.864,-3.842,-3.8144,-3.7814,-3.7049,-3.6327,-3.6002,-3.5299,-3.5007,-3.5007,-3.4574,-3.429,-3.3988,-3.3837,-3.3837,-3.3837,-3.3837,-3.3837,-3.3837,-3.3837,-3.3905,-3.4059,-3.4282,-3.4676,0.0,0.0,0.0,0.0,0.0,0.0,-8.3364,-8.2528,-8.133,-8.4045,0.0,-9.4101,-9.1168,-8.7406,-8.5528,-8.792,-8.8013,-8.8195,-8.9271,-8.9966,-9.0812,-9.2045,-9.2096,-9.2119,-9.2426,-9.1076,-9.0583,-9.1673,-9.079,-9.0069,-8.9609,-9.0039,-8.869,-8.5065,-8.4627,-8.3448,-8.1382,-7.9166,-7.7886,-7.7525,-7.6336,-7.5585,-7.5225,-7.5225,-7.5225,-7.5225,-7.5225,-7.5225,-7.5042,-7.3241,-7.2429,-7.2226,-7.044,-6.9699,-6.9699,-6.9699,-6.9732,-6.967,-6.8502,-6.7618,-6.6606,-6.4364,-6.2293,-6.0185,-5.7633,-5.5442,-5.3243,-5.1209,-4.9921,-4.9109,-4.8483,-4.7941,-4.7689,-4.8194,-4.8286,-4.8263,-4.8308,-4.8331,-4.8194,-4.778,-4.8079,-4.824,-4.778,-4.6703,-4.5319,-4.3491,-4.0763,-3.8798,-3.864,-3.8603,-3.831,-3.7558,-3.714,-3.6489,-3.5731,-3.536,-3.5192,-3.5007,-3.4724,-3.4441,-3.429,-3.3988,-3.3837,-3.3837,-3.3837,-3.3837,-3.3837,-3.3871,-3.4059,-3.4385,-3.4453,-3.4847,0.0,0.0,0.0,0.0,0.0,0.0,-8.4272,-8.4128,-8.3869,-8.4481,-8.831,-9.1438,-9.0732,-8.9888,-8.9167,-8.8873,-8.8057,-8.7941,-8.9241,-9.0301,-9.1016,-9.1338,-9.2082,-9.2067,-9.0869,-9.0125,-8.9301,-8.8301,-8.8714,-8.8474,-8.7057,-8.7408,-8.6453,-8.3894,-8.3009,-8.1843,-8.0254,-7.884,-7.7886,-7.7525,-7.6336,-7.5585,-7.5225,-7.5225,-7.5225,-7.5225,-7.5225,-7.5225,-7.5042,-7.3241,-7.2119,-7.1435,-6.9669,-6.8937,-6.8937,-6.8937,-6.9301,-6.967,-6.8502,-6.7085,-6.5425,-6.3049,-6.0737,-5.8176,-5.5374,-5.406,-5.2932,-4.9791,-4.9078,-4.9038,-4.8044,-4.7413,-4.716,-4.7689,-4.7482,-4.7321,-4.7712,-4.7803,-4.7895,-4.8171,-4.8308,-4.8354,-4.824,-4.6927,-4.487,-4.2002,-4.0938,-4.0021,-3.8798,-3.8346,-3.8089,-3.7906,-3.7458,-3.7075,-3.6582,-3.6394,-3.5948,-3.5025,-3.4857,-3.4574,-3.3988,-3.3837,-3.3837,-3.3837,-3.3837,-3.3837,-3.3837,-3.4128,-3.4316,-3.4402,-3.4984,-3.5344,0.0,0.0,0.0,0.0,0.0,0.0,0.0,-8.4214,-8.4826,-8.4693,-8.7818,-9.0586,-9.0619,-9.0581,-9.0407,-8.9906,-8.8444,-8.7611,-8.8099,-8.9197,-9.0217,-9.0823,-9.1484,-9.1294,-9.0012,-8.8853,-8.8074,-8.7862,-8.6853,-8.6163,-8.5972,-8.5586,-8.4599,-8.2874,-8.2148,-8.1228,-8.0075,-7.8655,-7.7493,-7.6533,-7.5991,-7.5299,-7.4654,-7.4654,-7.4654,-7.4618,-7.4225,-7.4047,-7.3902,-7.2126,-7.1153,-7.0643,-6.8841,-6.8374,-6.8672,-6.8672,-6.8818,-6.8895,-6.7914,-6.5694,-6.301,-6.1478,-5.8319,-5.4994,-5.3894,-5.2517,-5.0796,-4.9614,-4.9015,-4.8681,-4.8131,-4.7436,-4.6954,-4.7206,-4.7252,-4.7321,-4.7574,-4.7826,-4.8079,-4.8331,-4.84,-4.84,-4.84,-4.6381,-4.4117,-4.2443,-4.0938,-3.9569,-3.864,-3.8456,-3.8236,-3.8034,-3.7833,-3.7385,-3.6849,-3.6631,-3.6128,-3.5308,-3.498,-3.4574,-3.4139,-3.3837,-3.3837,-3.3837,-3.3837,-3.3922,-3.4111,-3.4299,-3.4573,-3.4933,-3.5326,-3.56,0.0,0.0,0.0,0.0,0.0,0.0,0.0,-8.3531,-8.4855,-8.4831,-8.7685,-9.0125,-8.9825,-9.0226,-9.0456,-8.9875,-8.8273,-8.7008,-8.6647,-8.7715,-8.9007,-9.0218,-9.0545,-9.0283,-8.9394,-8.7595,-8.6853,-8.7731,-8.5305,-8.4086,-8.4881,-8.4228,-8.3212,-8.1805,-8.1574,-8.0932,-7.9792,-7.822,-7.6737,-7.527,-7.5109,-7.4583,-7.3797,-7.369,-7.369,-7.3761,-7.3083,-7.2727,-7.2477,-7.0828,-7.0037,-6.9687,-6.8071,-6.7777,-6.8307,-6.8121,-6.7945,-6.7519,-6.6374,-6.3661,-6.0535,-5.925,-5.5721,-5.2049,-5.2672,-5.0772,-4.8539,-4.9487,-4.9078,-4.84,-4.84,-4.7712,-4.7,-4.7,-4.7275,-4.7505,-4.7505,-4.7895,-4.8286,-4.8377,-4.84,-4.84,-4.84,-4.5937,-4.3794,-4.3491,-4.0919,-3.8956,-3.864,-3.864,-3.8511,-3.8163,-3.797,-3.7649,-3.694,-3.639,-3.5986,-3.5457,-3.4802,-3.4441,-3.429,-3.4057,-3.3905,-3.3837,-3.3837,-3.4025,-3.4385,-3.4453,-3.4847,-3.5498,-3.5566,-3.5772,0.0,0.0,0.0,0.0,0.0,0.0,0.0,0.0,-8.3797,0.0,-8.7179,-8.8111,-8.6787,-8.8734,-8.973,-8.6955,-8.6245,-8.5954,-8.5552,-8.7017,-8.8339,-8.9067,-8.9527,-8.9327,-8.8133,-8.6891,-8.5662,-8.4394,-8.4332,-8.3665,-8.1964,-8.3154,-8.2869,-8.0621,-8.0752,-7.9932,-7.8151,-7.6716,-7.5507,-7.4431,-7.3568,-7.3048,-7.2941,-7.2298,-7.237,-7.2941,-7.2834,-7.2405,-7.1704,-7.0625,-6.9399,-6.8133,-6.7068,-6.6717,-6.6726,-6.5857,-6.5868,-6.5867,-6.2778,-6.1025,-5.9385,-5.5767,-5.3406,-5.1627,-5.0161,-4.9097,-4.84,-4.8511,-4.8523,-4.84,-4.84,-4.7964,-4.7528,-4.7528,-4.7252,-4.6977,-4.6977,-4.739,-4.7872,-4.8308,-4.84,-4.84,-4.84,-4.6847,-4.517,-4.3642,-4.2002,-4.0178,-3.8798,-3.864,-3.8621,-3.8566,-3.8249,-3.777,-3.7373,-3.6648,-3.581,-3.5169,-3.465,-3.429,-3.3837,-3.4145,-3.4162,-3.3837,-3.3837,-3.4025,-3.4385,-3.4727,-3.5104,-3.5515,-3.5857,-3.6046,0.0,0.0,0.0,0.0,0.0,0.0,0.0,0.0,-8.2307,-8.4455,-8.5596,-8.6168,-8.5922,-8.7022,-8.7471,-8.61,-8.5917,-8.561,-8.4719,-8.5775,-8.6759,-8.716,-8.7801,-8.7731,-8.6317,-8.5522,-8.4804,-8.4154,-8.3465,-8.2735,-8.2048,-8.1697,-8.0733,-7.9157,-7.8617,-7.7591,-7.6032,-7.5249,-7.4424,-7.3447,-7.2612,-7.1942,-7.1513,-7.07,-7.102,-7.2156,-7.1197,-7.055,-7.0143,-6.8785,-6.7876,-6.71,-6.6213,-6.6022,-6.6053,-6.5283,-6.4434,-6.3406,-6.1135,-5.8402,-5.5639,-5.3797,-5.1563,-4.9512,-4.9283,-4.8568,-4.7981,-4.8315,-4.84,-4.84,-4.84,-4.801,-4.7643,-4.7643,-4.7252,-4.6954,-4.7252,-4.7482,-4.778,-4.8286,-4.84,-4.8086,-4.7163,-4.5617,-4.3945,-4.2463,-4.0783,-3.9411,-3.864,-3.864,-3.864,-3.864,-3.8163,-3.7683,-3.7131,-3.6252,-3.5554,-3.4709,-3.4536,-3.4298,-3.4145,-3.4522,-3.4642,-3.4487,-3.447,-3.4556,-3.471,-3.5087,-3.5463,-3.584,-3.6011,-3.6097,0.0,0.0,0.0,0.0,0.0,0.0,0.0,0.0,-8.1507,0.0,-8.4115,-8.479,-8.5583,-8.5767,-8.5773,-8.5727,-8.5563,-8.5152,-8.422,-8.5075,-8.5776,-8.5751,-8.6432,-8.6291,-8.4873,-8.4287,-8.396,-8.3864,-8.2584,-8.1797,-8.1862,-8.0305,-7.8902,-7.7779,-7.6798,-7.5686,-7.4395,-7.3775,-7.2958,-7.1906,-7.1335,-7.0657,-6.9872,-6.9035,-6.9352,-7.0451,-6.9203,-6.8473,-6.8246,-6.7155,-6.6542,-6.6287,-6.5658,-6.5384,-6.5255,-6.3966,-6.2477,-6.0753,-5.8502,-5.5569,-5.2681,-5.1948,-4.9942,-4.7969,-4.8756,-4.8283,-4.7734,-4.824,-4.84,-4.84,-4.84,-4.8102,-4.7826,-4.7826,-4.7436,-4.7183,-4.7551,-4.7734,-4.7941,-4.8308,-4.8086,-4.731,-4.6085,-4.4268,-4.2443,-4.1249,-3.9726,-3.864,-3.864,-3.864,-3.864,-3.864,-3.8163,-3.7719,-3.6958,-3.6254,-3.5435,-3.4693,-3.459,-3.4539,-3.4539,-3.4898,-3.507,-3.4984,-3.5155,-3.5207,-3.5104,-3.5378,-3.5703,-3.6097,-3.6097,-3.6097,0.0,0.0,0.0,0.0,0.0,0.0,0.0,0.0,-8.2068,-8.2219,-8.3262,-8.4451,-8.5178,-8.5292,-8.5284,-8.5337,-8.4707,-8.419,-8.4079,-8.547,-8.626,-8.5431,-8.5737,-8.5536,-8.4441,-8.3698,-8.2913,-8.2108,-8.1698,-8.1014,-7.9851,-7.9285,-7.8283,-7.6611,-7.6028,-7.5088,-7.3634,-7.1992,-7.0596,-6.9479,-6.9444,-6.9015,-6.823,-6.7446,-6.72,-6.727,-6.7093,-6.6519,-6.5827,-6.649,-6.6201,-6.5481,-6.5425,-6.4793,-6.3705,-6.0782,-5.9448,-5.8317,-5.3316,-5.2103,-5.2253,-4.956,-4.8553,-4.8352,-4.8465,-4.801,-4.7734,-4.824,-4.84,-4.84,-4.84,-4.8377,-4.8354,-4.8354,-4.7964,-4.7597,-4.7643,-4.801,-4.8354,-4.8377,-4.7163,-4.5937,-4.5915,-4.3359,-4.1268,-4.1113,-3.9726,-3.864,-3.864,-3.864,-3.864,-3.864,-3.8163,-3.7827,-3.733,-3.6658,-3.5956,-3.5446,-3.5121,-3.495,-3.495,-3.5292,-3.5309,-3.4984,-3.5669,-3.5857,-3.5481,-3.5498,-3.5703,-3.6097,-3.6097,-3.6097,0.0,0.0,0.0,0.0,0.0,0.0,0.0,-7.9661,-8.0304,-8.1914,-8.2901,-8.36,-8.422,-8.4625,-8.4792,-8.4558,-8.428,-8.4104,-8.4087,-8.4609,-8.466,-8.3791,-8.3907,-8.3691,-8.2857,-8.252,-8.199,-8.1148,-8.0794,-8.0043,-7.8769,-7.757,-7.6117,-7.4474,-7.3384,-7.2255,-7.1195,-7.0937,-7.0356,-6.9301,-6.9301,-6.8623,-6.741,-6.653,-6.5877,-6.5422,-6.5298,-6.5462,-6.5662,-6.6263,-6.6091,-6.5369,-6.5128,-6.4447,-6.3154,-6.0156,-5.8317,-5.6794,-5.3335,-5.1456,-5.0312,-4.9229,-4.8451,-4.7885,-4.8315,-4.8263,-4.8148,-4.8331,-4.8148,-4.7987,-4.8308,-4.8148,-4.7918,-4.7918,-4.801,-4.8033,-4.7712,-4.778,-4.801,-4.8331,-4.6994,-4.5617,-4.4548,-4.2616,-4.0802,-3.9726,-3.8956,-3.864,-3.864,-3.864,-3.864,-3.864,-3.8004,-3.7419,-3.7011,-3.6219,-3.557,-3.5172,-3.5258,-3.5309,-3.5309,-3.5446,-3.5566,-3.5686,-3.5703,-3.5652,-3.5498,-3.5755,-3.596,-3.6097,-3.6097,-3.6097,-6.6609,0.0,0.0,0.0,0.0,0.0,-7.7264,0.0,-7.8854,-8.0405,-8.1647,-8.2545,-8.2929,-8.383,-8.4429,-8.4124,-8.3844,-8.3657,-8.3645,-8.3664,-8.3333,-8.2493,-8.2733,-8.27,-8.1967,-8.1906,-8.1524,-8.0551,-8.0161,-7.9287,-7.7705,-7.6078,-7.4385,-7.2643,-7.1524,-7.0605,-6.9829,-6.9986,-6.9603,-6.8551,-6.8551,-6.7838,-6.656,-6.5718,-6.5014,-6.4484,-6.4405,-6.4647,-6.5227,-6.6157,-6.6088,-6.5402,-6.5049,-6.3866,-6.1988,-5.9031,-5.6678,-5.4512,-5.214,-5.0268,-4.8923,-4.8731,-4.8306,-4.7964,-4.8286,-4.84,-4.8354,-4.8194,-4.7895,-4.7689,-4.7826,-4.7757,-4.7643,-4.7643,-4.8033,-4.8308,-4.7964,-4.7895,-4.7843,-4.7558,-4.6233,-4.4548,-4.2902,-4.1384,-3.9921,-3.8982,-3.8841,-3.8841,-3.8841,-3.8841,-3.8786,-3.8658,-3.8004,-3.7472,-3.7188,-3.641,-3.5811,-3.5532,-3.5635,-3.5703,-3.5703,-3.5703,-3.5823,-3.608,-3.584,-3.5703,-3.5703,-3.596,-3.6097,-3.6097,-3.6097,-3.6097,0.0,0.0,0.0,0.0,0.0,0.0,-7.4121,0.0,-7.7756,-7.7507,-7.9535,-8.1329,-8.1366,-8.2836,-8.4073,-8.4073,-8.3359,-8.2796,-8.2796,-8.2754,-8.2493,-8.1729,-8.2417,-8.2699,-8.1974,-8.1886,-8.1412,-8.0331,-7.9807,-7.8634,-7.654,-7.4913,-7.3168,-7.1231,-7.0629,-7.0175,-6.9721,-6.9038,-6.8155,-6.6981,-6.6981,-6.6589,-6.574,-6.4879,-6.449,-6.4518,-6.4372,-6.4365,-6.4564,-6.5955,-6.6088,-6.5312,-6.4988,-6.2992,-6.0022,-5.7104,-5.4278,-5.1564,-4.9282,-4.8439,-4.8282,-4.7744,-4.7987,-4.84,-4.8377,-4.8377,-4.8286,-4.7803,-4.7643,-4.7505,-4.7,-4.7252,-4.7643,-4.7666,-4.8033,-4.84,-4.84,-4.84,-4.7918,-4.6233,-4.457,-4.3075,-4.1424,-3.9745,-3.8805,-3.919,-3.9245,-3.9245,-3.9226,-3.9245,-3.9098,-3.8695,-3.834,-3.8024,-3.7933,-3.713,-3.6737,-3.6594,-3.6303,-3.6097,-3.6097,-3.608,-3.608,-3.6097,-3.608,-3.608,-3.6097,-3.6097,-3.6097,-3.6097,-3.6097,-3.6097,-6.9542,0.0,0.0,0.0,0.0,0.0,-7.2083,0.0,-7.5297,-7.642,-7.8254,-8.0,-8.1181,-8.2352,-8.3171,-8.3171,-8.2984,-8.2899,-8.3181,-8.2475,-8.1995,-8.2064,-8.216,-8.2126,-8.1925,-8.1348,-8.0465,-7.9297,-7.825,-7.7058,-7.5701,-7.3138,-7.1278,-7.0386,-6.9091,-6.8389,-6.8139,-6.8371,-6.7991,-6.6981,-6.6981,-6.6256,-6.4908,-6.4662,-6.4461,-6.4415,-6.4419,-6.4962,-6.5955,-6.6353,-6.5897,-6.4828,-6.311,-6.1175,-5.874,-5.4585,-5.2581,-5.1544,-4.9205,-4.8362,-4.8282,-4.7744,-4.7987,-4.8331,-4.7964,-4.8102,-4.8354,-4.8217,-4.7643,-4.7046,-4.6908,-4.7252,-4.7734,-4.8102,-4.8286,-4.84,-4.84,-4.84,-4.8232,-4.7772,-4.5621,-4.3854,-4.3412,-4.1183,-3.9538,-3.9648,-3.9667,-3.9557,-3.9263,-3.9483,-3.952,-3.9116,-3.874,-3.8419,-3.8323,-3.7515,-3.7014,-3.6611,-3.6525,-3.6354,-3.6097,-3.5823,-3.5806,-3.608,-3.5806,-3.5806,-3.6097,-3.6097,-3.6097,-3.6097,-3.6097,-3.6097,-6.9025,-6.9177,-6.8468,-6.7088,0.0,0.0,-6.9958,-7.1612,-7.3269,-7.4537,-7.6752,-7.8914,-8.0147,-8.142,-8.2308,-8.2308,-8.2172,-8.2151,-8.2392,-8.1606,-8.123,-8.1709,-8.1865,-8.192,-8.1912,-8.1052,-7.9966,-7.873,-7.7428,-7.6002,-7.4406,-7.2745,-7.142,-7.0533,-6.9381,-6.8631,-6.812,-6.804,-6.7554,-6.661,-6.6185,-6.5502,-6.4567,-6.4186,-6.4132,-6.4431,-6.4433,-6.5194,-6.6362,-6.537,-6.4975,-6.4706,-6.2402,-6.0062,-5.757,-5.3413,-5.1471,-5.0562,-4.8947,-4.819,-4.8076,-4.7924,-4.8148,-4.8286,-4.778,-4.7987,-4.8263,-4.762,-4.7023,-4.6609,-4.6816,-4.7252,-4.7712,-4.801,-4.824,-4.84,-4.84,-4.84,-4.8232,-4.7457,-4.5406,-4.3598,-4.3001,-4.089,-3.9447,-3.9795,-3.9703,-3.9557,-3.9483,-3.9685,-3.963,-3.9043,-3.8635,-3.8526,-3.827,-3.7421,-3.6955,-3.6628,-3.6491,-3.6303,-3.6097,-3.5874,-3.5857,-3.6097,-3.5874,-3.5857,-3.6097,-3.6097,-3.6097,-3.6097,-3.6097,-3.6097,-6.7065,-6.9008,-7.038,-6.7856,-6.7132,0.0,-6.8208,-6.9958,-7.1639,-7.2645,-7.5202,-7.7546,-7.8491,-7.9999,-8.1169,-8.1245,-8.1074,-8.097,-8.1046,-8.0696,-8.0576,-8.1118,-8.1601,-8.1875,-8.1757,-8.0746,-7.9599,-7.8321,-7.7033,-7.5396,-7.3251,-7.3093,-7.2532,-7.1323,-7.0592,-6.9839,-6.8894,-6.7914,-6.7034,-6.6128,-6.5043,-6.4532,-6.4463,-6.3589,-6.3586,-6.4267,-6.4281,-6.5127,-6.6295,-6.3871,-6.3635,-6.4546,-6.1939,-5.9129,-5.6194,-5.2917,-5.0486,-4.8987,-4.8481,-4.8053,-4.7712,-4.8102,-4.8263,-4.8194,-4.7643,-4.7872,-4.801,-4.6609,-4.6242,-4.638,-4.677,-4.7252,-4.7666,-4.7712,-4.8056,-4.84,-4.84,-4.84,-4.7918,-4.6529,-4.4955,-4.333,-4.1793,-4.0173,-3.9222,-3.974,-3.9538,-3.941,-3.974,-3.985,-3.9612,-3.87,-3.8599,-3.8394,-3.7929,-3.7171,-3.6628,-3.6628,-3.632,-3.6131,-3.6097,-3.6097,-3.6097,-3.6097,-3.6097,-3.6097,-3.6097,-3.6097,-3.6097,-3.6097,-3.6097,-3.6097,-6.8746,-6.8603,-6.8081,-6.9397,-6.9235,0.0,-6.8425,-6.956,-7.1184,-7.3325,-7.3823,-7.4386,-7.6159,-7.7351,-7.829,-7.8971,-7.9847,-8.0659,-8.1384,-8.1188,-8.1145,-8.1655,-8.1831,-8.1601,-8.0913,-7.9786,-7.8569,-7.7303,-7.597,-7.5011,-7.4506,-7.3062,-7.2095,-7.1843,-7.0091,-6.91,-6.8894,-6.7788,-6.7195,-6.6952,-6.5393,-6.4288,-6.3612,-6.2847,-6.2825,-6.3496,-6.3491,-6.463,-6.6295,-6.3871,-6.3258,-6.3273,-5.8774,-5.5935,-5.4066,-5.0947,-4.9057,-4.7981,-4.7842,-4.7693,-4.7574,-4.7275,-4.7459,-4.762,-4.6701,-4.7069,-4.7643,-4.6931,-4.7023,-4.7275,-4.6954,-4.7252,-4.7734,-4.8148,-4.8308,-4.84,-4.84,-4.84,-4.8232,-4.7941,-4.7193,-4.5895,-4.3824,-4.2804,-4.1628,-4.0195,-3.9777,-3.963,-3.9373,-3.9942,-3.9997,-3.9177,-3.9104,-3.8955,-3.8373,-3.7648,-3.6955,-3.6628,-3.6559,-3.6388,-3.6097,-3.6097,-3.6097,-3.6097,-3.6097,-3.6097,-3.6097,-3.6097,-3.6097,-3.6097,-3.6097,-3.6097,-6.7981,-6.8204,-6.8223,-6.903,-6.9507,0.0,0.0,-6.9622,-7.081,-7.224,-7.3035,-7.3885,-7.5075,-7.6705,-7.7841,-7.7923,-7.9512,-8.0576,-8.0201,-8.0685,-8.1323,-8.1917,-8.1938,-8.173,-8.1303,-7.9621,-7.8003,-7.6615,-7.5852,-7.5527,-7.5689,-7.4125,-7.3119,-7.2797,-7.1089,-6.9994,-6.9632,-6.8886,-6.792,-6.6708,-6.5268,-6.4027,-6.2863,-6.2413,-6.2599,-6.3305,-6.367,-6.4134,-6.4571,-6.2511,-6.1087,-5.9922,-5.7153,-5.4543,-5.215,-5.0122,-4.8816,-4.8017,-4.7492,-4.7413,-4.7551,-4.7046,-4.7046,-4.716,-4.6655,-4.6678,-4.6931,-4.7183,-4.7252,-4.7321,-4.7574,-4.801,-4.8446,-4.8699,-4.8951,-4.9066,-4.8814,-4.8745,-4.836,-4.7355,-4.6999,-4.6268,-4.4232,-4.2857,-4.1433,-3.9862,-3.9373,-3.9245,-3.9226,-3.9593,-3.954,-3.8635,-3.8797,-3.8447,-3.7613,-3.724,-3.6723,-3.6371,-3.6354,-3.6285,-3.6097,-3.6097,-3.6097,-3.6097,-3.6097,-3.6097,-3.6097,-3.6097,-3.6097,-3.6097,-3.6097,-3.6097,-6.7143,-6.8189,-6.9102,-6.8734,-6.9749,-7.0625,0.0,0.0,0.0,-7.1458,-7.2944,0.0,0.0,0.0,-7.7965,-7.7243,-7.9203,-8.0315,-7.9037,-7.9815,-8.0796,-8.1501,-8.1591,-8.1519,-8.1335,-7.916,-7.7341,-7.6187,-7.5872,-7.5922,-7.645,-7.5254,-7.433,-7.3854,-7.2631,-7.1603,-7.0842,-7.031,-6.8923,-6.6553,-6.5262,-6.381,-6.2313,-6.2199,-6.2643,-6.3537,-6.4133,-6.3866,-6.2923,-6.0805,-5.8615,-5.6601,-5.5684,-5.3425,-5.0611,-4.9619,-4.8748,-4.7934,-4.7258,-4.7298,-4.7551,-4.6931,-4.6655,-4.6609,-4.6701,-4.6518,-4.6449,-4.7252,-4.7321,-4.7344,-4.8056,-4.8607,-4.8974,-4.8974,-4.9365,-4.964,-4.9204,-4.9112,-4.8532,-4.6453,-4.6243,-4.5686,-4.34,-4.2062,-4.0683,-3.924,-3.8841,-3.8768,-3.908,-3.9029,-3.8777,-3.7988,-3.8202,-3.7836,-3.6737,-3.6551,-3.6405,-3.6114,-3.6097,-3.6097,-3.6097,-3.6097,-3.6097,-3.6097,-3.6097,-3.6097,-3.6097,-3.6097,-3.6097,-3.6097,-3.6097,-3.6097,-6.8363,-6.913,-6.96,-7.0793,-7.1793,-7.2219,-7.1422,0.0,-7.2652,-7.357,0.0,-7.4211,-7.4633,0.0,0.0,-7.6322,-7.8115,-7.9537,-7.9417,-7.883,-7.8757,-7.959,-8.0163,-8.0123,-7.9211,-7.7011,-7.578,-7.6111,-7.4966,-7.492,-7.645,-7.5384,-7.472,-7.4698,-7.3988,-7.3269,-7.2472,-7.1557,-6.9878,-6.7369,-6.565,-6.3927,-6.2313,-6.2199,-6.2941,-6.4266,-6.4332,-6.4162,-6.3635,-6.0195,-5.7384,-5.5126,-5.3636,-5.1683,-4.9669,-4.9276,-4.831,-4.7072,-4.739,-4.7597,-4.7482,-4.6518,-4.5898,-4.5622,-4.6081,-4.6472,-4.6816,-4.6931,-4.7574,-4.8148,-4.7803,-4.8102,-4.8469,-4.8469,-4.8837,-4.9181,-4.9112,-4.9112,-4.8646,-4.6915,-4.5937,-4.4613,-4.1788,-4.1563,-4.1071,-3.8909,-3.8676,-3.8658,-3.8695,-3.8686,-3.8401,-3.8042,-3.7643,-3.7153,-3.674,-3.632,-3.6131,-3.6097,-3.6097,-3.6097,-3.6097,-3.6097,-3.6097,-3.6097,-3.6097,-3.6097,-3.6097,-3.6097,-3.6097,-3.6097,-3.6097,-3.6097,-6.8146,-6.8903,-6.9492,-7.0575,-7.1427,-7.2038,-7.2183,-7.2472,-7.2943,-7.3922,0.0,0.0,0.0,0.0,0.0,0.0,-7.9124,-7.9895,-7.8944,-7.8885,-7.9118,-7.9455,-7.9019,-7.8535,-7.8233,-7.6579,-7.5766,-7.6286,-7.5469,-7.5366,-7.6198,-7.5764,-7.5324,-7.5024,-7.3797,-7.3052,-7.2726,-7.1206,-6.9209,-6.6813,-6.5324,-6.3634,-6.1662,-6.2448,-6.314,-6.3769,-6.3603,-6.2912,-6.1567,-5.84,-5.5365,-5.2631,-5.1189,-4.9786,-4.843,-4.8339,-4.7748,-4.6862,-4.6793,-4.6954,-4.7023,-4.6012,-4.5737,-4.5783,-4.5714,-4.6242,-4.6885,-4.6885,-4.739,-4.7964,-4.8056,-4.8446,-4.8882,-4.9204,-4.9434,-4.964,-4.9916,-4.8756,-4.7282,-4.5596,-4.3773,-4.1918,-3.9945,-4.0413,-4.0453,-3.8605,-3.8493,-3.864,-3.864,-3.8468,-3.8078,-3.7614,-3.7291,-3.6806,-3.632,-3.6183,-3.6097,-3.6097,-3.6097,-3.6097,-3.6097,-3.6097,-3.6097,-3.6097,-3.6097,-3.6097,-3.6097,-3.6097,-3.6097,-3.6097,-3.6097,-3.6097,-6.8127,-6.8877,-6.9637,-7.0257,-7.093,-7.1603,-7.1965,-7.2527,-7.313,-7.3922,-7.4666,0.0,0.0,0.0,-7.9006,-7.9132,0.0,-7.9945,-7.8496,-7.8332,-7.8321,-7.8321,-7.7256,-7.6624,-7.6729,-7.5645,-7.5223,-7.593,-7.5224,-7.5124,-7.5969,-7.58,-7.5634,-7.5442,-7.4102,-7.3103,-7.2755,-7.1085,-6.8892,-6.6086,-6.5128,-6.3511,-6.1534,-6.2709,-6.3372,-6.3603,-6.3056,-6.1784,-5.9596,-5.6828,-5.3755,-5.0667,-4.9302,-4.8203,-4.7385,-4.74,-4.7143,-4.6609,-4.6242,-4.6265,-4.6334,-4.5599,-4.5599,-4.5852,-4.5461,-4.6058,-4.6885,-4.6885,-4.7321,-4.7895,-4.8286,-4.8538,-4.8837,-4.9365,-4.9502,-4.9468,-4.9496,-4.8093,-4.6074,-4.4061,-4.1942,-4.0086,-3.8716,-3.9137,-3.9451,-3.8467,-3.8511,-3.8518,-3.8627,-3.8218,-3.7685,-3.7205,-3.6724,-3.642,-3.6097,-3.6097,-3.6097,-3.6097,-3.6097,-3.6097,-3.6097,-3.6097,-3.6097,-3.6097,-3.6097,-3.6097,-3.6097,-3.6097,-3.6097,-3.6097,-3.6097,-3.6097,-6.8928,-6.9732,-7.0364,-7.0401,-7.0951,-7.1313,-7.0625,-7.1976,-7.3516,-7.3997,-7.537,-7.6776,-7.7751,-7.9076,-7.9854,-7.9632,-7.9604,0.0,0.0,-7.6391,-7.5043,-7.5148,-7.4522,-7.4106,-7.4109,-7.3417,-7.3372,-7.448,-7.3204,-7.3487,-7.5836,-7.5434,-7.5478,-7.6239,-7.5478,-7.4312,-7.2797,-7.1942,-6.9529,-6.5508,-6.5241,-6.4153,-6.2482,-6.2993,-6.367,-6.4332,-6.3375,-6.1312,-5.8492,-5.6077,-5.3136,-5.0007,-4.8284,-4.7336,-4.6902,-4.6866,-4.6564,-4.615,-4.6127,-4.5806,-4.5393,-4.537,-4.537,-4.537,-4.537,-4.6058,-4.6885,-4.6885,-4.7597,-4.8377,-4.8377,-4.8033,-4.7803,-4.8331,-4.8446,-4.8123,-4.7087,-4.6701,-4.5748,-4.2484,-4.117,-3.999,-3.8328,-3.8016,-3.8273,-3.908,-3.8878,-3.8627,-3.867,-3.7918,-3.7205,-3.6742,-3.642,-3.6097,-3.6097,-3.6097,-3.6097,-3.6097,-3.6097,-3.6097,-3.6097,-3.6097,-3.6097,-3.6097,-3.6097,-3.6097,-3.6097,-3.6097,-3.6097,-3.6097,-3.6097,-3.6097,-6.9775,-7.0157,-7.0396,-7.0428,-7.0589,-7.076,-7.0798,-7.134,-7.2426,-7.4462,-7.5103,-7.6073,-7.8828,-7.9469,-7.9762,-8.0319,-7.9959,-7.8989,0.0,-7.4631,-7.3343,-7.4485,-7.4371,-7.4203,-7.4018,-7.2596,-7.2334,-7.3794,-7.2153,-7.1842,-7.376,-7.4123,-7.4428,-7.4718,-7.396,-7.3078,-7.2047,-7.0047,-6.785,-6.5508,-6.5149,-6.412,-6.2549,-6.3663,-6.3661,-6.2599,-6.0836,-5.882,-5.6545,-5.2456,-5.0104,-4.8814,-4.6508,-4.5717,-4.5936,-4.5874,-4.5989,-4.6127,-4.6127,-4.5783,-4.537,-4.537,-4.537,-4.537,-4.537,-4.6058,-4.6885,-4.6885,-4.7597,-4.8018,-4.676,-4.6344,-4.6411,-4.6401,-4.6624,-4.6684,-4.6721,-4.5642,-4.3975,-4.2112,-4.0257,-3.8788,-3.8731,-3.8603,-3.853,-3.8805,-3.8731,-3.8627,-3.9011,-3.8238,-3.7685,-3.7205,-3.6724,-3.642,-3.6097,-3.6097,-3.6097,-3.6097,-3.6097,-3.6097,-3.6097,-3.6097,-3.6097,-3.6097,-3.6097,-3.6097,-3.6097,-3.6097,-3.6097,-3.6097,-3.6097,-3.6097,-7.0253,-7.0417,-7.0368,-7.0056,-7.006,-7.0132,-7.0193,-7.0717,-7.1909,-7.4347,-7.4708,-7.5733,-7.9356,-7.9687,-7.9625,-8.0262,-7.9545,-7.8034,0.0,-7.3307,-7.2226,-7.3018,-7.2823,-7.2762,-7.3007,-7.1098,-7.0271,-7.1138,-6.9948,-6.9713,-7.1063,-7.1821,-7.2502,-7.3075,-7.23,-7.155,-7.0729,-6.8829,-6.7078,-6.5562,-6.526,-6.4388,-6.32,-6.3823,-6.3176,-6.1368,-5.9051,-5.6696,-5.4182,-5.0372,-4.8257,-4.7234,-4.558,-4.4958,-4.5094,-4.5094,-4.5415,-4.5852,-4.5852,-4.5645,-4.537,-4.537,-4.537,-4.537,-4.537,-4.6058,-4.6885,-4.6885,-4.7482,-4.7744,-4.6513,-4.5654,-4.5274,-4.5745,-4.5654,-4.5565,-4.6068,-4.4826,-4.3136,-4.1738,-3.9783,-3.8603,-3.9135,-3.9135,-3.9116,-3.9263,-3.9043,-3.8846,-3.9248,-3.8489,-3.7845,-3.7205,-3.6885,-3.6581,-3.6097,-3.6097,-3.6097,-3.6097,-3.6097,-3.6097,-3.6097,-3.6097,-3.6354,-3.6868,-3.6371,-3.6354,-3.6885,-3.6354,-3.6097,-3.6097,-3.6097,-3.6097]}]]